GFSMA_sfc_thetae_000.txt.gz
Theta_e
365 361 364 362 359 362 361 358 358 356 356 353 353 350 347 347 349 348 350 356 352 355 358 358 357 358 357 356 357 356 356 354 353 353 353 353 353 354 353 351 351 353 352
366 358 358 357 358 361 360 358 358 355 354 351 348 348 347 345 347 350 348 352 354 353 355 357 359 358 358 357 355 357 358 358 358 355 356 357 357 357 354 353 352 352 352
363 361 358 356 357 363 361 358 358 356 351 349 347 345 347 347 346 348 348 347 352 356 356 355 361 361 358 358 358 358 358 360 359 358 359 358 358 357 357 357 356 355 355
364 362 359 356 357 357 356 355 354 349 347 346 344 345 346 345 346 347 348 349 347 345 356 357 356 361 361 357 358 357 358 357 358 358 359 359 358 358 359 358 358 358 357
362 361 357 357 360 355 359 353 350 350 344 343 341 342 346 345 346 344 348 352 351 350 346 357 354 354 357 357 359 359 359 358 357 357 358 359 358 357 357 358 358 358 358
362 363 360 358 358 358 352 353 351 348 346 343 339 339 346 348 347 346 344 343 344 349 351 356 355 354 355 352 357 359 360 358 359 357 357 358 358 358 357 357 357 358 357
363 362 357 358 358 355 354 352 347 345 339 347 338 339 341 345 344 346 342 335 337 339 345 351 352 353 355 354 353 354 354 355 358 359 358 357 357 357 357 357 357 358 358
364 361 361 358 359 351 353 348 347 340 341 345 337 336 330 336 341 341 339 332 332 334 337 343 347 351 351 352 350 349 348 350 351 353 355 357 356 356 355 355 356 357 357
365 365 363 359 357 349 340 348 346 342 335 346 345 336 328 328 332 338 339 334 333 331 334 337 340 341 342 341 344 343 340 341 344 347 350 351 353 354 356 355 355 355 355
364 363 362 358 352 345 348 345 346 343 343 338 341 343 343 340 328 328 333 333 336 332 333 332 335 336 338 335 337 336 337 335 336 337 338 341 344 348 351 353 355 355 355
364 359 362 354 350 345 349 349 346 345 343 338 337 339 341 337 340 329 323 328 333 334 334 335 332 334 336 337 334 334 333 333 333 333 333 334 336 338 343 348 352 354 355
356 360 360 354 350 346 348 346 346 345 344 342 340 340 334 331 331 328 324 327 327 331 334 333 333 331 333 335 330 329 330 333 331 330 330 331 332 334 336 338 343 348 352
348 355 360 353 347 350 347 346 345 344 343 340 342 337 338 336 335 332 329 327 326 330 331 335 335 333 332 333 334 331 337 335 334 333 332 330 330 331 332 333 335 339 345
346 352 357 352 350 348 347 345 340 340 342 340 342 343 337 337 336 334 331 329 326 326 329 334 335 334 333 333 335 334 336 334 332 331 330 331 331 330 330 331 332 332 334
347 353 353 350 347 348 345 344 339 340 340 341 340 341 340 335 334 335 335 334 329 322 322 328 328 335 334 334 337 337 338 336 332 331 330 329 329 330 330 330 332 332 332
355 351 350 346 346 345 344 345 341 342 341 335 334 339 340 336 336 336 335 334 333 329 323 328 328 333 336 335 338 338 338 337 334 332 331 329 329 330 330 330 331 331 331
354 350 350 344 344 343 344 344 343 340 339 339 339 340 341 344 337 334 333 333 331 330 325 327 330 335 337 338 337 339 338 337 335 332 331 329 328 328 328 328 328 328 329
351 349 346 344 344 343 343 343 340 338 338 337 338 340 341 338 342 342 336 339 335 335 330 330 333 331 336 337 337 338 335 334 334 332 329 327 326 325 325 325 325 325 324
346 342 342 344 345 345 343 344 343 341 339 338 339 340 340 340 339 337 337 333 332 332 333 328 328 331 331 331 333 336 337 336 332 332 328 327 326 325 324 323 322 321 318
343 340 343 341 342 344 344 343 342 342 339 337 340 341 341 341 340 339 336 339 337 333 334 328 328 326 328 332 331 326 325 328 327 329 330 327 327 327 327 324 323 322 318
343 336 337 336 339 343 339 343 341 339 339 339 341 342 343 342 337 336 334 338 337 332 328 326 325 325 323 323 327 327 325 326 328 330 327 326 325 328 329 327 328 328 324
342 338 337 337 338 338 331 330 337 339 340 341 341 343 344 340 338 332 330 330 331 332 329 325 324 324 330 330 329 326 325 323 320 329 328 323 328 327 328 327 326 324 322
343 341 340 340 338 341 327 327 331 338 339 342 343 343 339 335 336 339 332 328 327 325 325 331 329 329 330 330 330 328 326 324 322 324 326 323 327 324 327 326 323 322 321
339 341 341 340 339 340 327 325 330 340 343 344 342 338 337 334 334 337 337 334 333 333 335 332 331 330 330 329 327 325 325 324 324 325 329 321 324 321 325 327 322 321 320
341 342 343 342 341 342 320 321 329 339 340 340 337 336 334 334 328 322 330 330 332 332 326 321 319 317 316 316 318 321 320 318 317 319 324 320 320 320 322 322 323 321 319
342 339 340 342 335 343 320 317 325 336 337 334 334 332 323 327 317 316 327 329 327 328 328 326 326 323 321 324 319 323 320 315 316 315 320 318 318 317 311 317 322 323 322

GFSMA_sfc_thetae_003.txt.gz
Theta_e
364 364 360 357 359 362 358 356 356 355 355 354 351 349 347 344 343 342 346 358 355 354 356 359 358 357 358 357 358 357 357 355 353 354 355 353 354 354 354 353 351 352 352
362 359 366 359 358 360 361 354 357 355 355 353 348 348 346 345 346 346 344 351 358 355 354 358 359 358 358 358 357 358 358 357 355 354 354 356 357 355 354 353 352 352 353
362 364 362 358 356 360 361 359 358 356 351 344 345 344 345 345 344 346 345 343 352 358 355 356 360 360 359 359 359 359 360 359 358 358 358 359 359 358 358 357 355 355 355
365 364 358 356 361 358 361 355 352 348 343 342 342 343 343 344 345 345 345 345 343 344 357 359 357 361 357 357 358 357 359 359 360 358 359 357 359 359 358 358 358 358 357
366 363 358 359 363 358 356 353 352 350 341 341 340 340 344 343 343 342 343 345 348 347 345 359 358 357 358 357 358 358 357 358 357 357 358 359 359 359 358 358 359 358 358
364 363 359 360 359 361 353 352 352 345 343 342 338 336 342 345 344 340 340 339 343 346 349 351 355 354 358 356 357 357 357 358 358 358 358 358 358 358 358 358 357 358 357
365 364 359 361 357 357 356 351 346 345 340 343 336 338 341 342 342 341 337 335 336 338 343 347 349 354 356 354 354 355 354 354 355 356 358 357 357 357 358 357 357 358 358
365 362 365 358 358 354 354 350 347 340 339 342 336 334 332 337 339 340 337 333 333 334 338 343 347 350 352 353 352 347 346 349 351 352 352 353 354 356 356 356 356 357 357
364 365 362 362 361 354 338 349 345 342 335 343 345 336 328 330 334 340 340 335 334 332 334 338 340 340 342 344 347 342 339 339 341 342 345 346 348 350 351 354 355 355 356
364 364 364 360 359 347 351 346 344 344 343 338 339 339 341 339 330 328 338 335 334 332 333 332 333 337 337 335 338 336 334 333 333 334 335 335 336 339 343 347 352 353 355
361 358 358 360 355 344 349 348 345 346 345 339 337 335 341 334 336 328 323 329 332 333 334 332 332 331 334 334 333 333 332 332 331 331 331 332 333 334 335 338 342 346 351
357 358 356 360 355 346 347 346 347 346 345 344 340 340 334 330 330 328 325 328 327 331 332 334 333 334 331 332 332 331 331 332 332 330 329 330 331 332 333 334 335 337 341
349 360 359 361 352 351 348 348 348 347 344 342 344 338 344 339 337 332 329 327 327 330 331 336 335 336 333 333 334 333 336 337 335 333 332 330 331 331 330 330 331 333 335
349 358 357 357 354 349 348 349 342 341 347 341 342 347 338 338 338 335 335 336 327 328 330 337 338 337 334 334 337 338 335 338 337 333 331 331 332 331 330 330 330 331 331
350 350 355 356 354 349 349 350 340 346 342 343 344 347 341 336 335 334 334 338 330 322 325 331 327 340 335 336 338 337 338 340 338 333 331 330 330 332 332 332 332 332 332
358 358 354 353 352 352 352 351 346 347 345 339 336 346 346 337 336 335 335 334 331 327 322 328 329 336 338 335 338 338 337 339 336 334 332 331 330 331 331 332 331 331 331
362 358 357 354 350 349 347 348 347 344 346 346 345 342 344 349 337 334 334 333 331 330 325 330 332 337 344 343 340 341 339 341 336 334 333 331 330 329 330 329 329 329 329
362 358 356 352 348 347 346 346 342 341 341 339 339 344 342 338 348 349 336 345 340 340 330 333 335 332 338 343 344 343 336 333 335 332 332 330 328 326 326 326 326 325 325
360 354 354 351 347 346 347 347 346 343 341 340 339 343 342 345 347 340 343 338 336 339 336 329 328 331 332 333 335 341 341 337 333 333 329 328 327 326 325 323 322 321 319
357 352 351 348 347 346 345 344 343 342 343 342 342 343 343 344 344 345 343 345 342 337 335 330 328 328 330 329 333 328 328 330 329 330 332 328 328 330 327 324 323 323 319
354 350 348 346 345 342 342 345 343 343 345 342 341 341 344 345 339 338 342 334 341 335 332 330 328 328 327 327 327 330 327 328 327 330 328 329 330 330 329 328 330 330 324
352 349 343 342 341 338 331 333 341 340 343 343 341 342 343 341 338 333 333 332 331 331 332 329 326 327 330 331 332 331 329 323 319 329 328 326 328 327 330 332 329 326 323
352 348 342 343 341 343 328 328 332 339 339 342 344 342 342 338 337 338 334 329 329 328 327 332 330 331 330 331 333 330 329 325 322 324 326 322 326 326 330 330 324 323 321
351 348 344 346 344 343 326 326 331 338 338 341 342 342 343 342 341 335 337 334 334 338 337 332 333 334 333 332 328 326 326 326 325 325 328 319 324 324 328 330 323 322 320
353 346 343 344 344 344 322 322 330 339 338 342 343 343 343 338 331 325 329 328 333 335 331 327 323 319 317 317 319 321 318 316 315 317 322 320 321 320 322 323 327 323 318
350 343 342 343 338 346 319 318 327 336 333 335 347 344 327 330 320 320 332 331 331 332 331 330 330 324 321 324 318 323 322 317 315 314 318 314 315 316 317 323 324 324 320

GFSMA_sfc_thetae_006.txt.gz
Theta_e
360 353 365 365 366 362 358 361 356 356 359 357 351 350 346 347 345 343 351 361 357 355 357 358 357 348 354 358 357 358 357 354 355 355 356 356 356 356 356 355 355 354 351
368 354 364 358 360 358 364 360 360 359 355 352 354 348 347 348 347 348 345 357 360 358 356 356 359 357 357 357 359 358 357 358 357 355 356 357 357 357 356 357 356 354 354
370 371 366 365 362 360 365 360 361 353 347 347 348 348 347 346 347 346 346 345 355 361 359 359 358 360 359 358 359 360 359 357 358 358 357 357 358 358 357 358 356 354 354
371 372 363 355 350 362 361 355 354 354 346 345 344 347 347 346 346 346 346 343 348 349 359 360 360 359 359 358 357 358 358 361 360 359 359 358 359 359 359 358 357 357 356
367 365 362 357 361 359 360 352 346 351 344 345 341 343 345 346 344 341 343 344 347 349 352 358 360 360 358 356 358 358 357 356 356 357 358 358 358 358 358 358 358 358 358
367 367 363 362 366 365 355 357 352 351 347 344 341 337 344 345 345 341 341 341 342 346 347 352 354 354 356 354 357 356 355 357 357 358 357 357 357 357 357 357 357 357 357
368 368 363 363 357 363 349 351 351 346 345 347 341 339 342 343 344 343 338 336 337 339 344 347 349 353 352 354 354 354 353 352 353 356 357 356 357 357 356 356 356 357 357
369 361 363 360 357 355 355 352 350 344 344 348 339 339 332 339 338 340 337 332 334 336 338 343 346 347 350 351 348 347 346 348 351 351 352 353 354 355 356 355 356 357 357
367 358 362 365 362 358 351 353 349 346 340 349 345 339 332 331 336 341 340 334 336 333 336 340 339 340 339 345 346 339 337 338 340 342 344 345 345 347 350 352 354 355 355
366 366 367 365 363 355 355 352 349 346 347 340 345 343 342 339 331 329 340 334 334 331 333 332 334 337 335 338 339 337 335 334 333 334 334 335 336 337 340 343 348 350 353
365 362 364 363 359 355 356 350 348 347 349 344 341 342 343 340 337 330 326 329 334 334 335 333 332 331 336 333 337 334 335 334 331 330 330 331 331 332 333 335 337 339 342
362 365 361 361 359 354 353 351 351 352 348 348 344 344 340 337 331 334 328 328 329 334 332 334 335 336 334 334 336 337 336 335 335 333 331 330 330 330 330 331 332 334 335
356 359 362 360 355 355 355 353 351 351 348 346 346 343 342 340 339 335 333 328 327 331 333 333 337 338 336 335 335 338 338 337 337 334 333 332 331 331 331 330 330 332 333
356 356 358 360 359 352 352 351 348 346 348 345 343 345 342 342 341 338 333 330 326 328 329 332 336 340 339 336 340 340 335 337 337 335 332 331 332 333 332 331 331 331 330
359 358 357 359 356 353 352 352 344 345 347 348 346 345 342 339 340 340 338 336 328 323 323 330 330 336 333 336 339 338 337 341 339 336 333 331 331 332 333 333 333 333 333
360 355 357 354 355 351 352 351 346 348 345 344 343 343 342 341 342 340 334 337 332 329 323 330 331 335 338 338 339 337 338 341 339 336 332 331 331 332 332 333 333 332 332
357 357 354 354 353 351 351 348 346 344 344 344 344 343 342 346 342 339 341 337 333 333 328 330 333 335 335 335 336 338 340 337 337 334 333 331 330 330 331 331 330 330 331
360 356 356 354 353 347 349 346 343 340 344 342 343 343 341 340 343 341 341 338 338 337 332 329 333 333 334 337 337 336 336 334 332 334 334 332 330 329 328 327 327 326 325
360 358 355 353 349 346 347 345 344 343 343 342 341 341 341 341 341 342 340 339 337 336 333 330 328 332 331 331 330 332 331 336 337 336 331 329 328 327 326 324 323 321 319
360 359 355 353 349 346 345 344 344 344 343 342 345 344 344 341 341 341 339 339 339 336 332 328 328 328 330 331 332 327 326 331 331 331 333 329 330 329 327 324 324 323 319
363 362 355 352 348 344 343 344 344 343 343 343 340 344 343 344 340 340 339 337 338 334 329 326 323 324 325 327 325 327 325 326 326 328 328 327 326 326 327 327 329 330 324
362 359 351 348 344 341 335 336 343 342 343 342 338 343 345 339 337 333 333 333 337 333 328 324 323 322 324 327 328 326 325 322 319 327 325 321 325 323 323 324 326 326 324
359 354 349 344 340 343 328 330 336 342 340 342 339 342 339 338 338 339 333 330 330 329 329 327 324 325 326 328 327 325 324 322 319 322 322 317 321 321 324 325 325 325 323
354 353 348 342 340 342 327 327 332 336 339 342 340 341 335 339 341 340 337 337 332 332 332 331 329 328 330 332 329 325 322 320 321 321 322 315 318 316 320 322 321 320 320
352 350 347 342 342 343 323 323 327 334 336 336 340 340 339 342 335 325 333 330 330 333 332 325 328 325 321 318 320 322 317 315 314 316 320 315 316 312 312 313 315 321 319
352 352 345 345 337 345 321 319 326 335 335 337 340 340 328 333 325 321 330 331 330 331 332 331 329 324 320 322 319 320 319 315 315 314 318 312 310 308 304 313 320 322 321

GFSMA_sfc_thetae_009.txt.gz
Theta_e
346 348 348 348 350 350 350 347 352 351 348 350 346 342 337 337 336 339 349 358 357 357 359 359 356 348 357 358 358 357 356 355 356 356 354 354 355 355 355 354 354 355 352
351 349 349 348 352 352 355 352 349 348 346 345 346 339 337 341 339 339 343 351 358 356 357 360 358 352 351 359 358 358 358 357 355 354 356 354 357 356 357 355 353 353 354
351 353 351 348 351 351 352 348 349 343 340 342 337 336 339 337 338 336 337 339 352 359 356 359 360 357 355 358 358 358 359 360 358 357 357 357 357 357 357 356 357 355 355
356 353 350 349 347 353 350 347 345 344 341 337 332 338 336 337 336 339 342 335 346 349 357 358 359 360 358 358 357 358 360 359 358 358 358 357 356 358 359 358 358 356 356
357 351 351 348 348 349 347 343 341 344 333 331 332 334 335 333 336 335 335 339 338 344 350 355 357 356 355 355 356 357 356 359 359 359 359 358 357 357 357 357 357 358 358
354 353 351 349 351 348 343 343 342 337 333 333 337 330 333 332 335 331 332 334 333 347 348 350 347 350 357 357 357 356 356 357 357 357 357 357 357 357 357 357 357 357 356
356 353 352 350 350 350 343 345 338 332 333 336 328 331 334 334 336 332 326 325 330 335 339 343 344 347 352 354 354 355 352 351 353 355 355 356 357 356 355 356 356 356 357
355 353 352 350 349 349 342 338 334 330 333 333 325 326 325 332 333 331 324 325 326 330 332 338 338 344 346 345 344 347 346 347 350 352 353 352 351 351 353 353 353 353 355
357 353 353 350 347 343 341 337 334 331 327 335 332 327 323 321 329 333 327 325 324 324 327 332 332 331 340 341 339 336 337 339 339 341 342 342 342 343 345 349 351 352 353
356 352 352 353 348 342 340 336 337 332 333 328 335 333 329 327 322 321 329 327 325 324 322 324 329 329 329 336 339 336 337 337 334 333 333 333 334 334 336 338 343 345 347
355 356 354 352 345 337 339 339 335 331 336 331 330 332 331 328 324 321 319 322 328 326 324 322 323 325 326 329 326 332 338 335 334 331 330 330 331 332 332 333 335 336 337
352 354 354 350 345 341 338 336 336 334 335 334 331 331 328 326 322 323 318 319 321 326 328 326 324 324 327 326 335 336 339 336 333 333 332 330 330 330 330 330 331 332 333
349 351 352 348 343 341 340 338 335 335 334 332 328 329 331 327 326 324 320 318 317 322 325 329 328 327 327 325 329 337 339 335 334 332 331 332 332 331 331 331 331 331 331
351 350 351 349 344 341 342 341 337 336 336 333 332 330 330 330 329 326 324 322 316 319 320 321 328 331 328 327 330 341 331 336 336 335 332 332 333 334 334 334 333 333 332
350 350 351 349 346 341 341 339 336 333 336 334 330 331 330 329 330 330 330 325 319 313 315 320 319 328 329 330 331 331 327 335 336 336 333 331 332 333 334 335 334 334 334
350 348 351 352 348 342 340 338 334 337 334 334 333 332 331 330 330 331 329 326 325 322 316 321 323 325 331 332 334 333 330 339 337 336 333 331 331 332 333 334 334 333 333
349 349 349 350 347 343 342 339 334 334 336 330 332 330 332 332 330 329 331 328 327 326 319 322 323 327 325 326 329 330 333 333 332 334 333 332 330 330 331 332 332 332 332
350 350 350 347 347 344 342 341 336 336 333 333 332 330 329 332 331 330 333 331 329 327 323 320 325 325 326 326 327 329 333 335 330 334 334 332 329 328 328 328 328 328 327
352 348 346 346 345 344 342 341 337 334 335 334 334 334 333 331 330 331 334 333 331 330 326 323 322 326 328 327 326 325 326 326 331 335 331 329 328 328 327 325 325 323 320
352 348 347 347 346 344 341 340 338 334 335 335 334 336 334 332 332 332 332 331 331 330 327 326 322 323 325 327 327 323 320 323 324 330 332 330 329 330 328 325 324 324 319
354 352 347 347 345 342 341 338 338 335 335 334 334 337 336 338 338 334 333 332 332 330 327 323 319 318 320 319 322 321 321 321 322 323 323 322 320 319 321 324 328 330 325
354 353 349 347 343 342 335 335 338 337 335 334 335 337 334 339 337 333 333 334 334 329 322 320 319 318 318 322 321 320 319 317 315 322 317 317 317 317 317 318 324 324 322
356 354 349 346 342 339 330 332 336 336 335 335 337 336 335 337 335 333 330 330 329 330 328 324 320 318 318 321 321 318 316 316 314 318 313 313 314 314 319 320 321 322 320
355 351 347 343 340 338 326 327 331 336 335 335 337 336 333 331 334 330 331 328 330 328 327 327 324 325 323 325 323 321 318 314 314 315 316 310 313 311 312 312 317 318 316
351 349 345 339 337 337 324 321 326 331 333 333 334 334 331 331 330 325 328 326 325 325 328 325 325 325 322 320 321 316 313 309 308 309 312 310 311 305 305 305 305 314 315
347 347 343 338 333 337 322 321 324 331 329 329 330 333 328 329 325 322 325 322 321 323 319 320 320 320 318 317 319 315 316 312 308 307 312 305 303 302 300 302 307 311 315

GFSMA_sfc_thetae_012.txt.gz
Theta_e
344 343 345 347 345 348 346 347 350 349 348 347 345 340 335 337 338 345 346 358 357 361 359 356 350 353 357 357 357 357 357 354 353 353 354 354 353 353 353 352 351 351 352
345 345 344 346 347 348 350 349 347 346 341 340 340 343 337 339 336 338 345 349 357 359 361 358 356 351 355 359 358 357 356 355 356 356 355 355 355 355 352 353 353 353 352
347 347 347 345 348 348 349 345 343 341 338 340 333 334 335 335 337 335 337 345 349 358 359 358 358 354 352 357 359 358 357 358 358 356 356 355 354 355 353 354 354 354 354
350 349 348 348 347 347 347 345 343 341 342 332 329 331 332 334 336 337 338 340 345 348 356 359 361 358 355 355 356 358 359 357 356 357 357 356 353 354 355 356 355 356 355
354 350 348 347 345 349 344 341 340 340 333 328 331 330 331 331 332 335 334 338 338 344 347 354 355 356 355 353 355 356 357 357 358 358 357 356 356 355 356 356 356 357 356
354 348 349 347 346 345 342 340 338 335 330 331 335 329 330 331 330 329 329 334 342 347 348 348 345 348 356 353 354 355 355 354 356 356 355 356 356 355 355 356 356 356 356
352 349 348 349 347 345 341 340 336 329 329 333 325 328 331 331 328 326 323 329 334 339 341 341 344 347 352 354 355 353 352 351 352 354 356 354 354 354 353 352 353 354 355
351 350 348 347 347 346 341 336 332 327 330 330 323 324 322 330 332 324 322 327 327 333 336 339 342 343 344 342 344 348 348 348 350 351 350 350 351 349 350 352 352 353 354
353 351 350 348 346 344 339 335 332 329 325 330 328 325 321 319 326 330 321 323 322 325 328 331 332 337 342 339 339 338 340 342 342 342 342 342 342 342 343 345 348 349 350
353 351 350 347 344 341 337 335 334 330 328 325 331 331 327 326 320 321 327 322 321 321 321 323 328 329 339 337 337 335 337 338 337 334 333 333 333 334 335 336 339 342 343
354 351 350 348 342 339 337 334 332 329 332 326 328 328 327 325 320 320 317 320 324 321 321 320 326 326 330 334 332 332 339 336 336 334 331 330 330 331 331 331 332 333 335
352 352 351 350 341 336 337 334 332 329 333 333 329 328 326 322 321 320 316 317 318 322 324 323 321 321 325 326 333 334 340 336 334 335 335 332 331 330 330 330 330 330 331
347 350 350 348 341 337 336 333 333 331 331 330 326 328 328 324 323 321 317 315 315 319 322 326 324 323 325 324 330 339 341 336 334 333 332 334 335 334 332 332 332 332 332
351 350 351 347 340 338 336 334 332 332 332 330 331 328 327 328 325 322 319 317 313 316 317 318 324 326 326 323 327 343 330 336 335 333 332 332 333 334 336 336 337 336 334
350 349 350 345 341 339 338 336 332 331 334 330 328 327 328 326 328 327 326 321 316 311 312 318 317 324 328 329 330 331 330 332 336 334 333 331 332 333 335 335 336 336 336
349 349 348 346 342 338 339 337 333 331 332 332 330 327 328 327 326 328 325 324 321 318 313 318 320 322 325 329 332 333 329 335 335 334 333 332 332 332 333 334 334 334 334
346 348 347 346 343 339 338 335 333 333 330 330 332 330 329 328 326 326 326 325 323 322 317 319 322 323 325 323 325 326 330 330 330 333 333 332 330 331 332 332 332 332 333
347 347 347 348 346 342 337 337 332 333 332 329 328 328 327 331 331 327 328 327 326 324 321 319 321 324 324 326 326 326 329 332 330 333 331 330 329 329 328 328 328 328 327
346 347 346 347 346 343 339 338 335 333 331 332 331 328 328 330 327 326 328 326 327 328 326 322 321 324 324 324 324 324 324 324 327 334 331 329 328 327 326 325 323 322 319
347 346 346 346 347 345 341 340 337 334 333 332 332 332 331 331 331 330 329 330 330 327 328 326 325 323 321 322 322 321 320 320 321 327 330 328 329 328 326 324 325 324 319
349 347 344 345 344 344 343 339 338 335 333 332 332 332 332 335 335 332 332 328 327 328 328 325 322 319 317 317 317 318 318 318 319 321 319 319 318 316 317 321 325 328 325
352 347 344 343 343 345 336 335 338 336 335 332 330 331 333 338 335 334 332 331 331 329 326 323 318 316 317 316 317 317 316 314 312 319 315 314 313 313 315 315 322 323 321
350 349 345 344 343 343 331 331 335 337 334 333 331 331 333 336 334 334 330 329 328 329 329 324 319 318 317 317 318 316 315 315 313 317 312 309 312 311 315 317 321 320 319
351 350 347 346 344 343 328 327 332 337 335 333 333 333 335 334 332 330 329 329 327 327 329 328 324 324 321 322 320 320 318 315 312 313 313 308 311 311 312 311 316 317 316
353 352 349 345 344 343 323 323 329 335 335 332 332 334 335 333 326 324 329 324 324 325 325 322 322 322 321 320 321 317 314 309 308 308 310 309 309 306 304 304 305 312 312
354 349 346 344 337 339 319 319 325 330 330 330 332 333 326 328 322 320 327 323 322 323 321 317 317 317 319 318 318 316 313 309 306 306 310 308 303 301 299 299 301 305 306

GFSMA_sfc_thetae_015.txt.gz
Theta_e
344 342 340 345 344 346 345 347 348 349 348 344 341 337 333 341 343 344 344 357 356 358 358 354 356 357 357 356 356 355 354 355 354 354 352 353 351 350 350 351 350 350 350
344 342 340 344 345 345 347 348 345 345 340 339 341 341 335 337 339 342 343 345 357 357 359 355 355 352 356 357 356 356 356 353 353 353 354 354 355 352 351 352 352 352 352
344 343 342 344 346 347 347 345 344 339 337 336 330 332 334 334 337 336 339 343 347 356 356 357 356 352 351 357 356 356 357 357 356 356 355 355 354 354 354 352 353 353 352
346 345 346 344 346 345 346 343 342 339 338 332 328 330 331 333 333 336 335 338 342 346 351 354 356 355 354 353 355 357 356 356 356 356 357 354 354 354 355 354 353 353 354
350 348 347 346 345 345 342 341 338 337 328 327 330 330 329 330 331 333 333 336 339 344 344 351 356 356 354 354 353 354 356 357 356 354 354 355 355 356 356 356 356 356 355
352 349 347 346 344 344 341 338 336 334 328 328 334 327 329 329 328 328 330 339 341 347 346 346 343 347 354 355 353 352 352 352 352 354 356 357 356 356 355 355 355 355 355
353 348 347 345 344 343 340 338 335 329 326 330 322 326 329 329 325 323 327 332 338 340 340 342 343 346 348 354 354 352 350 349 352 352 351 351 354 354 353 354 353 354 354
351 348 346 346 345 343 339 337 331 327 327 329 322 322 320 327 327 321 324 329 331 335 336 340 340 342 341 341 344 350 348 349 350 350 349 351 351 350 350 350 351 352 352
349 349 347 346 345 343 339 334 331 326 324 329 326 324 319 318 322 328 320 322 324 326 329 332 339 341 339 337 338 337 340 345 343 344 343 343 341 341 342 343 345 345 345
350 350 349 347 345 343 338 334 332 327 326 324 329 328 325 325 319 316 323 321 320 320 323 326 328 331 339 336 337 335 339 340 338 333 334 333 333 333 334 335 336 339 339
350 351 348 346 342 339 338 334 331 329 328 325 327 325 324 323 320 320 314 317 321 321 319 319 326 325 334 336 332 331 339 337 337 335 330 329 330 330 331 331 332 332 333
350 350 349 347 343 338 336 334 332 328 331 328 328 327 325 320 319 317 315 316 316 319 322 321 320 323 324 331 338 337 340 337 334 335 335 333 331 331 330 330 330 331 331
345 348 347 346 342 337 336 333 330 327 331 329 327 327 325 322 322 319 316 314 314 316 320 323 323 321 321 323 328 340 340 339 335 333 332 334 336 336 333 332 332 333 335
348 350 349 348 344 336 335 332 330 329 330 329 325 325 327 325 322 321 317 316 313 313 316 318 321 324 322 322 325 336 334 338 336 333 333 333 333 335 337 337 338 338 337
349 349 350 348 344 338 335 332 330 330 331 328 328 328 326 325 327 324 322 318 314 310 311 316 318 321 325 325 327 327 332 332 335 333 332 331 332 333 335 336 336 336 337
348 347 349 347 343 338 335 333 330 329 331 329 327 325 325 324 324 324 324 323 317 315 313 317 319 320 323 326 329 330 328 335 334 333 333 332 332 333 334 335 335 335 335
347 347 348 347 343 338 337 335 332 330 329 329 330 327 325 326 324 325 324 323 321 318 315 320 320 321 323 324 324 325 326 326 327 332 332 331 331 331 332 333 333 333 333
347 347 347 346 343 340 337 335 334 334 329 327 329 328 327 329 326 326 324 324 322 321 319 317 321 324 324 326 324 324 326 329 328 332 330 329 328 327 328 328 328 328 327
345 346 346 345 343 341 337 336 334 334 333 330 328 327 327 326 324 325 325 325 324 325 322 320 322 322 323 324 324 322 322 323 326 332 329 328 327 327 325 324 322 321 318
346 345 345 346 346 343 340 337 336 334 333 332 332 329 327 327 326 325 324 325 325 323 324 322 323 321 321 324 321 319 319 319 320 325 328 327 327 326 325 322 322 323 319
348 346 344 345 346 345 342 339 338 335 334 332 332 331 330 331 333 330 328 326 326 323 323 323 323 321 320 319 316 317 316 317 318 319 319 318 317 314 314 319 321 324 321
348 345 344 343 342 345 336 335 339 337 335 333 331 331 331 335 334 332 331 331 329 324 324 320 321 319 318 316 316 316 314 313 313 317 315 316 313 312 313 314 321 322 321
349 345 343 343 342 343 332 331 335 338 335 334 334 333 331 334 333 333 330 329 328 328 327 323 320 321 319 321 317 314 313 314 313 316 314 311 310 311 313 316 320 320 319
350 345 344 342 343 343 326 327 333 338 336 336 335 333 329 329 331 332 330 328 325 326 327 326 323 325 324 321 319 318 316 314 312 313 312 308 309 309 312 312 317 318 317
349 348 346 344 344 343 324 324 328 337 336 336 336 331 331 330 328 324 328 325 324 326 325 322 321 320 319 319 320 320 317 313 308 308 309 308 308 307 305 305 306 313 312
352 350 348 347 340 344 320 320 328 338 336 332 327 329 327 332 320 319 329 324 321 323 323 319 318 314 314 314 318 316 314 310 305 305 309 307 304 301 298 299 298 301 301

GFSMA_sfc_thetae_018.txt.gz
Theta_e
348 346 345 348 348 350 350 350 350 352 349 347 345 340 340 348 349 349 349 353 356 355 354 354 354 356 356 356 355 355 355 353 354 353 353 352 350 350 349 349 350 350 348
348 347 345 346 348 349 351 351 350 348 344 342 345 344 340 341 347 347 348 349 353 355 355 353 354 354 355 355 355 355 355 354 355 354 352 354 353 351 350 351 351 351 351
349 347 345 346 349 351 352 351 348 345 341 338 337 338 340 339 340 344 345 348 349 353 354 354 353 353 352 355 355 356 356 357 354 353 356 354 354 354 353 352 351 352 352
350 348 347 348 350 350 351 348 347 345 340 336 333 336 338 339 338 341 341 341 345 349 353 355 357 352 352 352 354 355 355 356 356 356 356 356 355 354 354 354 353 353 352
352 349 349 350 351 349 348 347 344 342 335 334 336 335 335 335 338 337 339 343 344 349 350 353 354 354 351 353 353 353 355 356 356 356 355 355 355 355 355 356 356 356 355
352 349 349 350 348 348 345 343 342 338 335 334 333 333 334 334 334 334 341 345 348 349 349 351 351 351 354 350 351 349 350 352 352 353 355 356 355 355 355 355 354 354 354
353 351 350 350 347 347 346 344 340 337 333 335 331 333 336 334 330 329 336 342 345 344 346 348 349 351 352 353 351 351 350 349 349 350 352 353 352 352 353 350 351 352 353
353 352 350 349 348 347 344 343 339 333 332 333 329 328 329 334 333 327 332 336 338 341 341 345 347 347 347 348 350 350 349 349 350 350 350 350 350 350 348 349 350 351 351
353 353 350 350 349 348 345 342 338 334 331 334 332 330 325 326 327 332 328 328 331 335 336 340 345 346 344 344 341 339 340 344 344 344 343 343 342 341 342 342 343 344 343
351 352 351 350 349 348 345 342 337 334 333 332 334 332 331 331 327 326 328 328 328 327 332 335 335 338 345 342 340 336 338 338 338 333 333 333 333 333 334 335 336 339 339
351 351 351 350 349 347 346 342 336 334 333 332 333 330 329 327 327 325 320 324 328 328 328 328 331 333 340 343 340 336 339 338 338 335 330 329 329 330 331 331 332 332 333
350 352 352 350 349 346 345 342 338 336 335 333 334 333 331 328 325 325 324 323 324 327 329 329 328 331 333 337 340 340 339 339 335 335 335 334 332 331 331 330 330 330 331
348 350 351 349 347 345 343 341 337 335 336 334 334 333 332 330 328 326 325 322 323 325 328 330 331 330 329 332 335 341 342 339 337 334 333 334 336 336 334 335 334 334 335
349 352 351 351 349 345 343 340 337 334 335 336 334 333 333 330 328 327 325 324 321 322 324 330 328 331 332 330 331 334 339 337 337 334 332 333 333 335 337 338 339 338 337
350 351 351 350 349 345 342 339 336 335 335 335 334 332 332 332 330 328 327 326 325 319 320 326 326 330 333 332 332 334 336 336 335 336 332 331 332 334 335 336 337 337 337
351 350 351 351 349 345 341 339 336 336 335 333 333 333 332 331 331 332 331 329 325 325 322 324 327 330 331 333 334 338 335 334 335 333 332 332 332 333 334 335 335 336 336
349 350 350 350 348 345 341 338 337 336 335 335 334 332 332 332 330 330 330 330 327 325 323 327 327 330 332 334 334 334 334 335 334 331 332 331 330 331 332 333 333 333 334
349 350 350 350 348 345 342 340 337 337 334 333 334 333 332 331 332 331 330 331 329 329 330 328 329 330 331 333 334 334 333 333 334 332 330 329 328 328 327 328 327 327 326
348 349 349 349 348 345 342 341 340 338 336 335 334 334 334 333 332 332 332 331 331 331 330 329 328 330 330 331 332 332 331 332 331 332 329 328 327 326 325 323 321 320 318
348 348 348 349 348 346 344 342 340 339 338 337 335 334 333 333 332 331 331 332 332 332 330 330 329 331 330 330 329 327 327 328 328 330 331 328 328 327 324 321 321 322 319
349 348 348 348 349 347 345 342 341 339 338 337 335 335 334 333 333 332 331 332 332 330 330 330 329 329 327 326 326 326 325 325 326 328 329 329 328 327 326 322 323 324 321
350 348 347 347 347 347 337 334 340 340 339 337 335 335 337 336 334 330 330 330 333 332 331 330 329 328 329 326 326 325 323 322 322 327 326 326 325 326 326 323 322 322 321
349 347 347 347 347 348 331 331 335 343 341 339 338 336 335 337 335 336 330 329 329 328 330 334 330 328 327 327 326 323 321 324 324 327 325 323 325 323 325 323 320 320 319
348 347 347 347 346 346 329 328 333 344 341 339 338 338 337 337 336 336 337 335 334 333 333 334 334 333 332 331 330 328 326 324 322 324 323 318 322 319 322 322 318 318 317
348 348 348 346 345 346 326 323 330 343 339 337 339 338 337 337 327 325 335 334 333 332 324 323 324 322 320 320 326 325 321 318 318 319 319 318 319 317 317 315 316 313 312
350 351 348 347 340 346 321 320 330 341 337 336 338 338 327 332 320 320 336 334 328 327 330 327 324 320 319 318 319 325 322 318 317 315 318 315 315 312 306 311 310 312 313

GFSMA_sfc_thetae_024.txt.gz
Theta_e
365 365 363 361 361 360 358 359 357 353 356 356 355 347 342 344 345 346 348 353 352 350 350 353 355 356 355 355 355 354 350 349 353 352 352 352 352 351 350 348 348 350 348
365 363 362 361 362 362 359 360 358 359 351 353 350 348 344 344 345 347 346 351 352 350 350 354 353 357 356 355 355 355 355 353 353 354 353 354 353 350 349 349 351 351 351
364 367 362 360 361 366 360 361 359 357 351 346 347 347 346 344 343 345 350 348 351 353 351 352 353 354 354 355 356 355 354 355 355 355 355 354 354 353 354 352 350 351 352
366 366 365 358 363 364 360 358 356 352 354 351 346 346 345 343 345 345 344 348 350 349 351 352 352 353 353 352 354 355 355 355 356 355 355 355 355 355 355 354 354 354 354
365 364 365 359 364 361 361 357 358 354 349 347 345 345 346 342 343 343 346 348 347 349 349 351 351 351 352 351 352 353 354 354 355 354 355 357 356 356 356 356 355 355 355
364 365 362 361 359 362 361 360 359 355 349 341 338 341 343 343 343 344 344 343 347 348 350 353 353 350 350 350 350 349 350 352 354 355 355 355 355 356 357 356 355 355 354
367 368 363 361 359 359 361 358 356 353 346 346 340 339 342 343 342 343 343 340 341 344 348 349 350 353 351 353 352 351 351 350 349 350 350 350 352 354 353 352 352 352 352
369 367 372 364 361 363 361 359 359 350 349 343 341 341 333 336 339 342 344 341 340 338 340 345 349 352 353 350 348 347 350 351 352 351 350 350 350 350 349 348 347 348 348
367 369 367 366 366 361 365 361 359 354 346 343 346 339 332 331 335 339 342 342 343 340 341 343 343 347 348 341 342 338 341 344 342 342 342 341 342 342 342 341 341 341 342
365 366 368 367 368 361 363 365 358 357 355 342 342 343 346 344 334 330 339 340 340 339 342 341 341 343 344 341 339 337 336 338 335 333 333 332 333 334 334 335 335 336 336
367 364 367 367 366 366 364 364 361 360 354 347 338 341 343 341 343 335 331 334 339 339 340 341 342 341 344 344 342 338 335 332 332 332 330 329 330 330 330 330 331 331 331
361 365 366 365 366 366 365 364 364 361 358 352 342 343 339 336 335 335 332 336 334 337 339 340 341 340 341 342 342 343 340 340 336 333 333 332 332 332 333 333 332 333 333
355 365 366 367 364 368 366 366 365 362 360 354 353 340 342 342 341 338 334 336 332 337 337 340 340 340 340 342 344 344 347 343 341 339 336 336 336 336 336 336 337 337 338
357 363 364 365 366 366 367 367 362 360 360 356 353 349 340 343 343 341 336 334 331 332 335 339 340 340 340 342 344 345 341 342 342 339 338 338 336 337 339 340 340 341 341
359 362 363 365 365 365 367 367 361 362 360 358 354 351 344 341 344 342 340 338 333 328 329 337 333 342 341 341 345 344 343 343 341 338 336 335 336 337 337 338 339 339 340
367 363 364 364 364 365 366 367 362 363 361 356 352 351 350 342 344 343 340 338 336 333 329 335 335 340 341 340 342 343 344 343 339 336 336 334 334 335 335 336 337 337 338
370 367 367 364 363 364 365 366 366 362 361 359 355 351 351 351 341 341 341 339 337 336 331 334 337 343 346 346 343 343 345 345 342 337 335 333 332 333 334 335 335 334 334
370 369 367 365 363 362 366 365 363 360 360 358 356 353 351 346 348 350 342 347 344 344 336 338 341 338 345 347 348 347 344 341 341 337 336 333 332 332 332 332 331 330 329
371 365 368 369 367 364 365 365 365 363 361 360 358 355 353 349 347 344 344 341 341 340 342 336 335 340 340 342 344 347 346 346 342 338 332 332 331 331 329 328 327 325 320
371 370 371 371 368 366 364 363 363 363 363 361 361 358 355 351 348 347 344 345 344 339 342 337 335 335 338 343 340 336 338 342 339 338 338 332 336 333 330 328 326 324 320
370 371 370 371 370 365 360 366 366 362 364 363 362 360 358 352 342 344 343 348 350 341 336 336 334 334 334 335 337 336 334 335 339 340 337 336 336 337 335 328 331 329 326
370 370 369 369 369 362 344 341 357 364 365 365 363 362 360 347 344 335 334 337 346 346 345 335 335 336 341 340 339 336 334 332 329 340 337 335 336 334 336 336 327 325 323
370 369 369 369 369 369 336 335 341 362 365 364 366 363 358 354 347 350 335 332 333 333 337 346 343 342 342 344 346 344 338 336 333 336 340 332 335 331 333 331 326 323 322
367 367 368 369 369 368 335 330 337 361 365 365 363 362 361 360 354 351 351 342 343 344 343 341 344 346 350 347 347 344 342 340 339 338 340 328 330 326 329 329 323 320 319
367 367 368 369 368 368 332 327 335 358 358 365 364 363 363 361 343 331 351 348 347 345 333 329 331 328 329 330 334 339 334 331 329 329 335 328 325 323 325 324 323 318 313
366 362 365 368 357 368 334 324 335 354 356 355 364 367 335 354 328 324 348 350 347 346 344 345 343 333 329 332 324 339 335 330 327 322 330 325 320 320 316 320 319 318 317

GFSMA_sfc_thetae_027.txt.gz
Theta_e
361 361 360 361 361 357 354 354 358 355 355 352 351 345 343 342 344 347 349 358 355 352 354 354 357 354 355 355 355 352 348 352 353 351 352 352 351 351 349 347 347 349 349
361 361 360 358 358 359 357 356 357 357 351 351 347 344 344 344 343 347 348 351 358 354 352 355 356 358 356 356 356 355 354 348 351 354 353 354 352 350 349 347 348 350 350
364 366 362 358 359 363 362 360 358 350 350 345 344 345 348 343 343 343 347 348 351 356 354 356 355 357 357 356 357 356 355 355 356 355 354 353 354 353 353 352 351 350 350
365 366 362 359 359 361 357 356 360 347 349 344 342 343 341 342 343 342 343 348 348 348 354 355 354 355 354 355 356 356 356 356 355 355 356 355 355 354 354 354 354 354 353
365 365 359 363 363 359 357 355 353 352 344 341 341 341 343 340 348 342 342 346 346 348 348 355 356 354 354 351 352 353 355 355 356 356 355 355 355 355 355 356 355 355 355
365 365 362 362 361 354 358 357 358 350 346 339 337 340 341 340 344 343 342 343 344 346 350 352 351 351 353 352 350 350 350 352 354 355 355 355 355 354 354 353 354 354 355
365 368 361 362 361 363 359 357 354 352 342 345 339 339 340 342 342 341 341 339 340 343 344 349 352 351 350 354 352 351 350 350 349 350 349 349 351 352 353 353 351 352 354
367 368 367 362 363 359 360 359 358 352 342 342 342 338 334 335 337 339 340 339 339 338 339 344 349 353 351 352 350 350 352 353 353 352 351 350 351 351 350 349 347 348 349
366 369 365 363 364 365 364 361 358 356 345 340 349 340 332 334 334 340 341 340 342 338 341 342 344 346 347 342 341 340 344 345 343 343 342 341 341 342 342 341 341 342 342
364 366 368 364 370 361 365 363 358 359 356 343 340 342 348 346 338 336 341 339 341 340 341 341 341 343 344 341 339 341 340 341 338 334 334 334 334 335 336 336 335 336 336
367 363 369 370 369 362 369 364 363 362 355 350 339 339 344 338 342 339 332 340 340 339 341 340 341 342 344 343 342 337 340 338 337 334 332 332 332 332 331 331 331 331 331
362 369 366 372 370 369 367 364 366 364 360 357 346 345 341 338 337 336 334 338 336 341 339 340 341 340 342 342 344 343 343 340 338 335 332 332 331 332 333 333 333 333 335
353 365 371 372 365 372 368 372 371 367 362 357 358 342 343 342 342 339 336 335 334 337 337 339 340 341 340 342 343 346 346 343 341 338 337 337 337 337 337 337 338 339 339
355 369 371 370 370 369 368 372 364 362 366 358 357 356 343 343 344 342 338 335 332 333 336 341 340 340 342 342 345 348 342 343 342 341 339 339 338 338 340 341 341 341 341
357 369 370 370 370 370 372 372 361 366 366 363 360 358 348 342 344 343 342 339 335 330 334 339 334 348 341 342 345 344 344 343 343 340 337 337 337 338 339 340 340 340 340
372 371 368 368 369 370 372 373 365 368 368 361 356 362 357 343 345 344 341 340 338 334 329 337 338 344 345 340 343 342 343 342 342 339 337 336 336 336 336 337 337 338 338
375 370 373 370 369 369 371 372 369 368 367 366 364 363 359 360 342 341 342 340 338 337 332 335 339 349 353 347 345 345 344 348 342 336 336 336 334 334 335 335 336 336 335
374 376 373 372 371 369 371 370 368 362 367 363 361 362 357 350 357 357 343 355 345 350 336 348 347 342 348 353 353 355 345 341 345 337 338 335 333 332 333 334 334 333 331
374 372 373 374 372 369 370 371 370 368 367 366 364 363 359 358 357 345 347 345 342 344 345 338 337 340 342 344 349 352 353 350 344 338 334 333 332 332 331 330 328 327 322
373 373 373 373 373 371 369 369 369 369 368 367 367 366 363 360 357 356 352 352 351 344 343 339 336 335 338 348 343 340 342 344 341 340 340 336 335 332 331 328 328 326 322
373 374 373 373 374 372 366 369 368 368 369 367 367 367 366 360 349 351 348 351 350 345 336 336 336 336 334 339 341 340 337 342 342 343 343 343 340 335 335 330 333 331 327
373 373 373 371 371 369 348 342 360 366 369 369 367 368 369 352 347 338 337 339 347 351 345 336 335 336 349 345 341 338 338 336 335 343 340 338 342 341 339 338 331 333 328
374 373 372 372 371 372 340 336 341 366 367 368 369 368 365 359 353 355 337 335 333 336 340 351 346 346 350 352 352 345 348 341 336 343 347 334 338 334 334 327 326 327 323
371 372 372 373 372 371 340 331 336 362 366 368 368 368 368 364 361 358 355 349 348 347 348 344 350 352 353 355 352 350 350 347 342 340 346 330 335 330 331 331 326 324 321
371 370 372 372 371 371 335 329 334 359 361 364 368 369 368 367 347 336 357 355 350 347 335 331 333 332 331 334 342 347 337 334 331 333 343 332 330 326 326 326 326 321 319
371 369 370 372 360 371 339 327 333 359 359 359 364 368 340 359 332 328 355 356 351 348 347 342 337 332 333 334 327 348 339 334 332 330 335 327 326 323 318 325 324 322 321

GFSMA_sfc_thetae_030.txt.gz
Theta_e
362 364 364 352 352 351 350 352 358 357 357 348 352 349 342 344 347 347 350 360 359 358 356 357 356 356 356 355 352 348 352 353 352 352 352 352 351 350 349 347 347 349 349
365 369 365 354 359 353 350 352 349 349 350 349 354 348 343 344 346 350 348 354 359 358 359 357 357 356 355 355 355 354 350 349 352 353 352 353 353 350 350 347 347 349 350
370 360 363 360 363 366 364 361 356 351 345 347 347 349 343 347 344 344 346 346 353 358 358 360 359 360 356 355 356 355 355 355 354 355 353 353 355 355 353 353 352 350 351
373 371 359 355 352 362 359 358 357 349 349 346 346 343 345 343 343 345 347 349 348 347 356 360 358 359 356 355 354 355 355 357 357 356 356 356 355 355 356 356 355 355 355
369 370 367 362 364 353 360 358 358 358 346 345 344 344 346 342 339 341 344 348 349 347 347 358 358 358 354 354 354 353 355 358 357 357 356 355 354 356 356 355 355 356 356
369 372 366 368 362 353 362 361 361 355 351 344 338 343 343 343 346 345 343 345 350 349 347 349 353 351 356 355 353 351 352 353 355 355 355 356 356 356 355 355 355 355 355
370 373 369 354 365 358 363 361 359 356 348 348 344 343 344 343 343 344 339 340 343 344 346 349 350 348 351 356 355 354 351 350 350 351 351 351 353 353 353 353 352 351 353
367 368 368 364 364 362 363 364 362 354 348 346 346 338 334 338 339 340 343 338 341 340 341 350 349 350 350 351 352 354 354 354 353 352 351 351 351 352 351 350 349 348 349
367 368 367 368 364 364 360 363 362 359 350 346 353 347 333 330 338 341 340 341 341 341 340 344 347 350 351 339 343 344 348 349 348 346 344 344 346 346 345 344 343 343 343
367 368 367 367 369 365 360 361 365 362 358 345 345 346 350 347 336 331 341 341 343 339 342 342 342 342 346 342 343 342 343 342 343 340 336 336 341 341 339 339 340 340 340
365 365 367 368 369 367 363 362 366 363 363 353 345 344 346 346 345 339 334 338 341 343 343 342 341 342 345 339 335 338 341 340 339 340 340 339 338 335 333 332 332 335 333
363 367 369 367 369 365 366 364 366 367 363 361 355 353 344 340 340 339 336 336 336 341 343 342 340 343 345 343 340 342 341 339 339 339 339 339 339 337 335 334 334 335 337
359 362 367 367 364 366 368 364 366 367 364 361 359 352 351 350 349 346 341 337 336 339 340 343 343 344 343 345 339 340 343 339 338 337 336 337 339 341 341 340 339 339 340
356 365 363 366 366 366 366 369 364 363 364 361 362 356 351 350 350 347 343 341 334 334 341 339 344 345 345 345 340 345 339 340 339 337 336 336 337 338 340 341 342 343 343
361 367 364 364 364 366 366 366 362 363 365 362 359 360 354 349 351 349 348 344 339 333 333 341 338 343 347 343 344 341 341 341 340 339 337 336 337 338 339 339 339 339 339
363 372 365 365 365 365 368 366 364 365 362 363 358 357 354 346 347 350 348 346 344 338 332 338 341 341 342 345 344 345 344 342 341 340 338 336 336 337 337 337 337 338 338
371 363 370 366 365 364 365 366 363 361 363 360 360 359 353 351 348 348 347 347 344 342 334 338 345 347 345 342 341 343 344 342 339 336 336 336 334 335 335 335 335 336 336
364 370 367 366 365 364 365 363 363 359 361 360 359 359 354 351 352 353 352 345 344 345 340 339 343 344 344 346 348 348 344 340 343 339 335 335 334 333 333 333 333 334 332
369 365 369 367 364 364 363 365 363 362 359 362 361 358 356 353 350 346 348 349 346 348 349 340 340 346 345 347 345 347 348 346 346 339 332 332 332 332 330 329 329 327 325
364 366 366 366 367 365 365 364 364 363 362 361 363 361 359 354 352 350 347 344 348 342 343 343 339 338 344 344 344 339 341 344 342 342 337 335 333 332 330 327 327 326 322
366 365 366 366 366 367 365 363 363 363 363 361 361 363 361 357 349 350 347 348 342 347 342 337 336 338 338 340 338 340 339 339 342 342 337 335 334 332 331 330 332 331 327
366 367 366 365 365 365 350 344 357 362 363 362 360 361 363 353 349 341 340 341 345 341 339 336 335 334 336 340 342 338 337 335 331 344 339 337 340 338 332 334 333 332 328
367 366 366 367 364 365 342 339 343 361 361 362 362 362 361 360 352 352 339 337 336 337 339 341 336 338 341 344 343 343 341 339 335 340 337 332 337 335 334 328 327 327 328
367 366 366 367 366 366 340 333 338 359 361 361 362 362 361 360 359 355 350 344 344 342 340 343 344 343 348 351 350 347 343 342 341 340 340 328 335 333 332 325 324 325 322
367 367 367 367 367 366 335 330 333 355 357 359 361 363 363 361 349 336 352 346 344 344 335 332 333 336 334 333 344 343 339 335 332 333 338 333 333 331 326 326 323 322 319
367 368 367 368 357 367 340 327 332 358 355 355 358 361 340 356 337 327 352 351 345 344 344 340 338 332 332 335 332 344 339 333 331 330 335 332 330 325 318 324 324 316 315

GFSMA_sfc_thetae_033.txt.gz
Theta_e
347 350 354 349 349 349 339 340 349 344 347 345 342 339 345 345 345 346 349 359 360 360 358 357 357 356 354 351 352 353 353 353 353 353 353 352 351 353 350 347 347 349 349
349 352 351 347 346 347 343 345 345 339 341 344 343 340 337 344 344 344 349 353 359 360 359 359 357 356 355 356 354 350 349 353 353 352 352 354 354 353 351 348 347 349 350
352 350 348 351 351 349 347 350 346 342 340 343 342 339 335 341 344 343 347 350 353 358 361 360 361 359 357 356 356 355 354 352 351 353 353 352 354 353 353 352 352 351 351
355 351 352 350 348 354 354 349 347 346 343 344 336 339 337 334 341 342 344 344 347 347 357 360 359 360 357 356 356 356 355 357 356 355 355 355 355 354 354 355 354 355 354
355 355 351 352 352 350 349 349 347 349 341 337 338 336 334 336 335 343 341 343 343 347 349 359 358 358 356 355 355 355 356 357 356 355 356 356 355 355 356 355 354 355 355
357 356 352 351 350 347 348 350 344 339 333 332 337 335 332 336 336 336 344 344 343 344 347 349 350 352 355 356 355 354 354 354 355 356 357 356 356 356 356 355 354 354 354
357 356 355 350 353 347 349 347 343 342 332 336 330 330 330 330 335 336 341 342 343 342 343 345 345 346 348 356 354 355 352 352 354 353 353 351 353 353 352 352 352 350 351
358 357 353 351 352 351 349 347 346 342 336 332 334 332 324 327 331 332 330 333 337 340 344 345 343 344 346 346 349 356 356 354 353 353 352 352 353 353 352 349 348 349 348
359 356 355 353 353 352 350 349 349 344 335 334 338 334 322 320 326 333 331 328 333 332 340 344 345 344 344 343 347 347 352 351 351 349 347 346 347 347 345 344 343 342 342
357 358 356 354 354 350 348 349 352 346 342 329 331 337 337 337 324 322 330 330 333 331 333 339 341 344 335 335 340 342 345 343 344 341 337 337 339 339 337 338 340 340 340
356 360 358 356 354 355 350 348 350 348 349 340 330 330 332 333 333 329 322 329 331 332 333 333 334 337 335 335 332 336 343 340 340 341 342 339 338 336 335 334 334 336 338
354 356 358 357 356 353 352 351 352 351 347 348 341 337 329 328 329 328 328 328 326 330 332 330 334 334 334 330 333 340 342 340 339 338 339 340 342 338 335 335 335 335 336
352 354 357 355 357 354 355 353 352 354 350 347 346 338 338 333 336 331 330 327 327 330 331 332 332 334 338 330 330 341 342 339 337 336 337 337 339 340 341 340 339 339 340
353 354 357 358 355 356 356 353 354 353 353 348 349 342 337 339 337 333 329 329 323 325 328 325 334 332 334 334 335 342 335 337 336 334 334 335 336 337 338 340 341 342 342
350 355 356 359 357 357 355 356 355 352 354 351 348 348 342 338 338 337 334 332 327 321 324 329 329 334 335 337 336 334 331 337 336 335 333 333 335 336 337 338 338 338 339
350 352 356 355 357 358 357 355 355 355 353 353 351 348 346 341 337 337 336 332 331 326 320 331 330 333 337 336 339 333 333 337 338 336 335 334 334 336 337 337 337 337 337
353 352 357 355 356 356 359 355 353 353 354 351 351 349 346 343 336 335 335 335 330 329 322 325 331 332 333 335 335 336 339 337 334 335 335 334 334 334 335 336 335 335 335
353 358 359 357 357 357 357 358 355 356 352 352 352 349 348 348 339 339 340 332 331 332 326 322 333 335 332 331 332 331 336 338 335 336 334 333 332 331 332 332 332 333 333
357 354 358 359 358 358 357 357 357 357 353 354 354 352 350 346 341 341 339 338 333 333 333 328 331 333 334 336 335 336 335 335 337 340 334 332 331 330 329 327 327 326 326
354 360 354 358 359 359 358 358 357 357 356 353 355 355 353 349 346 343 340 337 337 334 334 330 328 329 334 336 334 334 333 338 337 340 336 333 332 332 330 327 326 325 322
356 357 359 356 359 358 359 357 357 357 356 355 353 356 356 353 347 345 344 338 335 336 333 332 329 328 327 332 335 333 331 334 336 336 330 328 328 328 329 330 330 331 324
354 357 357 357 358 360 347 342 354 357 357 356 355 354 357 351 347 339 339 339 340 333 336 332 331 330 331 329 334 335 334 330 327 335 333 331 329 327 328 328 330 329 325
359 356 355 358 356 359 340 337 342 358 357 356 356 356 355 358 349 352 338 337 337 335 334 337 332 331 330 333 334 333 334 331 327 330 331 328 332 329 332 332 328 326 324
358 359 358 357 359 359 337 333 337 356 357 357 358 357 356 355 355 353 351 344 344 341 339 336 337 335 335 335 337 337 335 333 333 333 331 323 330 328 327 323 325 325 322
359 359 360 360 359 360 332 330 333 351 355 356 357 358 358 357 346 334 352 348 344 344 334 329 331 331 331 333 339 340 334 330 326 329 332 327 328 328 323 320 321 323 320
360 361 360 362 352 361 336 326 331 355 354 355 356 356 338 350 336 328 349 351 346 344 343 341 335 330 331 333 332 340 337 331 327 326 332 327 328 325 316 320 318 318 316

GFSMA_sfc_thetae_036.txt.gz
Theta_e
346 348 350 349 348 347 344 337 347 345 343 341 340 348 344 342 343 347 349 360 361 360 357 357 355 352 351 353 353 353 353 353 354 352 352 351 350 351 348 347 347 348 349
347 350 349 347 348 347 342 340 344 337 336 339 341 345 341 341 343 346 348 352 360 360 359 356 357 356 355 352 350 352 353 353 351 351 351 352 352 352 351 348 346 348 350
348 348 347 345 345 345 344 344 344 340 341 340 339 337 339 340 341 344 347 347 353 360 360 359 358 357 355 356 356 352 349 350 351 352 353 352 353 352 351 351 351 351 350
352 350 347 348 349 347 347 345 344 343 342 342 335 337 336 340 340 342 344 346 347 347 358 360 359 359 357 356 356 355 355 354 354 354 354 354 354 353 353 353 353 354 353
354 351 349 348 346 346 345 345 343 344 338 340 339 333 334 334 340 341 340 342 343 345 350 357 357 355 355 355 355 355 356 355 355 355 354 355 355 354 354 353 353 353 353
354 352 348 350 348 343 346 346 340 335 328 330 335 332 330 334 338 337 340 342 342 344 346 348 348 349 356 355 353 354 355 356 356 355 355 355 355 355 354 353 352 351 351
353 352 351 349 347 344 346 343 340 337 328 332 328 326 326 331 333 334 340 339 340 342 344 345 345 347 348 355 354 354 351 352 352 353 353 355 353 352 352 349 350 349 349
354 353 351 348 349 346 344 343 343 338 331 331 331 325 320 323 329 331 335 339 338 340 341 344 343 342 345 344 346 355 355 352 352 352 351 351 351 352 350 349 348 346 346
355 354 351 350 350 349 346 345 344 339 328 332 334 328 320 317 322 329 327 331 335 335 339 341 341 342 343 342 349 350 353 352 351 349 348 347 347 347 345 343 342 342 342
355 354 353 352 350 349 347 347 348 343 335 326 330 337 333 330 319 319 327 327 330 331 336 341 342 342 341 339 343 344 350 348 348 343 339 338 338 338 336 336 338 340 340
354 354 352 351 350 349 345 346 348 345 341 335 325 329 329 330 330 324 320 323 329 328 332 339 341 340 336 333 333 337 345 342 342 342 341 339 337 336 334 333 333 334 334
351 353 354 351 350 351 349 345 345 347 344 340 333 330 328 326 326 326 323 324 323 326 330 331 332 338 333 331 335 338 343 340 339 339 340 341 342 339 336 336 336 335 336
345 350 354 352 351 351 350 348 347 348 344 345 340 335 330 328 330 327 326 326 325 326 327 328 331 332 336 330 332 339 344 339 338 337 336 337 339 341 342 340 339 340 340
348 350 354 354 353 353 351 349 348 348 349 345 344 338 335 336 335 331 326 326 320 322 325 325 330 330 333 330 330 343 335 337 337 334 334 335 337 338 339 340 341 342 341
352 351 352 355 354 354 351 351 348 348 351 347 344 345 337 335 335 335 330 329 324 320 320 326 326 331 332 333 332 335 329 336 336 335 332 332 333 335 337 337 338 338 338
348 352 352 355 354 353 353 352 351 349 349 349 347 343 342 340 336 334 333 328 327 323 319 326 328 330 332 337 335 334 329 335 336 334 332 331 332 333 335 336 337 337 337
347 348 352 352 355 354 353 351 351 353 349 350 349 346 343 342 339 334 333 332 328 325 321 322 328 330 331 331 332 333 330 329 329 334 333 332 331 332 334 335 334 335 335
350 347 352 352 353 354 355 352 350 352 353 349 350 348 346 346 340 335 332 331 330 327 323 320 322 331 329 331 331 333 332 334 333 334 332 331 330 330 330 330 330 330 329
348 351 354 352 352 353 354 355 353 352 351 352 351 350 349 346 344 341 333 334 331 329 327 322 322 330 328 330 327 329 329 332 334 337 332 330 330 329 328 326 326 324 322
345 349 352 355 354 354 354 354 355 354 353 352 352 352 351 349 347 344 339 335 334 331 328 327 324 328 328 331 330 328 328 332 331 336 337 334 333 332 330 326 325 324 320
353 348 350 352 357 356 356 355 354 353 354 353 352 354 353 352 347 345 345 340 334 333 329 329 325 324 326 329 330 329 328 330 334 334 333 330 329 328 330 330 331 330 324
350 353 352 354 352 357 345 341 352 355 354 353 352 352 353 349 346 339 338 339 340 336 333 332 331 328 329 328 330 332 331 325 326 333 334 333 328 326 329 329 330 328 324
353 349 350 353 353 354 337 337 341 355 354 354 353 353 353 354 348 352 338 335 336 333 336 335 333 332 331 332 331 330 333 331 331 331 334 332 330 330 332 330 327 325 323
356 354 351 351 354 354 334 332 336 353 355 355 355 354 353 354 353 351 352 344 343 344 338 336 336 336 336 336 334 333 334 334 331 330 333 328 328 331 330 330 326 325 322
355 355 357 355 352 353 330 329 332 349 353 355 356 356 356 355 343 333 351 350 347 345 340 330 331 329 327 326 330 333 331 329 329 330 331 330 325 326 325 325 325 324 321
356 357 356 357 349 356 330 326 331 353 352 353 356 357 338 348 334 328 346 351 349 350 347 347 339 333 327 329 326 335 335 330 329 325 330 328 324 324 319 321 321 324 321

GFSMA_sfc_thetae_039.txt.gz
Theta_e
345 347 347 344 345 345 343 336 344 342 340 339 340 346 346 342 343 348 349 359 360 358 356 353 351 353 354 354 353 353 354 353 352 351 350 351 349 349 347 346 347 348 349
343 344 346 345 345 345 343 339 342 334 335 338 339 344 340 341 343 347 348 351 361 359 356 357 354 351 351 352 353 353 352 351 350 350 351 351 350 351 350 349 347 348 350
346 348 346 344 344 344 341 343 344 342 335 338 338 338 339 340 341 344 346 347 352 358 356 356 357 356 355 353 350 349 349 352 351 351 352 351 352 352 351 351 352 352 352
347 345 345 344 345 344 344 343 342 342 338 338 335 333 337 338 339 342 345 346 347 349 356 357 356 357 355 355 355 355 353 350 349 351 353 353 352 353 352 352 352 352 352
351 347 346 346 347 344 345 344 343 343 338 337 339 331 333 336 338 341 341 343 343 344 349 355 357 357 355 354 354 354 354 354 354 354 354 354 354 353 353 353 352 351 350
352 348 347 345 346 343 342 342 337 334 327 331 334 329 330 333 336 336 337 340 340 342 346 347 347 349 354 354 354 354 354 354 355 355 354 354 353 352 352 352 351 350 350
352 348 346 347 345 342 344 341 338 330 328 329 325 323 326 328 333 334 337 337 339 341 343 344 344 345 346 355 355 353 350 351 352 352 353 353 351 350 350 348 349 349 349
351 350 348 347 347 343 344 342 339 335 327 330 325 320 318 322 327 329 334 337 336 339 341 343 342 342 342 343 344 351 352 351 351 351 351 351 350 350 349 348 347 345 344
351 352 350 347 346 345 343 342 342 333 325 331 332 325 318 316 320 326 327 332 336 335 336 339 341 341 342 340 346 348 353 352 351 349 348 348 348 347 344 341 341 340 340
351 353 350 348 347 348 345 344 345 340 328 328 328 336 329 325 318 317 324 327 332 333 334 337 340 340 341 339 345 346 351 349 350 347 343 341 340 338 336 336 337 339 338
351 353 351 349 347 347 345 346 344 341 336 326 324 329 328 329 325 320 317 322 328 328 329 336 339 339 339 338 335 337 347 346 345 344 342 339 337 336 335 335 334 334 334
348 351 351 348 347 347 345 344 346 344 342 336 327 327 327 326 325 324 321 321 322 325 328 332 336 338 338 334 335 339 345 342 340 340 341 342 342 339 337 336 336 336 337
344 348 350 348 347 348 348 345 343 345 342 343 335 332 328 326 327 326 323 323 322 324 326 327 331 334 339 332 331 341 343 340 339 337 337 339 341 343 344 343 341 341 341
346 348 351 351 349 349 349 347 345 344 345 342 342 335 334 330 331 329 327 325 320 321 323 325 327 330 333 333 333 341 332 338 337 335 334 335 337 339 340 342 343 343 344
346 346 350 352 351 351 349 348 345 345 348 345 341 342 335 333 334 333 327 327 322 318 319 325 324 329 330 332 333 333 332 335 337 335 332 332 333 335 337 338 338 338 338
347 347 347 350 351 351 350 348 346 345 346 346 345 341 341 338 333 333 332 327 325 322 319 323 326 327 329 333 334 333 332 334 336 335 333 331 332 333 334 335 336 336 336
345 347 348 349 350 350 350 349 348 348 345 345 347 344 341 340 338 334 331 330 326 323 320 321 325 327 328 328 332 334 332 328 328 333 333 331 330 330 332 333 334 334 334
345 346 349 349 350 351 350 349 348 351 348 346 346 346 346 345 339 336 332 329 328 326 323 320 321 327 326 329 330 330 333 331 327 330 331 330 329 328 329 329 329 330 329
345 345 347 348 349 351 351 351 350 349 350 351 349 348 348 345 343 340 335 331 329 329 325 321 322 324 329 327 327 328 329 330 330 334 330 329 329 328 327 326 326 324 322
344 347 348 349 350 350 352 352 352 350 349 350 352 351 351 349 347 345 342 338 333 329 326 324 322 324 326 328 327 325 324 327 330 333 335 333 332 332 330 326 326 325 320
347 347 347 350 351 351 352 351 352 352 350 349 350 351 352 351 346 346 347 344 336 334 331 329 328 322 325 326 326 326 327 329 328 331 331 332 332 332 332 330 332 331 324
351 349 345 347 350 353 342 340 348 351 352 351 350 350 351 348 346 339 338 340 343 340 337 333 334 330 329 328 331 329 327 322 323 332 331 331 334 332 333 330 331 328 325
347 349 350 348 347 348 336 336 340 353 351 351 350 351 351 353 347 351 340 336 335 334 339 344 336 337 333 333 331 328 328 328 327 328 332 329 331 332 334 332 327 326 324
348 347 347 348 349 351 335 331 336 351 353 353 353 352 351 351 351 349 350 348 345 346 342 340 345 347 343 341 334 331 331 332 332 333 331 327 329 330 333 332 326 326 323
352 352 351 348 347 349 329 328 332 348 351 352 354 354 354 353 342 332 349 349 349 348 340 331 332 332 331 327 332 334 329 328 327 330 332 331 329 329 327 330 330 325 321
353 354 354 355 345 350 330 325 329 349 349 351 353 354 336 347 333 328 346 350 348 350 352 349 345 335 331 336 324 334 338 331 329 330 334 329 331 327 323 324 328 326 324

GFSMA_sfc_thetae_042.txt.gz
Theta_e
348 350 350 347 349 349 345 342 349 343 344 344 343 350 349 347 347 351 354 356 356 355 351 351 355 354 354 353 353 354 352 352 351 349 348 350 349 350 348 348 347 349 350
346 348 349 350 348 348 347 345 347 340 341 344 348 348 347 346 348 351 353 356 356 355 356 353 351 350 352 352 351 351 351 351 351 351 351 351 350 351 350 350 350 350 351
347 349 348 349 348 350 346 349 349 346 343 343 345 345 344 345 347 349 351 353 356 355 354 355 355 353 352 351 350 350 351 352 351 351 352 352 352 352 352 352 352 351 351
349 349 348 348 350 350 350 350 347 345 343 340 341 341 343 343 344 347 350 351 352 353 355 354 355 356 355 354 354 352 350 349 349 349 351 351 352 352 352 352 351 350 350
351 350 348 348 351 351 351 350 347 347 344 343 340 337 341 342 342 344 347 349 349 350 354 354 355 355 355 354 354 354 354 354 354 354 354 354 353 352 351 351 350 350 350
353 350 348 348 350 349 349 349 344 337 336 338 335 332 335 338 342 342 343 345 345 348 351 354 353 353 355 354 354 353 354 355 355 354 354 354 353 351 351 351 349 349 349
355 352 350 348 349 346 349 347 343 337 335 335 333 332 332 334 339 341 342 343 344 346 349 351 350 350 350 353 356 353 352 352 352 352 353 354 352 351 350 349 348 348 348
354 352 349 349 347 347 349 347 346 340 334 336 330 328 327 332 333 334 340 342 342 344 346 348 348 349 349 350 350 350 351 350 351 351 350 350 351 350 348 347 346 343 343
353 355 353 351 351 348 347 348 346 339 333 338 337 331 325 325 326 332 335 339 343 342 343 345 347 347 347 349 348 350 353 352 350 349 348 348 348 347 345 342 340 340 339
352 355 354 352 351 351 349 349 348 344 337 337 336 338 335 332 327 327 331 334 335 340 342 342 344 346 346 347 346 347 349 350 350 347 345 343 342 340 336 336 337 339 338
351 355 354 352 351 352 350 351 350 347 340 336 334 337 336 335 331 327 326 330 334 337 339 340 344 346 346 347 346 342 344 347 346 346 342 338 336 335 334 334 334 334 335
349 352 355 352 353 351 351 351 351 349 347 341 335 336 336 336 333 331 328 329 329 335 337 337 340 344 346 346 345 343 342 344 342 341 341 342 342 338 337 336 335 335 336
347 349 352 351 351 351 352 350 349 351 348 348 344 337 335 335 335 334 332 330 330 332 334 336 337 342 344 346 344 344 343 341 340 337 338 339 341 343 345 343 342 341 341
347 351 351 353 353 353 353 352 349 348 351 348 349 344 340 337 336 335 335 333 331 329 331 337 336 337 341 345 344 342 342 338 338 335 334 335 337 339 341 343 344 344 344
348 350 351 353 353 353 353 353 350 350 351 350 348 349 344 341 338 338 336 335 335 328 329 335 335 338 338 340 344 344 343 338 337 336 333 332 333 335 338 339 338 338 338
349 349 350 352 353 354 353 352 351 351 350 351 350 348 348 346 342 339 339 335 333 333 329 333 336 337 338 337 339 343 341 339 336 335 333 331 332 333 335 336 336 336 336
347 348 349 350 352 353 354 352 352 352 350 350 351 350 350 348 346 344 339 338 335 331 330 334 332 338 339 338 339 342 340 341 340 332 333 332 330 331 332 333 333 333 334
347 349 350 350 350 352 353 352 352 353 351 349 350 350 350 350 348 347 343 340 337 335 333 333 335 335 337 339 339 338 339 338 338 334 330 330 329 329 329 329 329 329 329
346 348 349 350 350 351 352 353 353 352 353 352 352 351 350 351 350 349 346 343 339 337 334 331 333 333 335 336 336 335 338 339 339 336 330 328 328 328 327 325 325 323 321
348 348 349 349 351 352 353 353 353 353 352 354 354 353 353 352 351 352 349 347 345 341 337 334 334 333 335 338 335 335 334 334 336 338 336 334 333 331 329 325 325 325 320
347 348 349 349 351 351 352 353 354 353 352 352 353 354 355 353 347 348 352 351 348 345 344 339 337 335 333 334 333 338 333 336 338 338 338 337 338 338 337 331 334 331 325
349 348 348 348 349 350 340 339 349 354 354 353 351 353 354 348 347 339 338 340 348 348 346 343 342 341 342 340 338 336 334 333 331 339 335 334 338 336 338 339 334 330 326
351 350 348 349 349 351 335 334 339 353 353 353 353 353 353 354 348 354 342 335 336 334 339 351 346 345 344 347 345 339 336 335 335 340 336 333 339 335 338 337 329 328 326
348 350 350 350 348 349 332 330 335 351 353 354 354 355 354 354 355 353 354 354 353 351 346 344 348 351 353 354 351 346 343 341 338 339 338 331 338 335 338 339 328 327 325
348 348 349 350 350 350 328 327 331 349 352 353 355 356 355 355 342 332 352 352 353 354 342 332 334 334 331 328 335 348 340 332 330 334 340 334 336 335 335 336 338 326 324
352 352 350 351 343 350 330 325 329 349 348 350 354 356 336 348 333 327 347 352 350 353 354 354 352 338 332 339 328 336 342 339 337 334 342 333 336 335 331 337 339 340 334

GFSMA_sfc_thetae_045.txt.gz
Theta_e
358 359 358 356 358 359 356 357 356 352 353 351 353 355 354 353 351 352 356 354 354 352 351 355 356 355 353 353 354 353 352 352 350 348 349 350 349 350 349 350 349 349 350
361 362 363 357 359 361 360 358 353 351 351 353 354 355 354 354 352 352 353 357 354 353 353 350 350 351 353 352 351 351 352 352 351 351 351 350 350 351 351 350 352 352 351
359 361 361 363 359 359 357 361 357 354 350 351 354 354 354 353 351 351 354 355 356 354 352 352 353 351 350 350 351 351 351 351 350 350 351 353 352 350 351 352 352 351 351
359 364 361 359 359 358 359 358 356 350 347 349 350 351 352 353 351 351 353 354 355 354 355 352 353 354 354 354 353 351 349 349 349 349 350 352 351 352 352 351 351 350 350
359 363 361 360 361 360 359 358 357 357 350 347 346 349 351 351 351 348 353 354 354 355 356 355 353 353 353 352 354 354 354 354 354 355 354 353 353 352 350 350 350 350 350
360 362 361 362 361 363 357 356 351 347 353 350 340 340 349 351 353 350 352 352 353 354 356 358 357 354 352 353 353 353 353 354 353 353 353 353 353 351 350 350 348 349 349
362 363 361 360 360 358 359 357 350 348 344 346 342 341 343 347 349 350 352 352 352 353 354 356 355 355 353 351 353 352 352 352 352 352 352 353 351 350 348 348 348 347 348
363 363 362 360 360 357 360 357 355 344 345 346 341 341 334 338 344 347 349 349 352 354 354 353 355 356 355 354 351 350 351 351 351 351 350 349 350 349 348 347 345 343 342
363 365 363 360 360 364 365 361 355 349 341 347 345 341 332 331 339 343 345 347 351 350 352 353 353 354 354 354 351 349 351 349 350 349 348 348 348 347 346 342 338 338 337
361 363 365 363 364 359 363 358 357 353 348 343 346 347 345 342 334 333 341 344 347 348 350 350 350 351 353 351 349 348 346 349 348 348 346 345 345 343 339 336 336 335 335
361 360 363 363 365 363 364 361 360 358 349 345 345 347 349 345 343 337 334 339 341 343 346 349 348 349 353 353 351 350 345 348 347 346 343 340 338 337 336 336 335 335 335
357 360 362 363 364 362 362 361 364 361 357 352 346 347 346 344 342 339 337 341 339 344 345 347 348 347 350 352 353 350 344 344 345 343 342 343 342 338 338 337 337 337 337
354 359 362 362 361 364 364 363 363 362 359 355 355 345 345 344 346 346 341 340 338 345 344 345 346 348 347 351 352 350 348 342 342 339 339 340 342 345 345 343 342 341 341
352 360 361 362 362 364 363 363 360 359 360 358 358 358 352 349 345 344 341 339 336 341 343 346 348 348 348 350 353 350 349 341 339 337 336 336 338 340 342 344 346 346 346
352 358 361 361 362 362 363 364 359 361 360 361 360 360 357 354 351 348 345 344 340 334 335 344 343 351 349 349 351 353 352 345 339 337 334 333 334 336 338 339 340 340 341
356 357 360 361 361 362 363 363 360 362 362 360 358 359 359 355 355 352 349 347 345 340 336 344 344 348 350 346 349 349 351 346 340 336 335 333 332 334 335 337 337 337 338
357 358 360 361 360 361 362 363 362 361 361 362 362 360 360 362 356 354 353 351 347 344 339 341 345 348 350 351 350 350 349 350 347 336 334 333 331 331 333 334 334 334 335
358 359 360 360 360 360 361 361 360 359 360 360 360 361 359 357 360 360 356 356 352 352 344 346 349 345 349 353 353 352 349 346 347 341 334 331 331 330 329 330 330 330 329
358 356 358 358 359 359 360 361 361 361 360 360 360 361 361 361 359 357 358 356 355 354 352 346 345 347 346 346 348 351 349 351 348 342 333 330 329 329 328 326 326 324 322
358 357 358 359 359 359 360 360 360 361 361 361 362 362 362 362 361 361 360 360 359 356 356 351 348 348 349 354 349 344 343 347 345 345 342 337 336 332 329 326 326 325 321
359 359 358 358 359 358 356 359 360 361 361 361 362 363 363 360 350 353 359 363 361 356 353 350 348 348 347 347 347 348 346 347 351 350 347 347 347 345 342 331 334 331 326
359 359 357 358 357 355 341 339 353 359 362 362 360 362 363 354 352 340 338 340 353 362 356 353 351 351 359 356 355 352 350 348 346 356 351 346 347 345 346 346 338 331 327
358 359 357 357 359 360 336 334 339 357 359 360 362 362 361 359 354 361 345 336 337 335 340 358 358 359 360 361 362 358 359 356 352 355 354 348 351 349 349 347 332 329 328
360 359 358 359 359 360 334 330 334 355 361 363 363 363 364 363 362 359 361 360 361 362 358 353 355 359 364 365 367 362 359 354 352 354 357 343 350 349 353 352 333 328 327
357 358 359 359 359 360 330 328 335 355 356 361 363 363 363 363 346 334 358 358 360 361 347 335 337 336 331 328 335 348 345 345 343 346 357 347 348 349 351 350 351 328 324
356 356 356 359 350 361 333 324 332 353 355 353 362 363 338 351 335 328 356 357 357 359 362 364 365 350 339 345 329 340 346 341 341 342 355 350 346 343 339 349 349 347 347

GFSMA_sfc_thetae_048.txt.gz
Theta_e
358 357 358 360 360 358 357 357 354 354 356 354 354 353 352 350 348 351 354 355 354 351 354 356 356 355 353 353 355 353 353 352 349 348 350 349 349 350 350 350 351 352 351
365 355 356 360 362 361 358 357 354 350 348 350 354 353 352 351 352 352 351 355 354 353 351 350 352 352 353 351 351 352 352 352 351 350 351 350 351 351 351 351 352 352 351
366 360 357 357 360 361 360 357 354 352 347 347 352 353 351 353 351 352 353 353 354 354 353 353 351 349 350 349 350 351 351 351 351 350 350 351 352 351 351 352 352 351 351
364 365 357 356 361 357 355 351 348 349 350 344 347 348 349 350 351 352 352 353 351 354 355 353 353 353 353 353 353 351 350 350 349 350 350 353 353 352 351 351 350 351 350
364 364 360 363 362 360 359 351 350 349 347 342 342 345 347 348 350 348 351 353 351 352 353 355 353 353 353 351 352 354 354 354 353 354 354 353 353 352 350 350 350 350 350
364 364 361 362 360 354 356 355 354 353 350 346 340 343 345 347 351 350 348 348 348 352 352 357 355 352 353 352 353 352 352 353 354 354 354 353 352 351 350 350 348 349 349
365 367 363 358 358 354 355 358 351 353 346 349 342 338 341 347 349 352 352 351 348 350 351 352 352 354 353 354 353 352 350 350 350 351 351 351 351 350 348 348 348 348 347
366 364 363 360 361 358 356 356 357 346 345 347 340 339 333 338 344 348 351 350 350 351 351 351 352 354 351 350 349 349 350 350 350 351 350 349 349 349 349 347 345 342 340
365 367 363 362 359 359 353 357 357 353 342 347 350 343 334 334 339 344 347 346 350 348 352 352 352 351 354 352 350 350 350 348 348 348 348 348 348 348 347 344 339 338 336
365 366 367 363 362 367 360 358 357 352 352 343 345 346 349 346 334 335 342 344 347 346 348 349 349 350 352 350 350 347 346 349 347 347 347 346 346 345 342 338 336 336 336
365 363 366 363 362 358 363 363 363 360 349 348 345 344 348 346 348 338 335 339 343 345 347 348 348 349 351 351 350 352 348 348 348 347 345 342 340 338 337 336 336 336 337
360 365 365 366 363 361 363 361 362 363 358 353 348 349 344 343 342 344 340 342 341 346 348 348 348 348 348 350 354 352 348 345 346 346 346 345 342 339 338 338 338 338 338
352 360 366 367 363 366 365 365 363 363 362 356 359 346 346 345 347 345 343 341 341 347 348 348 348 349 348 350 351 352 350 344 343 342 341 341 343 345 345 344 343 342 342
351 359 364 364 366 366 366 366 365 361 363 360 361 360 349 349 350 346 343 341 337 341 345 349 349 349 351 351 354 352 351 344 341 339 337 337 339 341 344 346 347 347 348
353 357 359 363 363 365 366 367 359 363 363 363 362 363 358 352 353 351 349 346 341 336 338 347 342 353 350 350 353 354 355 346 341 338 335 334 335 337 339 340 342 342 343
361 358 359 359 361 364 365 367 362 364 364 362 358 361 363 354 354 354 352 350 347 343 337 343 345 349 353 351 351 354 353 349 342 339 336 333 333 334 336 337 338 338 338
361 362 360 359 361 363 365 365 365 362 364 364 364 362 363 365 357 353 353 352 350 348 342 343 345 351 357 357 356 357 355 355 351 338 337 335 332 332 333 334 334 335 335
362 362 362 361 360 361 364 365 363 360 362 362 363 363 362 359 363 364 356 361 357 358 347 353 355 348 357 361 358 357 354 351 350 343 336 334 332 331 330 330 330 330 330
362 361 361 362 361 360 363 364 364 363 362 362 363 363 363 364 363 360 360 357 356 357 358 353 352 352 352 354 357 362 359 360 354 346 336 333 331 331 329 328 326 325 323
362 362 363 362 362 360 360 362 363 363 362 362 364 364 364 365 365 366 364 364 363 360 360 354 351 349 348 357 354 351 350 354 353 354 349 341 339 336 331 328 327 326 321
363 363 363 362 362 360 356 360 360 360 362 362 364 365 366 362 352 355 363 370 371 362 355 351 349 349 349 350 354 354 354 355 359 359 357 358 357 356 352 332 336 332 327
364 364 362 362 361 358 341 338 351 357 361 362 362 364 366 357 354 342 340 341 351 364 366 357 353 352 366 361 358 355 354 352 351 364 364 359 362 360 360 359 343 334 328
365 364 363 363 365 365 337 334 339 356 357 360 364 362 360 357 356 364 345 339 340 337 339 357 358 360 364 365 369 367 365 363 360 363 364 356 360 359 361 359 336 331 328
366 364 363 367 367 365 335 331 335 359 360 362 364 364 366 366 363 360 363 361 362 364 362 357 360 361 362 365 369 369 368 364 363 361 363 352 358 357 361 362 339 333 328
364 364 364 367 368 368 331 329 336 358 358 363 363 365 367 367 349 334 361 360 361 362 347 333 336 337 334 332 340 358 352 352 350 357 363 356 358 358 359 359 358 338 327
363 362 362 366 354 366 334 325 336 357 358 355 366 369 340 352 335 327 361 359 358 359 362 365 370 348 338 353 331 352 357 349 350 347 361 353 354 353 345 352 351 350 351

GFSMA_sfc_thetae_051.txt.gz
Theta_e
356 357 356 354 354 357 352 353 351 356 350 349 354 352 347 348 352 351 353 356 354 356 358 357 357 354 353 354 354 352 352 351 349 350 351 350 351 351 352 351 352 352 351
364 357 356 358 360 349 353 355 355 352 352 347 349 348 351 348 351 352 353 355 357 354 351 353 352 353 352 351 351 352 353 352 351 350 350 350 351 350 351 351 352 352 351
362 363 360 356 358 359 357 354 351 354 347 350 346 351 347 353 349 350 352 351 354 357 357 354 351 350 350 350 350 350 350 350 350 349 348 348 351 352 351 352 351 351 351
362 363 356 353 359 360 357 350 347 349 349 347 347 346 349 349 349 350 350 354 355 353 354 356 356 354 353 353 353 352 350 350 350 350 351 352 353 353 352 351 351 351 351
363 359 358 358 361 359 353 353 348 346 349 344 342 346 349 346 350 346 349 350 348 352 355 358 356 355 354 353 353 353 354 355 355 354 353 353 353 353 352 350 350 350 350
363 365 359 359 361 352 353 353 355 349 347 343 338 342 345 346 346 346 345 345 346 348 352 357 354 353 357 353 354 353 353 353 354 354 354 354 353 351 350 350 348 348 349
363 365 357 359 360 356 362 355 351 351 344 347 341 337 340 343 345 344 347 345 345 346 347 348 352 355 352 357 354 353 352 351 351 351 352 351 352 350 350 348 348 347 346
364 360 363 362 356 357 359 357 358 349 342 351 350 337 335 343 342 345 345 344 345 346 347 349 348 350 352 351 357 352 349 349 348 348 349 349 348 349 348 348 346 342 339
364 365 362 365 361 363 353 358 356 360 343 344 352 348 339 332 340 342 345 344 348 346 348 349 349 349 350 351 350 351 350 347 345 346 348 348 348 348 347 346 341 338 336
364 363 364 363 362 358 364 360 358 360 356 345 342 344 355 347 342 337 340 343 346 345 348 347 348 349 351 349 352 352 352 348 346 346 347 346 346 347 346 342 338 337 337
365 363 364 365 365 359 363 362 362 362 350 357 348 342 348 343 351 341 337 339 344 344 346 349 347 348 352 350 350 353 349 349 350 348 347 345 343 342 341 338 337 337 338
359 365 364 365 366 363 364 362 364 363 363 356 351 350 346 343 342 340 338 342 339 344 346 346 348 347 348 350 354 350 350 346 346 347 349 349 347 343 340 340 339 339 340
351 366 370 369 363 366 365 365 366 364 362 357 360 347 346 346 345 344 341 339 339 344 345 347 348 350 348 350 351 354 351 345 343 343 343 344 345 346 346 346 345 343 342
351 371 365 364 366 367 364 369 362 359 365 359 361 364 352 347 348 346 343 341 338 341 345 348 348 349 351 351 353 352 351 344 342 339 339 339 340 342 344 346 346 347 347
352 361 364 364 364 364 368 371 359 363 367 364 364 364 358 351 351 349 348 346 342 337 339 350 342 355 349 349 354 355 358 348 342 340 337 335 336 337 339 341 342 343 344
366 361 362 361 363 366 367 373 364 368 367 361 356 370 368 356 355 353 351 349 347 343 338 343 345 352 354 350 354 355 354 349 343 340 337 335 334 335 336 337 338 338 339
369 368 365 364 363 363 367 371 370 366 363 368 366 364 366 371 356 352 352 351 349 348 342 344 346 356 367 365 362 362 357 360 353 339 337 336 334 333 334 334 334 334 335
367 368 368 367 365 364 368 369 364 361 362 362 363 367 361 359 369 370 359 369 359 362 349 356 355 353 363 366 366 368 356 355 356 347 337 335 333 332 332 331 330 330 329
370 363 368 369 366 364 367 370 369 366 364 364 364 366 365 367 369 362 366 358 355 359 359 354 354 356 356 357 360 367 367 365 360 350 341 334 333 332 331 329 327 325 323
369 369 370 370 367 366 365 365 367 367 367 364 367 367 367 367 370 371 366 371 366 362 359 354 353 354 355 363 358 354 355 358 359 359 353 347 343 336 332 329 328 328 322
370 371 371 370 369 363 358 365 367 367 368 366 367 367 367 364 352 359 363 368 369 363 356 353 351 351 350 352 356 357 355 359 362 361 359 364 364 365 356 334 337 334 327
370 371 370 370 368 359 343 339 356 363 367 367 367 369 370 357 354 343 342 342 353 364 368 357 353 352 361 360 358 356 355 353 353 365 367 364 365 362 365 364 348 334 329
371 371 370 370 369 369 336 334 339 358 363 365 368 369 365 357 359 368 347 341 342 338 341 360 359 360 360 365 368 365 360 362 362 364 365 358 364 361 365 362 343 336 328
369 369 371 371 371 370 337 330 335 361 361 364 368 368 370 368 369 365 368 366 365 367 364 357 361 364 367 370 370 366 369 368 366 363 370 355 361 361 364 365 342 334 331
369 369 371 372 372 371 333 329 336 360 359 364 366 367 367 369 351 336 364 363 365 366 347 333 334 336 335 331 338 356 357 356 354 358 365 360 360 359 359 355 355 337 330
370 366 368 372 360 373 334 326 336 358 359 357 366 369 342 354 338 328 363 365 363 365 365 365 368 356 340 352 332 351 358 353 353 350 367 356 356 355 346 352 352 352 349

GFSMA_sfc_thetae_054.txt.gz
Theta_e
360 363 350 349 358 351 353 349 357 353 353 352 352 348 347 350 351 350 351 360 361 360 357 357 355 353 354 355 353 353 352 350 350 351 351 351 351 352 352 352 353 353 352
363 365 362 351 355 351 355 345 357 355 346 351 349 347 346 353 353 351 352 354 358 359 360 357 354 353 355 353 352 354 353 351 350 348 349 351 352 352 352 353 352 352 352
371 362 365 350 348 358 364 362 358 344 353 349 347 348 354 352 352 352 350 352 355 358 358 357 354 353 351 350 349 349 349 349 349 349 349 349 352 352 352 351 351 352 351
370 363 361 360 359 360 349 343 345 352 345 350 351 346 346 350 351 352 353 352 352 353 358 359 357 355 353 353 353 352 351 350 351 351 352 353 354 354 353 352 351 351 350
361 356 354 364 350 348 352 356 354 351 353 346 341 346 350 346 344 345 350 353 355 352 352 359 359 359 356 355 354 354 354 355 355 355 354 353 353 353 353 352 351 350 350
360 357 357 364 365 348 349 356 348 346 352 345 338 345 346 347 348 349 347 346 350 355 352 352 354 353 358 357 356 354 353 353 355 355 356 356 356 353 352 351 349 348 348
363 352 357 362 359 357 351 364 354 353 349 344 345 342 344 346 345 349 348 344 346 351 353 356 354 355 352 358 357 356 353 351 351 350 350 352 352 351 350 348 348 347 345
368 364 361 363 352 358 364 362 357 356 348 354 347 347 335 342 342 341 349 345 345 347 348 349 354 355 354 350 353 357 354 352 349 349 348 349 348 348 349 349 347 344 342
367 365 366 366 369 364 360 363 362 354 350 347 348 349 333 332 338 345 345 347 347 346 349 348 350 350 349 352 357 354 353 351 350 347 348 348 348 349 349 348 347 344 342
364 368 368 367 366 359 357 364 363 357 347 351 348 352 351 348 335 336 346 347 346 344 347 351 348 350 352 350 356 352 352 350 350 349 348 348 348 349 348 348 345 343 342
371 367 368 371 368 365 366 365 365 363 362 355 347 348 349 349 352 342 334 341 346 348 350 349 349 349 352 351 351 349 351 348 348 349 350 350 349 346 346 345 343 342 341
365 368 366 371 372 367 364 365 368 367 365 361 354 356 339 346 346 344 342 344 343 345 348 350 348 348 352 351 354 354 351 347 346 346 348 349 350 348 344 343 342 340 340
356 364 367 368 366 369 367 368 368 367 366 363 361 357 347 347 343 349 344 344 341 346 348 350 352 352 350 352 354 351 350 345 343 342 343 344 347 347 348 347 347 345 343
357 364 366 365 368 369 368 369 364 363 365 364 364 364 360 357 352 352 348 346 341 345 351 347 352 354 354 353 357 353 349 343 341 339 339 340 341 342 344 345 346 346 346
359 363 365 367 367 367 366 368 363 363 366 366 364 366 363 358 357 354 355 351 347 338 341 349 346 353 351 351 357 351 352 347 341 339 337 336 337 338 339 340 341 342 343
365 364 365 365 366 368 367 368 364 364 366 363 362 363 364 359 360 359 357 357 353 346 340 348 351 355 354 350 357 355 355 351 343 340 337 335 335 336 336 337 337 338 339
371 368 369 367 364 364 368 368 364 364 363 364 366 366 364 364 362 361 360 356 354 354 346 349 355 355 360 360 355 358 360 356 354 339 337 336 334 334 336 335 334 334 335
365 373 367 370 365 365 365 365 363 358 360 362 363 363 364 362 365 364 361 361 362 364 356 350 354 353 354 357 361 362 359 354 354 350 337 335 333 333 333 333 332 331 330
365 363 368 364 365 362 363 365 364 362 362 363 362 363 362 365 364 363 364 358 357 359 357 354 352 359 359 359 356 363 361 358 357 352 343 337 333 332 331 330 329 326 323
362 363 363 365 365 363 362 364 365 363 362 361 365 363 365 364 363 365 363 363 363 361 358 357 353 352 355 357 360 356 356 360 356 359 354 346 342 338 333 329 328 328 322
362 364 363 365 365 363 360 361 362 364 363 362 363 364 365 363 354 358 363 364 363 361 358 356 353 353 351 354 352 355 353 356 355 357 353 365 364 363 355 335 336 335 329
362 363 364 364 364 362 346 341 355 359 364 362 361 362 366 354 352 343 341 343 352 360 357 358 357 353 353 355 356 353 352 350 347 362 363 359 364 361 363 361 344 334 330
361 362 363 365 364 364 339 336 341 358 359 362 364 362 362 361 354 363 345 339 340 338 341 355 352 352 352 355 357 357 356 355 355 362 360 355 362 359 363 363 342 335 331
360 361 363 365 365 365 339 330 336 354 358 361 362 362 362 362 362 363 363 362 359 359 356 350 351 355 359 362 363 361 360 359 359 361 362 351 358 358 362 359 342 335 329
361 361 363 365 364 365 334 331 333 351 354 355 357 359 363 365 349 339 356 356 357 359 348 337 341 340 339 336 341 349 348 349 352 355 361 356 357 355 355 354 354 332 327
361 362 362 365 356 365 336 329 333 355 353 354 358 360 339 350 337 330 355 359 356 357 360 361 362 356 339 346 329 342 351 351 352 351 358 353 354 353 343 348 342 342 340

GFSMA_sfc_thetae_057.txt.gz
Theta_e
350 350 350 348 348 350 349 347 344 342 346 349 349 345 344 346 346 350 352 361 361 359 357 355 355 353 354 354 353 353 351 350 351 352 350 351 351 351 351 352 352 352 352
353 349 346 350 349 346 346 345 348 345 346 348 343 343 346 347 347 347 350 354 361 361 359 357 354 354 356 355 353 353 353 351 350 348 348 350 352 352 353 352 351 351 351
353 353 347 347 344 348 350 349 346 346 345 344 340 343 345 347 347 349 349 348 353 362 361 356 356 356 353 351 350 350 350 349 348 348 350 350 352 354 352 352 351 351 350
352 351 349 349 345 350 344 339 337 343 341 339 340 340 341 345 346 347 348 349 350 349 357 359 357 357 353 352 352 352 352 353 352 353 353 353 353 353 352 352 351 350 349
352 348 348 352 346 348 345 343 341 341 341 338 337 339 340 342 345 348 346 347 347 350 351 358 358 358 355 355 356 355 355 357 357 356 355 353 352 353 352 352 350 348 348
349 343 346 351 346 344 341 344 343 341 343 337 338 339 343 339 339 340 345 350 350 347 347 350 353 354 358 357 357 356 354 355 356 356 357 356 356 355 354 353 351 348 347
354 350 348 350 346 343 338 347 340 339 339 340 330 333 331 338 339 340 340 341 347 348 346 346 348 347 350 358 358 358 354 353 353 352 353 352 353 353 352 351 350 347 346
353 348 348 351 348 347 349 346 346 341 342 337 333 337 328 330 338 335 338 338 339 347 348 350 348 347 344 347 350 358 358 354 351 350 352 352 351 351 351 350 349 348 345
356 357 354 354 349 349 347 346 346 345 336 337 339 335 325 326 330 336 332 336 334 338 340 343 349 348 346 344 350 354 356 350 352 349 349 350 351 350 350 350 349 347 344
356 357 353 353 352 352 350 348 351 346 338 338 334 341 338 336 328 325 336 336 335 339 339 339 342 342 340 345 354 352 352 349 350 351 350 350 350 349 349 349 349 346 344
356 356 355 355 351 349 348 349 350 348 347 343 335 336 333 336 340 334 326 330 335 336 338 338 340 341 341 341 344 347 350 349 348 349 351 352 351 348 347 348 347 345 342
356 358 356 355 353 352 352 350 352 349 347 349 344 344 334 334 337 335 332 331 330 333 338 339 338 342 343 342 349 351 352 348 345 345 347 349 351 350 346 346 346 345 342
351 354 354 356 356 354 352 352 352 351 351 348 348 346 343 339 336 339 334 332 332 334 335 339 340 338 344 344 344 352 352 346 343 341 341 343 346 348 350 350 349 348 346
351 355 355 355 353 356 355 354 351 351 352 349 348 350 347 346 345 339 334 332 329 332 339 332 341 341 341 344 347 352 345 343 341 339 338 339 340 342 344 346 347 347 347
352 353 358 355 357 356 356 355 350 352 352 352 348 347 350 348 347 346 340 336 334 327 328 338 339 343 343 344 348 347 343 344 341 339 336 335 336 338 340 341 341 342 342
348 354 358 356 358 355 354 356 350 353 351 352 353 351 349 349 347 351 344 343 340 334 329 337 338 344 346 346 349 345 344 347 344 339 337 335 335 336 337 338 338 338 339
355 357 358 356 357 356 356 354 351 353 351 352 353 350 351 351 349 350 354 349 342 341 334 337 344 345 345 346 348 347 347 347 347 339 338 336 335 335 335 336 336 336 336
349 356 358 356 355 353 355 354 353 353 351 352 352 351 350 356 351 349 351 349 349 350 344 338 342 343 345 348 348 348 353 356 351 348 340 336 334 332 332 332 333 332 330
347 354 356 355 355 355 353 354 354 354 352 353 353 353 352 350 351 353 350 349 348 349 349 345 343 348 351 351 349 348 353 355 355 350 341 338 336 334 331 328 327 326 324
355 352 357 354 355 353 354 354 356 355 353 353 356 354 355 354 352 352 354 352 352 350 348 347 345 345 346 350 349 348 345 349 349 356 351 344 346 343 335 329 328 327 323
349 354 353 356 356 356 354 353 356 356 355 353 352 355 355 355 352 352 356 354 354 351 350 349 347 346 344 345 344 348 345 344 346 348 347 358 358 359 357 344 339 336 329
354 352 352 354 356 358 345 342 351 355 356 355 354 353 356 352 350 343 343 345 353 353 350 349 347 346 344 345 347 345 344 345 341 352 356 356 357 356 359 359 344 336 330
347 353 355 355 355 357 340 338 342 353 352 355 355 355 354 358 350 355 343 338 338 337 340 349 345 346 346 346 347 346 347 348 348 355 355 351 354 353 357 359 343 332 325
348 349 353 356 356 357 339 334 337 349 352 352 356 356 355 355 352 351 352 353 349 348 346 345 345 349 351 352 352 353 353 353 355 351 354 346 351 351 356 354 336 328 323
352 351 354 355 356 357 334 332 333 340 347 350 353 354 355 355 345 337 349 350 351 354 347 335 337 336 335 334 341 347 348 350 343 348 354 350 350 349 351 346 336 328 323
350 354 352 355 350 357 335 330 332 349 342 345 348 349 337 349 338 333 348 349 345 347 348 350 350 340 333 338 330 340 348 342 343 347 352 349 350 348 335 338 333 332 329

GFSMA_sfc_thetae_060.txt.gz
Theta_e
344 348 348 344 345 346 344 344 341 340 344 345 346 343 345 348 349 351 351 358 359 358 357 355 356 353 353 353 352 352 349 348 350 351 348 350 350 350 351 352 351 351 351
347 345 347 347 345 344 347 344 346 343 342 347 342 342 343 344 348 349 350 354 360 360 357 354 354 353 355 354 352 353 353 351 350 348 348 348 349 352 351 351 351 351 351
350 345 344 345 345 346 345 341 346 343 342 343 340 344 344 343 345 347 349 350 356 359 359 357 354 355 355 353 352 352 351 351 350 349 349 350 351 353 352 352 350 350 350
351 348 344 345 342 345 340 337 340 342 340 340 338 342 343 344 345 346 347 347 348 353 358 359 358 357 353 351 351 352 352 351 351 352 353 353 353 353 352 351 350 349 349
350 347 347 348 345 344 343 339 340 338 337 336 336 336 340 342 344 346 346 346 346 346 347 356 358 357 354 354 354 355 355 356 356 355 355 353 353 352 352 351 349 348 348
347 345 347 346 346 342 338 342 340 337 342 335 339 338 337 338 341 343 343 346 345 347 347 347 351 352 357 357 358 356 355 355 356 354 356 356 354 354 352 351 350 347 347
346 343 347 347 342 338 336 344 339 335 339 337 330 330 332 338 336 337 342 343 345 346 345 346 347 349 349 359 358 358 355 354 353 353 354 353 351 352 352 351 348 347 346
349 346 346 348 345 343 340 344 342 340 336 334 331 331 321 326 333 335 336 341 340 346 346 345 344 345 344 345 349 357 357 355 352 351 352 353 350 350 350 349 349 347 345
351 349 350 349 345 346 343 343 343 341 330 334 334 332 320 320 327 333 332 333 334 341 345 345 346 345 344 342 347 352 356 354 353 350 350 352 351 349 349 350 349 348 346
352 354 352 351 345 347 344 344 349 340 336 333 331 339 333 331 323 322 331 334 332 337 338 338 345 346 345 344 347 350 353 353 351 351 350 352 352 349 349 349 350 349 346
352 353 350 350 349 349 346 345 347 346 343 339 331 333 330 332 333 328 324 329 332 333 335 337 338 340 339 341 343 348 353 351 349 349 352 353 353 350 348 348 349 349 347
351 351 351 351 349 347 346 346 347 343 344 345 340 339 333 332 332 334 327 327 327 330 335 335 335 338 339 339 345 350 350 349 347 346 346 348 351 352 349 349 348 348 348
349 351 351 350 349 349 350 348 348 349 346 345 345 340 340 338 334 335 330 330 329 332 332 336 337 337 341 340 341 351 352 347 345 343 341 343 345 348 350 352 352 351 350
351 354 352 352 352 351 350 349 348 347 349 346 345 346 344 341 343 338 331 328 326 328 333 332 337 338 337 339 344 349 347 345 343 340 338 338 340 342 344 346 347 348 348
349 353 352 352 351 352 351 350 346 346 348 348 346 343 345 345 343 343 338 332 330 324 325 334 337 339 340 340 344 344 345 343 342 340 337 336 336 339 340 341 342 342 343
348 350 353 352 351 351 351 350 347 348 348 347 349 348 344 345 344 347 345 339 336 330 326 333 335 340 345 344 345 345 343 344 342 339 338 336 336 337 338 338 339 339 339
345 348 354 352 352 352 350 351 347 347 348 347 348 347 347 347 345 345 348 347 343 337 331 334 337 343 344 343 344 345 347 343 344 340 339 337 335 335 336 336 336 336 337
348 352 354 352 352 353 351 349 349 350 349 347 348 349 348 353 348 346 346 345 344 344 339 336 337 340 342 348 348 348 352 354 352 348 339 336 334 333 333 332 331 331 330
342 352 353 353 353 353 352 352 351 349 348 348 349 349 348 347 348 349 347 346 346 347 345 342 343 344 347 347 346 346 347 351 354 350 342 338 336 335 334 329 327 324 321
339 345 353 353 353 352 352 353 351 349 349 349 350 350 351 350 347 347 349 349 349 347 345 342 341 342 344 347 346 345 344 344 345 353 349 343 344 344 342 336 332 329 322
342 345 349 352 353 352 352 350 351 350 349 349 350 351 352 352 348 347 351 349 348 347 346 345 343 343 343 344 343 344 342 342 345 348 347 356 355 357 356 347 348 336 327
346 344 350 352 351 354 342 341 349 351 350 349 349 349 350 349 347 341 341 343 349 349 347 346 346 345 345 342 342 342 340 340 340 350 352 353 354 354 355 357 331 326 323
338 346 344 350 352 352 337 336 341 351 352 352 351 351 351 355 348 352 341 337 337 338 342 350 347 344 342 344 343 341 342 342 343 351 354 351 351 351 354 352 326 324 321
339 338 348 347 349 353 336 333 337 350 349 350 353 354 352 352 350 349 350 349 349 347 343 341 343 347 348 349 347 349 346 346 352 357 352 343 349 351 353 338 325 323 320
346 341 345 352 350 350 332 330 333 347 349 348 349 352 353 353 341 334 349 348 348 350 345 331 333 332 331 329 336 346 346 346 346 343 350 349 349 351 347 336 330 322 319
348 349 346 346 345 353 332 328 331 350 346 346 348 349 335 347 333 329 346 348 345 346 345 344 347 339 331 338 330 340 347 344 344 344 349 350 350 342 332 336 330 326 323

GFSMA_sfc_thetae_063.txt.gz
Theta_e
342 344 342 341 342 344 341 342 338 340 342 344 342 342 343 345 347 349 350 357 359 357 355 354 354 353 352 352 351 351 348 348 350 350 348 350 351 351 352 351 351 352 351
344 345 344 343 344 343 344 342 342 340 339 343 342 342 343 345 347 349 349 351 357 357 355 354 354 353 352 352 351 351 351 351 350 349 349 349 349 352 352 352 351 351 350
346 343 343 343 344 342 343 343 343 342 340 342 338 340 341 344 346 348 349 350 352 357 357 354 353 353 355 355 352 352 353 351 349 349 349 350 352 353 352 352 350 350 349
349 344 343 342 341 344 342 338 340 340 339 337 335 340 341 342 343 345 347 348 349 353 355 359 356 355 353 352 351 351 351 352 351 352 354 354 353 352 352 352 350 348 348
350 346 343 344 342 341 337 336 337 338 336 335 335 338 341 341 342 344 344 344 344 347 346 354 359 358 354 353 354 354 355 355 356 355 355 353 353 353 353 351 349 347 347
348 345 345 344 343 338 338 338 336 335 337 334 337 336 336 338 341 341 342 345 344 344 344 344 346 350 356 354 357 357 355 355 355 355 354 355 353 352 353 351 350 348 347
344 343 345 345 342 338 336 340 335 336 337 333 328 329 329 335 335 339 341 341 343 344 345 344 344 347 348 355 359 358 356 354 354 353 355 354 351 350 351 350 349 347 347
344 344 345 345 339 336 338 342 338 338 335 332 327 327 321 323 331 333 335 339 340 344 345 345 344 344 345 343 346 354 357 356 352 351 353 354 353 350 350 349 349 348 347
349 345 345 345 343 341 342 341 341 336 328 331 332 327 318 318 324 330 330 333 336 337 342 344 344 343 342 342 346 348 355 354 355 352 352 353 353 351 349 350 349 348 347
349 348 348 348 344 344 342 342 345 340 331 329 329 335 330 328 322 321 328 331 331 332 337 340 343 344 344 343 347 348 350 351 354 354 351 353 354 353 349 349 351 350 348
349 351 349 349 344 346 344 343 345 342 337 337 327 331 329 330 330 325 322 326 330 331 334 336 338 339 342 343 342 344 350 351 351 353 352 352 354 352 350 350 350 350 349
347 350 348 347 347 345 344 343 345 342 341 341 336 333 329 330 331 330 326 325 325 329 332 334 334 335 337 338 342 349 350 350 349 349 348 349 350 351 350 350 351 353 351
347 348 347 347 345 346 345 345 345 343 343 343 339 336 335 335 332 333 328 328 327 330 331 333 335 334 337 337 338 347 349 348 346 344 343 344 346 347 348 349 350 351 352
349 350 348 349 348 347 348 345 346 344 346 343 343 344 340 340 340 336 329 327 325 326 328 334 336 336 336 336 340 348 344 343 343 341 340 340 341 343 344 345 347 347 349
349 350 349 349 350 349 347 346 345 344 345 345 343 341 342 342 342 340 337 330 327 322 324 330 334 338 340 337 341 340 340 343 342 340 338 337 337 338 340 341 342 342 342
347 349 350 348 349 349 349 347 344 344 343 345 346 344 342 342 342 343 342 336 333 328 325 329 333 336 344 345 346 345 345 345 342 339 338 336 336 337 338 339 339 339 340
346 346 350 349 347 348 349 348 345 345 346 344 344 345 344 344 344 343 344 344 340 334 330 334 335 342 342 341 346 347 349 347 346 341 340 338 336 335 336 337 336 336 336
342 344 347 349 348 349 348 348 347 348 344 344 345 344 345 348 345 344 343 343 341 340 337 334 336 340 342 346 346 347 349 352 351 347 340 337 334 333 332 332 331 329 328
340 346 348 349 348 349 349 348 347 347 347 347 347 345 345 346 345 345 344 344 344 345 341 339 342 342 344 344 346 346 346 347 350 347 341 341 339 337 336 332 328 325 320
338 340 349 350 350 349 350 350 349 347 346 347 347 347 348 347 345 344 345 346 345 344 343 341 339 339 341 345 344 343 345 344 345 350 349 344 342 343 342 335 331 327 320
339 338 343 350 350 351 351 349 350 349 348 346 347 348 349 349 346 344 347 345 345 343 342 341 340 340 341 342 343 342 341 341 342 346 347 351 352 352 353 338 331 327 322
341 338 339 342 349 352 341 339 347 349 348 347 346 346 348 347 345 339 338 340 346 345 342 342 342 342 342 342 341 340 338 337 337 347 351 351 352 350 353 330 327 324 321
339 340 341 343 343 348 336 335 339 349 347 348 348 347 347 352 345 349 341 336 335 335 339 348 345 345 343 342 340 339 339 339 339 348 352 351 350 348 342 327 324 322 319
339 337 338 341 345 347 334 331 335 347 349 348 349 349 348 348 348 348 349 348 347 346 342 341 345 350 349 349 344 345 344 342 345 352 355 344 347 349 335 325 322 321 318
340 339 338 338 341 344 330 329 332 345 347 347 348 349 351 350 340 332 347 345 346 347 341 330 332 332 329 328 333 343 341 340 341 348 349 349 347 350 340 328 322 319 316
343 343 340 338 335 343 327 326 330 348 347 347 349 347 333 344 331 327 343 346 345 347 346 344 342 335 328 335 327 340 345 344 342 342 348 346 347 344 335 334 326 322 318

GFSMA_sfc_thetae_066.txt.gz
Theta_e
347 347 347 345 346 347 347 343 343 345 346 348 346 346 348 349 350 353 355 355 356 354 353 352 352 351 351 352 351 351 349 348 350 349 349 349 349 351 352 352 351 352 351
347 347 347 346 347 347 346 346 345 346 344 347 345 346 347 349 351 352 354 354 355 354 354 352 352 351 352 351 351 351 352 351 350 350 349 350 351 352 353 352 351 351 350
346 346 347 347 348 346 348 348 347 346 345 345 344 345 346 348 349 352 353 354 355 355 355 354 352 352 354 356 353 351 352 351 350 350 351 352 354 353 353 353 351 350 349
349 346 346 348 346 349 347 344 345 345 343 342 342 344 345 346 348 350 351 352 354 355 356 358 358 355 353 353 352 351 352 353 353 354 355 355 353 352 352 352 351 349 348
351 347 347 349 347 346 343 342 342 345 342 341 341 342 345 346 346 346 348 350 350 353 353 354 357 358 354 354 354 354 355 356 357 355 355 353 353 353 354 352 350 349 347
350 348 349 348 347 344 344 344 344 342 343 341 339 340 344 345 347 347 347 347 348 348 348 349 349 350 354 355 355 356 357 356 356 355 356 354 353 351 350 352 350 350 348
349 348 348 347 347 343 343 344 341 343 342 339 339 338 337 338 341 343 347 347 347 349 349 350 350 350 350 353 355 356 357 356 355 355 355 355 353 351 350 350 350 348 348
347 347 348 347 345 341 346 346 345 344 340 338 335 334 327 332 336 339 341 343 345 347 348 350 350 350 351 350 351 353 355 356 356 353 355 354 354 353 351 350 349 348 348
349 349 349 348 346 343 346 348 346 343 337 337 339 335 328 327 330 337 339 338 341 343 345 348 350 350 350 349 349 350 352 352 355 356 355 354 354 354 352 351 350 350 349
351 350 349 350 349 348 348 348 349 345 339 337 337 339 337 335 331 331 336 338 340 338 341 343 346 349 351 350 351 352 352 351 352 354 356 357 354 355 354 353 351 351 350
352 351 352 352 349 349 350 349 351 347 344 342 337 339 337 338 336 333 331 335 339 340 341 343 345 346 347 349 349 349 349 349 350 353 355 357 355 354 352 355 354 353 350
352 352 353 350 349 351 350 349 351 350 349 348 343 340 338 339 338 336 334 334 333 339 340 342 342 344 345 345 346 349 349 348 348 349 350 352 354 353 352 352 354 355 355
350 351 352 349 349 351 351 349 351 349 348 350 347 343 341 343 340 339 335 336 335 339 341 343 344 345 343 346 346 347 349 346 344 343 343 345 348 350 352 353 353 353 353
350 353 353 352 351 352 351 349 350 352 351 349 350 351 346 347 347 344 340 337 336 334 336 344 347 347 348 347 346 348 349 342 342 340 339 340 341 344 346 347 348 348 349
350 353 352 352 352 352 352 352 350 349 351 352 349 349 349 349 348 346 345 339 338 334 335 341 344 349 354 353 352 354 355 346 342 341 338 337 338 339 341 342 342 342 343
351 353 353 352 352 354 351 351 350 350 350 350 351 350 348 348 349 347 350 343 341 338 337 339 343 346 352 353 355 358 357 348 345 341 340 338 337 339 339 340 340 340 340
349 351 353 352 352 352 353 352 351 350 349 349 350 351 351 352 350 350 351 351 348 342 341 346 343 351 354 356 358 359 360 360 359 344 340 337 335 335 337 337 336 335 335
349 351 351 352 352 352 351 352 351 352 349 349 350 349 350 351 351 352 350 351 350 349 346 345 347 351 353 357 356 358 357 358 358 347 339 336 335 335 335 333 330 327 325
344 346 349 350 352 352 352 352 352 352 352 351 351 350 351 351 352 352 352 351 351 351 349 347 350 352 352 353 356 358 358 359 356 348 342 341 339 338 334 329 325 322 318
343 343 347 349 352 352 353 353 352 352 352 352 353 352 353 352 352 353 351 352 353 352 352 350 348 348 350 355 353 352 353 355 353 356 352 345 343 344 333 326 324 321 317
342 343 344 349 352 352 351 353 353 352 351 351 353 353 353 352 346 348 354 354 353 351 351 349 349 349 350 351 352 354 350 350 353 355 356 359 360 361 339 329 329 325 320
343 341 342 345 348 351 341 339 349 352 353 352 351 352 354 348 346 339 337 339 350 354 353 351 351 349 353 352 353 351 349 349 348 357 359 357 361 358 340 336 326 322 320
343 342 341 342 345 348 334 335 338 353 352 352 352 353 351 352 348 354 342 335 336 334 339 355 352 353 354 357 354 352 350 348 349 355 357 355 360 352 337 328 323 320 318
340 341 342 342 342 344 331 331 335 350 352 351 352 352 352 353 353 353 353 354 355 355 350 346 350 355 358 359 356 356 353 352 353 355 359 354 355 353 335 328 322 320 318
340 341 341 342 342 344 327 327 332 347 348 350 352 353 353 353 340 332 353 353 353 354 342 331 333 333 331 329 338 351 348 348 349 352 356 355 360 352 335 327 326 319 316
343 342 342 341 336 343 326 324 329 346 344 346 350 352 334 347 331 326 349 352 350 352 354 355 352 341 332 340 326 344 350 349 351 346 357 355 355 354 342 336 328 327 327

GFSMA_sfc_thetae_069.txt.gz
Theta_e
354 356 355 355 356 354 352 351 354 353 355 354 355 354 353 351 353 353 354 355 355 354 353 353 353 352 351 352 351 352 351 350 350 350 350 351 351 352 354 352 351 351 350
358 356 354 356 357 358 355 354 353 354 354 353 353 354 352 352 354 355 355 355 354 354 355 352 353 352 353 352 351 352 354 353 350 350 351 351 353 354 353 353 351 350 349
360 355 358 356 356 359 358 359 357 356 353 352 352 353 354 353 353 355 356 357 357 355 355 355 353 352 352 355 353 352 351 351 351 352 353 355 355 353 352 352 351 349 348
361 360 358 360 357 359 356 355 355 352 351 351 352 354 355 354 353 355 356 356 357 355 356 355 358 356 354 354 354 353 353 354 355 355 355 355 353 353 353 354 351 350 348
360 359 357 357 358 355 353 353 353 354 351 350 351 353 355 356 356 353 355 356 356 355 356 353 355 357 356 354 354 355 355 356 356 355 354 354 354 353 352 351 352 350 349
360 359 357 358 358 353 352 353 355 353 353 351 346 349 355 356 356 355 355 355 357 355 354 356 357 355 351 354 355 355 356 357 357 356 356 355 354 352 350 350 352 350 350
361 360 362 357 357 354 355 355 352 353 350 352 348 347 349 350 349 350 353 354 353 354 355 356 357 356 356 354 354 355 355 355 356 357 356 356 355 353 351 349 349 349 349
361 359 360 356 357 352 356 355 355 351 351 350 345 345 336 340 346 349 352 350 351 353 353 355 356 358 359 357 357 353 354 355 356 356 358 357 355 355 354 352 351 348 348
356 358 360 358 357 355 354 357 354 353 345 348 349 344 336 333 341 348 349 350 352 352 352 353 354 356 358 357 358 357 355 352 353 355 357 359 357 355 355 353 351 351 350
359 357 359 360 359 354 358 357 358 355 351 345 349 350 350 347 337 337 346 349 352 350 353 352 353 354 357 356 359 357 353 351 353 354 356 358 360 357 356 356 354 352 351
361 359 359 360 360 358 360 360 359 351 353 349 348 349 349 348 350 344 337 342 350 352 352 353 352 353 355 356 355 354 352 351 350 352 354 356 357 358 358 358 357 355 354
366 362 361 362 361 360 360 359 362 360 360 358 355 353 348 346 346 345 343 347 345 349 352 352 354 354 354 354 355 351 351 349 348 348 349 351 353 354 356 357 359 358 358
357 361 363 362 361 361 362 361 361 361 360 357 360 354 353 354 355 352 347 344 343 349 351 354 356 358 355 358 357 350 352 347 345 342 342 344 347 349 351 352 354 354 355
356 363 363 364 362 362 361 361 358 358 359 357 359 361 357 357 358 356 353 345 342 345 349 351 358 356 360 360 358 352 361 347 343 341 340 341 342 343 345 347 349 349 349
356 361 363 363 362 362 362 362 356 359 361 361 358 359 358 358 358 357 358 353 347 339 341 349 350 359 360 363 360 364 367 350 345 343 340 339 339 341 343 343 343 343 344
360 360 361 362 362 362 362 362 360 361 360 357 357 360 359 356 356 358 357 358 356 351 343 352 353 357 363 363 360 366 367 352 351 345 341 338 338 340 342 342 341 340 340
361 360 361 361 362 362 363 362 361 360 359 359 359 359 360 362 355 356 359 358 356 354 347 351 357 360 365 365 364 367 366 366 359 346 341 338 337 338 340 339 336 335 335
360 361 362 362 362 362 362 362 360 358 358 358 358 359 357 357 361 362 358 361 358 360 353 353 358 357 361 366 367 367 363 360 364 350 340 337 337 336 335 332 329 328 327
358 358 361 361 362 361 362 362 362 361 360 359 358 359 359 360 360 358 361 359 358 359 359 356 353 358 359 361 363 364 365 367 361 351 343 340 340 336 331 326 323 321 317
355 356 358 360 362 362 362 362 362 362 361 361 360 360 360 360 361 362 360 361 361 358 359 357 354 354 356 362 361 357 355 358 360 362 353 348 347 333 328 324 323 320 316
354 356 355 356 358 357 356 361 362 361 361 360 361 361 361 358 349 352 357 361 362 359 355 353 352 352 352 352 354 357 355 357 361 364 359 361 365 369 341 330 328 323 320
354 355 353 354 354 352 339 340 353 360 361 360 359 361 362 352 350 339 338 340 350 360 359 354 351 351 356 357 357 356 356 354 348 362 360 359 365 368 358 350 324 322 320
355 353 353 354 355 357 334 335 340 357 359 361 361 361 359 357 354 361 343 336 337 335 340 360 356 355 357 359 362 360 360 358 354 356 360 356 365 364 354 333 323 321 319
353 353 352 355 355 354 332 330 335 356 359 360 361 362 361 361 360 359 360 359 359 360 358 354 358 360 363 365 365 363 363 362 360 359 366 355 361 362 351 343 322 320 319
350 352 352 353 353 354 328 326 334 352 353 360 361 361 362 361 347 334 357 358 359 359 343 336 336 336 335 331 340 359 355 351 347 349 362 361 358 363 352 345 332 320 317
351 350 349 352 344 354 331 323 330 347 349 349 358 362 336 352 334 327 354 357 355 356 357 357 360 347 336 349 327 354 357 351 349 348 360 357 356 363 353 354 341 333 327

GFSMA_sfc_thetae_072.txt.gz
Theta_e
356 355 356 355 355 355 354 356 356 357 357 356 355 354 351 352 351 350 350 355 356 354 354 353 352 352 351 351 351 352 353 352 350 351 351 352 352 354 354 352 351 351 350
358 356 356 355 355 356 356 356 357 355 353 353 354 354 352 353 355 356 354 354 355 354 355 352 352 351 353 355 353 352 352 352 352 353 353 354 356 353 353 352 352 350 349
362 362 357 357 356 359 360 359 358 357 351 352 354 354 353 354 354 355 355 355 355 355 356 355 353 352 352 353 353 353 352 353 354 355 356 355 355 353 353 353 351 350 348
361 360 355 355 358 358 356 355 356 351 350 350 351 351 352 352 354 355 354 356 355 355 355 356 357 357 355 353 354 354 355 355 355 355 354 354 353 353 352 352 352 350 348
359 358 357 356 361 356 355 353 354 354 349 348 347 350 353 351 354 351 355 358 354 356 353 355 355 356 356 355 354 354 355 357 356 355 355 354 353 353 351 349 351 351 350
363 362 356 359 358 353 352 353 355 354 352 350 345 346 352 351 355 355 353 352 354 358 356 358 358 354 355 353 354 355 356 356 357 357 355 355 354 353 352 349 349 351 350
364 365 359 359 359 353 357 359 354 353 346 352 345 343 345 350 349 352 354 353 352 355 356 359 356 354 355 357 356 355 355 356 357 357 358 359 357 356 354 353 350 349 349
363 360 361 358 358 352 358 358 358 347 347 352 342 343 337 341 344 348 352 351 351 354 355 355 358 360 359 357 356 355 356 356 357 358 359 361 359 357 356 355 353 350 350
363 363 364 358 361 356 350 358 356 355 342 351 353 342 336 333 341 345 347 346 352 352 353 353 356 358 361 359 358 360 359 354 354 357 358 360 360 360 357 355 354 352 351
361 361 364 363 363 356 359 357 357 357 354 342 347 350 355 350 339 335 342 345 348 347 350 351 349 352 360 357 362 359 357 354 354 354 356 357 359 361 361 358 356 354 351
362 361 364 364 363 358 361 361 362 361 351 347 346 349 353 352 354 342 334 338 343 346 349 352 353 355 359 360 357 356 353 350 351 352 353 354 355 356 358 360 361 358 357
359 363 362 365 364 362 361 359 363 361 359 356 350 351 348 346 344 345 340 343 342 346 350 352 355 358 359 360 362 353 354 351 350 349 348 349 351 354 356 357 357 359 360
354 361 365 366 360 365 361 361 366 361 363 355 359 351 354 355 355 352 346 344 343 347 350 352 356 359 357 360 361 355 358 350 347 344 344 346 347 349 351 352 353 354 355
356 362 363 361 362 362 361 361 358 356 358 357 358 360 355 358 359 355 350 346 341 343 349 355 358 358 362 362 360 359 361 352 347 344 342 342 344 346 347 348 348 348 347
356 362 361 360 360 363 364 365 358 359 359 360 358 359 356 357 358 358 358 354 346 341 344 352 352 361 360 361 360 364 365 351 350 347 342 340 340 344 346 345 344 343 343
361 361 364 363 361 363 365 366 359 362 361 356 354 360 361 354 356 356 355 356 354 347 342 354 354 358 364 362 362 365 363 357 357 348 342 340 340 342 344 344 341 340 340
361 363 364 364 363 361 364 366 363 360 362 360 359 358 361 363 354 353 355 354 353 352 345 348 356 362 367 367 366 368 363 362 356 347 344 340 340 340 342 339 337 337 336
361 363 367 364 364 363 365 364 360 358 359 358 359 360 358 355 362 362 355 360 357 358 351 353 359 356 362 367 366 368 362 359 362 349 341 341 340 338 334 332 331 329 327
360 360 362 364 364 364 365 365 363 360 361 360 361 360 360 360 359 355 359 355 355 356 357 354 352 355 357 361 362 367 364 365 358 350 342 342 339 333 329 326 324 320 317
359 359 361 362 363 360 363 364 364 362 361 361 363 362 361 360 361 363 361 363 361 358 359 354 352 351 353 360 360 354 351 354 356 358 354 349 345 331 327 324 323 320 316
359 359 359 360 361 361 356 361 364 364 363 362 364 364 363 357 350 353 359 365 367 359 353 350 350 351 351 351 356 352 351 352 359 357 359 356 359 350 337 328 330 323 320
359 359 358 356 356 354 341 340 354 362 363 363 361 364 365 354 352 342 341 341 350 361 359 354 351 351 362 358 355 351 351 348 346 358 357 351 357 363 368 360 329 323 320
359 361 358 358 358 359 335 333 341 356 358 360 362 361 361 358 356 362 343 338 338 336 339 359 358 358 360 361 363 360 363 356 353 356 357 349 355 360 368 337 324 322 320
357 359 360 362 362 360 334 330 335 356 358 361 361 362 364 364 362 361 361 359 360 361 359 356 358 359 363 364 367 366 366 365 360 358 364 350 355 354 369 359 323 322 320
357 356 357 360 362 363 329 328 335 353 353 359 362 365 366 365 348 334 360 359 360 360 343 336 337 336 332 332 341 357 350 347 343 344 353 348 353 355 367 360 346 321 319
357 356 356 358 348 360 333 324 333 350 352 349 358 364 339 354 336 328 361 361 358 358 355 355 359 351 342 353 332 357 356 347 343 341 354 349 352 353 351 364 360 336 330

GFSMA_sfc_thetae_075.txt.gz
Theta_e
358 360 359 353 357 354 353 355 357 358 355 354 351 350 348 348 348 348 347 358 355 354 353 353 352 352 351 352 351 351 354 353 352 352 353 353 356 353 352 353 352 350 349
364 354 355 354 356 359 361 358 355 357 353 351 352 353 354 351 353 355 351 352 357 356 354 352 351 351 352 355 354 352 352 352 353 354 354 356 354 353 352 352 351 349 348
361 360 354 355 355 359 360 358 356 357 352 351 355 353 350 355 351 357 352 354 354 357 356 354 352 351 351 351 353 352 353 353 354 354 353 354 354 353 352 353 352 350 348
362 363 355 357 355 358 354 359 355 354 356 351 355 353 349 350 351 351 350 354 356 355 357 358 358 357 354 353 354 354 354 355 356 354 353 353 352 352 351 350 350 351 349
361 360 356 356 365 365 363 351 356 354 350 350 348 354 351 350 352 348 350 352 351 352 355 359 359 357 357 356 355 354 354 355 357 356 355 354 353 352 351 350 348 351 350
360 359 357 358 363 357 352 356 358 349 352 350 342 345 349 347 349 348 349 350 352 353 351 355 358 355 358 356 355 355 356 357 357 357 358 358 357 354 352 351 349 348 350
361 362 355 357 362 359 359 357 353 353 347 350 349 344 343 346 346 346 349 349 349 351 351 352 354 354 356 360 358 356 356 356 358 359 360 361 361 359 357 356 353 349 349
362 360 363 359 362 354 359 356 360 357 347 349 351 345 336 339 342 344 346 346 348 349 348 352 352 356 357 356 362 361 359 358 358 358 361 361 361 361 359 356 355 355 351
360 362 363 367 359 363 351 358 355 359 352 345 355 345 340 335 339 345 346 345 349 347 348 350 351 354 358 358 360 362 361 358 357 357 359 361 361 361 361 359 356 355 354
361 361 362 362 362 358 361 356 352 362 355 345 343 346 355 352 346 333 341 343 345 346 348 348 349 351 356 358 358 360 358 356 355 355 356 357 359 359 359 360 360 358 355
362 360 363 363 363 359 363 362 361 361 350 347 346 346 351 347 351 343 333 337 343 345 347 349 350 350 356 357 356 355 355 352 352 352 353 354 356 357 359 360 361 361 360
357 362 361 363 364 365 363 359 363 361 362 359 353 350 350 344 346 341 337 345 341 345 347 349 352 354 355 358 361 358 356 353 351 350 349 351 353 355 358 358 358 358 359
352 363 363 364 360 363 361 364 366 363 357 356 362 355 354 351 352 346 351 343 342 344 348 351 353 356 356 358 362 361 362 352 349 346 346 347 349 351 353 355 354 354 354
352 367 362 361 361 362 362 363 359 355 364 356 357 363 357 351 354 353 352 346 340 342 346 356 353 355 358 361 360 359 360 355 350 347 345 345 346 347 350 350 349 348 348
354 363 361 361 361 362 363 366 356 361 365 361 359 361 358 353 351 352 350 349 347 340 340 352 348 362 359 359 360 364 364 352 353 349 345 343 342 345 348 347 344 343 344
360 355 362 362 361 361 362 365 363 364 362 356 352 365 365 356 353 351 351 351 350 347 342 348 350 358 364 363 363 365 365 356 352 352 345 344 343 344 346 343 342 341 342
362 361 368 363 362 361 362 366 367 362 360 362 364 359 363 370 355 351 350 350 350 350 344 347 352 364 368 371 368 371 365 368 360 348 345 345 343 344 342 340 339 337 335
361 362 364 363 363 362 364 364 360 357 359 358 359 364 357 355 368 368 355 371 359 364 351 362 359 352 366 372 374 376 363 358 361 350 342 342 342 340 334 334 332 329 326
364 358 362 364 361 361 365 366 365 361 360 359 359 360 360 363 365 359 363 356 354 356 357 352 353 354 355 358 363 370 373 371 362 350 340 342 340 335 331 327 325 321 318
364 363 364 366 364 360 361 362 364 364 363 361 362 362 362 362 365 367 361 368 362 360 358 351 349 350 352 364 358 354 352 353 353 355 353 352 346 334 329 325 323 320 317
365 365 364 364 364 360 355 364 364 363 364 363 364 363 365 360 351 356 357 365 368 361 352 349 347 348 349 351 358 356 352 353 361 355 352 356 356 349 337 326 330 325 321
367 367 363 363 363 354 342 339 354 363 366 367 366 368 369 355 352 342 342 342 350 362 367 354 351 351 366 360 354 352 351 347 344 356 357 353 353 351 356 352 338 326 322
365 367 365 363 364 365 338 334 340 357 362 367 367 369 362 355 357 364 344 340 342 337 339 360 361 361 361 366 367 366 361 359 353 355 357 349 353 354 359 338 327 324 321
360 363 363 367 367 364 336 331 335 361 361 363 365 368 368 367 367 365 365 362 361 362 361 355 358 361 365 368 369 365 368 369 363 361 365 350 354 352 357 343 324 323 321
358 358 361 365 367 367 332 329 334 354 354 360 364 364 366 368 351 337 362 365 365 366 344 339 342 341 340 335 342 357 351 347 343 345 351 346 348 349 353 355 336 322 320
358 357 358 362 353 365 339 326 332 354 354 354 359 362 340 352 337 331 362 363 361 363 365 359 359 349 340 351 333 355 356 350 346 343 350 345 346 349 347 355 348 331 328

GFSMA_sfc_thetae_078.txt.gz
Theta_e
359 356 351 359 348 351 350 354 355 358 350 350 352 352 347 349 345 349 354 361 358 356 353 353 352 351 351 352 350 351 351 351 352 353 353 355 355 353 352 352 351 349 347
365 359 351 360 358 350 358 352 359 351 351 352 351 352 351 351 355 346 350 355 359 359 356 354 351 351 352 353 353 352 351 352 353 354 354 354 354 352 351 352 351 349 347
358 354 359 350 355 366 364 356 359 362 352 352 355 356 351 354 352 354 350 350 355 361 359 357 355 351 351 351 352 353 353 354 354 354 353 353 352 352 351 350 352 350 348
360 348 359 353 357 363 361 347 358 344 354 345 353 356 351 353 353 355 354 354 351 351 359 360 360 357 355 354 354 353 354 356 356 356 356 354 353 352 351 350 349 351 349
365 358 356 353 359 359 359 347 353 356 353 351 349 352 351 351 351 348 351 353 354 354 354 360 361 360 358 357 356 356 356 357 359 359 359 358 357 356 354 353 350 350 351
366 367 354 365 366 362 354 354 358 352 344 344 342 345 349 350 352 351 350 351 352 353 353 354 356 355 360 361 360 358 357 359 360 361 360 361 361 359 357 356 354 352 351
368 369 363 365 359 352 345 365 361 353 355 350 355 349 350 347 346 350 350 349 351 353 353 353 359 356 353 362 361 361 360 360 361 362 362 362 362 361 360 358 356 355 351
368 366 360 363 358 359 363 363 359 351 355 349 348 348 335 343 345 344 350 348 350 349 351 354 353 356 358 356 356 361 362 362 362 363 362 362 361 361 360 359 357 356 355
365 365 365 368 350 365 361 362 358 348 355 350 353 351 337 334 344 345 346 347 348 351 348 350 355 356 357 360 364 362 362 358 361 360 361 360 360 359 359 359 359 358 356
363 360 368 368 362 352 348 363 359 355 355 351 350 350 351 352 345 337 346 345 351 345 349 352 350 355 357 359 365 362 361 357 354 355 357 358 359 360 361 361 360 359 359
364 360 365 369 361 352 350 360 364 362 362 352 341 354 353 354 352 350 336 340 347 347 349 351 352 352 356 357 357 354 354 351 351 353 355 355 357 359 362 362 361 360 360
363 362 362 369 365 351 358 352 365 364 365 364 359 357 354 348 347 346 342 342 343 348 349 350 351 355 357 361 359 358 355 353 351 351 351 352 354 356 360 361 360 359 358
357 362 369 370 363 367 360 366 368 366 362 361 365 357 358 352 356 349 352 346 344 346 353 355 355 357 357 363 359 361 364 353 350 348 347 348 350 352 354 356 355 355 354
355 366 365 365 368 365 366 366 365 363 364 361 360 362 360 355 358 349 354 349 345 348 351 356 356 360 362 364 361 360 356 359 354 347 347 345 346 348 350 350 348 348 347
359 360 363 364 365 360 367 366 358 361 363 358 364 361 359 353 356 354 356 355 349 343 344 354 350 362 362 365 359 365 364 358 358 351 348 344 343 346 348 345 344 344 345
350 349 349 358 364 360 363 365 363 354 358 355 357 361 363 349 359 357 354 357 355 351 342 349 356 363 365 364 365 368 368 357 353 352 350 345 344 345 346 343 342 341 340
351 346 338 340 355 363 366 365 361 357 359 360 365 361 360 363 355 360 357 357 355 356 350 352 357 370 367 367 364 368 369 365 361 349 352 346 344 345 343 341 339 336 334
368 354 344 344 356 362 362 363 359 360 357 359 361 359 360 358 362 363 360 358 360 360 356 351 356 355 355 360 370 367 367 360 360 350 346 342 342 341 337 336 333 329 326
367 364 365 366 366 362 365 361 363 362 359 359 363 362 360 362 361 359 363 361 357 359 359 354 351 358 360 360 361 366 367 366 366 352 341 342 339 337 332 329 326 322 319
365 364 365 365 364 364 364 363 362 363 362 361 362 364 363 361 361 362 360 361 358 359 356 356 352 350 352 355 362 357 357 356 354 357 353 349 343 336 331 327 324 321 317
364 365 364 363 364 361 358 361 363 362 359 358 360 362 363 363 354 357 358 360 359 358 355 351 349 350 350 357 357 359 354 356 356 358 352 358 349 340 332 328 329 326 320
365 364 363 362 360 359 344 340 356 361 362 361 358 362 365 357 351 342 341 342 352 359 357 355 354 351 352 357 358 356 353 348 342 357 354 351 355 352 348 335 333 327 322
365 363 362 362 361 361 340 333 338 357 361 362 362 360 360 356 354 358 342 339 340 337 342 352 350 352 353 355 358 357 355 355 353 354 353 346 353 353 357 343 331 326 322
362 362 361 363 363 362 339 334 334 353 358 358 360 362 361 360 361 362 362 359 354 355 352 347 348 349 352 354 358 357 355 356 359 360 360 349 355 353 354 344 329 325 321
356 358 359 361 361 362 335 330 335 351 352 355 358 359 358 363 348 338 356 358 361 361 347 338 341 339 338 336 342 356 351 347 343 344 348 344 343 348 350 341 328 323 320
347 354 356 359 349 360 339 329 331 353 352 351 352 355 339 347 335 329 352 356 353 354 360 360 351 342 336 343 332 347 353 348 346 345 348 343 345 346 342 353 337 326 322

GFSMA_sfc_thetae_081.txt.gz
Theta_e
345 347 345 347 350 344 343 345 346 350 345 343 344 345 342 344 347 350 349 357 359 360 354 353 353 351 352 352 351 350 350 350 350 351 353 354 353 352 350 350 349 348 346
348 338 343 349 346 347 345 347 347 345 344 341 342 342 342 344 343 348 352 353 360 358 356 354 352 353 353 352 354 351 351 352 353 353 353 352 353 352 350 351 351 349 347
348 348 347 347 347 347 345 346 347 349 343 345 344 343 343 344 341 343 348 349 354 359 358 355 355 353 352 351 353 354 354 355 354 354 354 353 352 352 351 350 350 351 348
342 341 350 344 348 351 342 343 347 341 342 339 341 343 342 345 342 344 345 346 349 350 358 359 359 357 354 354 355 356 357 358 358 359 358 356 354 354 352 351 350 350 351
350 347 352 343 351 353 348 344 344 344 342 341 343 344 343 343 340 347 346 347 345 347 349 357 361 360 358 357 357 358 359 359 359 360 361 360 360 358 356 355 354 352 352
354 350 349 350 351 348 343 342 343 345 340 341 340 340 340 343 343 343 341 349 348 347 348 348 354 354 360 361 362 363 362 361 361 361 361 360 360 360 360 357 355 354 352
355 353 349 347 347 346 343 342 347 340 347 339 341 338 342 342 341 341 343 343 344 349 348 347 349 349 350 359 362 362 362 363 363 362 361 360 361 360 360 359 357 356 354
354 354 348 347 347 347 349 347 345 344 343 341 335 337 331 334 336 336 341 342 340 344 345 346 351 350 347 348 352 360 361 362 363 364 363 361 359 359 359 358 358 358 356
355 354 348 351 346 348 346 345 343 340 342 336 337 338 332 332 331 333 335 336 335 341 342 345 345 346 347 352 355 358 360 359 360 361 361 360 359 359 359 360 358 358 358
353 354 354 351 346 344 343 350 352 346 344 337 338 344 340 340 332 325 335 333 337 340 336 339 346 346 347 348 360 359 360 358 356 355 357 359 360 361 362 361 359 358 358
354 355 352 353 348 346 346 345 347 348 348 345 338 344 339 344 343 337 324 327 336 338 337 342 342 344 346 350 348 350 358 351 350 352 355 356 356 361 363 363 361 360 359
354 355 355 352 351 347 347 345 347 347 346 349 350 344 345 335 336 338 330 328 330 335 337 340 340 343 347 350 355 357 356 352 350 350 351 352 353 357 361 361 360 359 358
349 348 352 351 352 352 349 348 350 347 348 343 351 344 347 346 346 341 340 335 331 335 339 342 343 349 351 349 347 357 359 353 350 348 347 348 349 351 355 355 353 354 354
349 351 354 353 352 351 351 351 348 350 349 345 341 344 347 345 349 344 341 339 336 338 338 340 347 345 352 354 355 359 354 352 354 348 345 345 345 347 350 348 348 348 348
352 350 351 353 353 353 352 352 347 347 348 348 347 347 345 345 344 347 345 343 338 332 333 341 339 347 352 354 353 355 355 356 349 354 348 344 343 344 347 344 344 343 342
348 346 343 345 350 352 356 351 349 348 347 347 344 343 347 344 343 348 348 346 343 338 333 343 348 353 357 357 357 357 358 354 351 347 349 345 343 343 344 342 341 339 338
343 343 342 339 344 350 352 350 349 349 347 346 349 349 348 351 347 349 350 347 347 346 341 344 348 355 349 351 356 357 359 358 356 349 346 346 343 342 342 340 338 335 333
347 343 342 338 341 348 351 351 349 349 349 347 347 349 345 353 349 351 347 346 346 345 342 336 342 342 344 346 350 358 357 362 356 352 344 344 340 340 337 335 333 330 327
345 340 338 340 347 348 351 352 352 352 350 349 348 348 349 348 348 347 345 348 347 352 349 345 344 346 349 346 345 350 356 356 358 356 341 340 338 337 334 331 328 324 320
353 352 352 352 352 353 351 353 352 350 351 351 351 352 351 348 348 347 346 346 348 345 347 344 342 342 341 345 348 348 346 347 347 354 347 342 340 337 334 328 326 323 318
356 355 353 354 354 354 356 353 352 350 350 349 351 352 353 354 352 351 350 347 349 346 345 344 342 342 344 346 347 350 345 347 344 345 344 348 342 340 335 330 329 328 320
354 356 352 354 352 356 344 341 350 353 352 349 347 349 352 351 350 344 343 345 350 349 345 345 344 345 344 347 348 346 347 342 339 348 346 345 345 344 344 334 330 327 322
350 352 354 354 351 353 339 335 338 352 354 352 350 350 351 354 349 353 341 338 338 338 342 344 342 342 341 342 343 340 341 343 343 348 347 346 349 347 351 341 329 326 323
344 350 350 352 353 355 338 336 336 339 343 351 355 355 353 350 349 351 352 348 344 345 342 341 344 345 343 343 344 344 345 345 348 351 352 345 350 347 352 346 330 327 323
339 343 350 350 350 350 336 329 332 341 343 344 350 351 353 352 343 336 348 350 352 352 343 334 336 335 334 332 337 348 345 341 341 342 341 340 341 336 338 342 332 327 323
335 337 342 344 344 350 337 327 330 344 340 346 345 347 336 345 334 331 346 348 345 348 351 354 343 340 334 338 331 340 345 339 341 340 344 339 339 335 332 341 330 324 320

GFSMA_sfc_thetae_084.txt.gz
Theta_e
341 344 345 346 349 341 339 343 344 347 342 343 342 342 341 343 345 348 348 355 359 357 352 352 351 351 351 352 350 350 350 351 351 352 353 353 353 352 350 350 349 347 345
343 341 342 346 346 343 341 343 345 343 340 340 340 341 341 344 346 348 348 349 358 358 355 353 353 353 354 354 355 353 352 351 352 353 353 352 352 352 351 351 352 350 347
345 340 341 343 342 342 345 344 345 343 340 342 340 340 340 341 344 347 350 349 352 357 354 354 354 353 352 352 352 353 354 354 354 354 355 354 353 352 352 351 350 352 350
346 344 344 343 346 349 342 343 341 340 341 337 339 340 339 340 341 342 345 346 347 350 355 357 358 356 354 354 354 355 356 358 358 357 357 357 355 354 354 352 351 350 351
341 343 347 343 349 347 341 342 341 341 341 339 340 341 341 340 339 343 343 343 344 346 346 353 360 360 357 357 358 358 360 361 360 360 360 361 360 360 358 357 355 354 350
352 346 344 346 351 345 342 340 342 343 338 337 340 338 339 340 340 341 343 345 343 345 344 346 349 354 359 360 362 363 363 363 361 361 361 360 360 360 360 360 357 356 354
352 345 348 346 345 343 341 341 340 338 341 337 338 335 338 338 339 340 340 344 345 346 345 346 344 348 348 358 359 361 361 363 364 364 362 361 360 360 360 359 359 358 356
350 351 348 345 344 344 344 345 341 341 341 339 332 333 327 329 333 334 339 340 340 345 347 347 346 347 347 347 348 358 361 361 361 364 363 360 359 359 358 357 357 358 358
352 347 348 349 346 346 344 342 339 337 338 335 336 334 328 325 327 330 334 337 337 338 341 343 345 349 348 347 352 355 359 357 360 362 361 360 359 359 360 360 358 357 357
350 351 349 347 345 342 342 346 349 345 340 337 335 340 337 336 327 322 330 332 332 337 337 339 342 343 343 344 353 357 357 356 358 357 357 358 359 361 363 362 359 358 357
350 351 351 347 342 341 342 342 346 344 346 342 338 340 339 341 338 329 322 326 331 335 336 336 337 342 343 345 347 349 356 355 352 353 355 356 356 359 363 363 361 360 359
349 352 351 348 349 346 346 342 343 344 343 344 344 341 339 333 334 335 328 324 326 330 335 335 338 340 342 345 353 353 354 352 349 350 351 352 353 355 360 360 358 358 357
346 346 349 348 346 346 345 345 347 345 344 340 344 341 343 342 342 339 337 331 329 332 335 338 338 342 345 348 348 354 355 351 347 346 345 347 349 351 354 353 353 354 354
346 349 350 350 349 349 348 347 345 346 345 345 340 341 343 341 343 342 337 333 331 334 335 336 344 342 346 347 350 354 352 349 348 345 344 343 345 347 350 348 349 348 347
347 349 352 351 351 348 347 349 344 344 346 344 343 344 342 341 340 345 342 340 333 327 329 340 339 346 351 351 352 350 354 350 348 344 343 341 342 344 346 344 343 342 341
350 347 349 350 350 350 349 349 346 344 343 343 341 340 342 345 340 345 345 343 340 334 330 339 345 351 353 352 354 354 355 351 349 345 343 340 340 342 344 342 340 339 337
347 346 344 343 344 346 350 349 346 346 345 343 342 346 344 347 345 346 345 343 343 342 335 339 346 347 345 343 346 349 354 355 354 346 343 340 338 339 341 339 337 335 333
344 343 340 338 338 343 347 348 346 348 346 344 345 343 345 347 345 347 345 344 344 344 340 337 339 341 343 345 347 345 351 358 356 350 341 337 336 336 336 335 333 331 328
345 343 340 338 337 340 344 349 348 347 346 347 345 344 345 343 342 344 343 342 343 347 345 343 341 344 345 341 344 346 347 351 351 347 341 336 335 334 334 331 328 325 321
345 342 339 338 339 341 346 349 349 347 349 349 347 347 347 346 344 343 344 342 342 342 341 341 340 339 340 343 346 347 343 345 346 349 343 340 338 336 335 330 328 326 319
350 344 344 345 345 348 350 348 350 347 346 346 349 350 350 350 346 344 347 344 343 342 341 341 340 340 342 343 343 346 342 343 342 342 344 343 341 340 339 333 334 332 324
346 349 348 349 350 355 342 341 348 348 345 346 345 346 348 347 346 342 340 341 344 343 342 341 339 339 340 343 345 344 340 336 332 343 343 342 343 343 344 339 336 331 325
341 345 347 348 348 349 339 336 338 346 348 348 348 347 346 350 346 349 343 337 336 336 340 344 341 340 339 341 340 336 336 336 336 342 343 343 346 346 347 346 332 329 325
337 339 343 345 346 350 334 331 333 339 343 349 351 350 348 348 348 347 346 346 346 343 341 341 344 346 344 345 339 338 335 338 341 344 347 341 341 342 345 344 335 329 325
329 332 335 340 341 345 331 326 330 340 340 340 344 349 352 352 341 331 344 347 348 350 342 330 332 332 331 330 335 339 338 338 337 339 341 339 340 336 335 336 339 325 322
328 330 331 334 332 339 331 326 328 340 341 342 344 344 334 343 332 329 341 345 343 346 347 350 348 334 331 335 327 339 342 337 336 337 340 338 335 334 332 335 336 329 322

GFSMA_sfc_thetae_087.txt.gz
Theta_e
340 342 344 344 346 341 339 341 343 344 342 342 347 343 341 341 343 347 348 354 356 354 351 350 350 351 351 352 352 351 352 351 351 352 353 353 353 352 350 350 350 349 346
341 342 341 343 344 342 340 340 343 342 338 338 340 340 340 341 344 346 346 346 355 357 355 352 353 352 353 355 354 354 352 352 352 353 353 353 352 351 351 351 351 352 349
342 338 339 342 341 341 343 343 343 340 339 339 337 338 340 341 343 345 346 346 348 355 354 354 354 353 353 352 352 353 354 355 355 355 355 355 354 353 352 351 351 350 351
345 343 342 342 345 346 341 340 339 338 338 336 337 338 338 340 340 343 346 346 345 348 352 357 356 356 354 354 354 355 358 359 359 358 358 357 357 357 356 355 352 351 350
345 344 344 343 346 345 338 340 339 340 339 337 338 339 338 339 338 342 341 342 342 345 344 350 358 360 357 357 359 360 361 362 361 361 360 361 361 361 361 360 358 355 353
344 345 346 341 348 344 341 339 339 340 337 336 338 337 335 339 339 338 340 343 341 341 343 343 343 349 358 359 361 362 362 364 363 363 362 361 361 361 361 360 359 358 356
349 345 344 345 344 342 340 341 340 337 338 336 336 334 333 337 337 338 339 341 343 344 344 344 344 344 347 355 358 360 359 361 364 364 364 362 360 359 359 358 358 359 359
348 348 345 342 342 342 341 343 341 338 337 337 331 330 325 327 331 333 335 338 339 343 345 346 345 344 344 345 348 357 359 360 361 362 364 360 359 359 359 359 358 358 358
349 349 346 345 343 345 342 341 339 336 333 335 333 332 326 322 326 328 332 336 337 336 338 342 344 345 346 346 349 351 357 356 360 361 362 360 359 359 361 360 359 357 357
349 349 347 347 343 340 342 344 349 342 338 336 335 339 335 333 323 320 327 331 332 332 336 338 340 341 342 342 348 354 356 355 357 360 358 359 359 360 363 363 360 358 357
349 350 348 344 342 339 341 342 343 342 343 340 337 338 336 336 335 325 321 325 328 333 335 335 335 337 339 341 342 347 353 354 353 354 355 356 357 358 362 363 361 359 359
347 349 349 345 343 340 341 341 344 342 341 343 340 341 337 333 335 333 328 324 323 328 333 334 334 336 339 340 349 355 354 351 349 349 350 352 353 355 359 359 358 357 356
344 346 347 345 345 344 345 343 343 344 341 338 340 339 341 339 340 337 335 331 326 330 333 336 336 337 344 341 345 353 353 349 347 345 345 347 349 350 354 353 353 354 352
345 347 348 347 346 347 344 344 345 345 344 344 340 341 341 341 340 341 336 331 329 330 333 335 342 342 343 347 349 353 352 348 346 343 342 342 344 346 350 348 348 348 345
345 346 348 349 348 347 345 346 344 342 343 343 341 342 341 343 341 342 341 339 331 326 328 338 340 345 349 349 351 352 351 349 346 345 341 340 340 343 347 345 344 342 341
343 346 348 349 348 347 345 345 344 343 342 341 340 339 338 344 343 345 343 341 337 332 328 336 343 349 350 347 349 349 350 348 347 344 341 339 339 341 343 343 341 340 338
344 348 346 346 347 346 347 346 345 344 342 341 340 342 343 343 344 347 346 341 341 339 333 337 344 344 344 343 345 346 348 349 352 345 339 339 337 338 340 340 338 337 335
344 343 344 342 342 342 345 346 346 347 344 342 342 341 341 346 342 344 345 344 342 342 340 336 339 341 342 344 344 344 349 353 349 344 337 338 336 334 335 335 333 332 330
343 342 342 339 338 337 342 345 346 345 344 344 343 342 342 342 340 339 342 340 340 343 342 340 339 341 343 340 343 347 346 346 348 347 340 338 337 334 332 331 329 326 322
345 342 341 340 337 337 339 344 346 345 345 346 347 344 341 343 342 342 341 341 340 340 339 339 337 338 339 343 345 344 343 342 344 347 342 340 339 338 334 331 330 328 322
343 347 343 340 339 339 342 341 345 347 344 344 346 347 347 346 345 343 344 342 341 339 339 337 337 337 338 338 338 342 341 341 340 338 339 343 340 341 341 337 339 336 329
339 339 344 345 344 348 338 337 344 346 347 344 343 344 345 345 344 339 337 338 343 342 339 338 338 336 336 338 340 340 337 333 328 336 339 339 342 342 344 343 339 334 330
334 335 338 343 345 346 335 332 338 346 347 346 345 345 346 349 343 346 341 336 335 334 336 344 341 340 339 340 339 335 333 332 331 336 339 337 342 343 345 344 334 332 328
328 329 330 333 338 343 330 327 331 338 341 342 346 347 346 346 345 345 345 344 344 345 341 339 343 347 345 346 341 339 335 332 335 339 343 337 338 338 341 341 333 331 327
325 327 330 331 332 333 327 324 328 338 340 341 341 343 348 348 339 331 340 343 345 346 341 329 332 331 329 328 333 337 335 333 338 337 342 338 336 335 335 336 337 326 323
323 326 327 329 328 331 326 322 324 337 339 340 343 343 331 337 330 326 339 344 343 344 346 346 345 335 329 334 327 336 342 337 339 338 340 338 334 334 331 334 336 336 332

GFSMA_sfc_thetae_090.txt.gz
Theta_e
344 346 347 348 349 344 345 346 348 348 344 345 351 348 346 346 346 349 352 354 354 354 352 350 351 351 352 353 355 355 353 352 352 352 353 352 352 351 352 350 350 350 348
345 346 344 347 347 348 346 346 347 345 344 343 347 346 345 345 347 348 350 349 353 355 357 354 353 353 353 354 354 353 354 354 354 354 354 354 353 352 352 352 351 351 351
345 344 344 346 347 347 347 348 348 345 344 343 343 344 345 345 346 347 348 348 349 354 355 354 354 354 354 354 353 353 356 357 357 356 357 357 357 356 354 353 352 351 351
349 347 347 346 349 351 346 346 345 345 343 343 343 344 344 345 345 347 348 350 350 348 351 354 357 357 356 356 356 357 360 361 361 361 360 360 360 359 357 357 355 354 352
348 349 348 347 350 349 344 345 345 345 345 342 342 345 345 344 345 344 346 347 347 348 349 349 353 357 357 358 359 362 363 363 363 363 362 362 362 361 359 359 359 358 356
346 351 351 349 353 349 346 347 346 346 345 342 340 341 342 343 346 343 344 346 347 347 347 349 350 349 352 356 359 360 361 363 364 363 363 363 361 361 360 360 359 360 359
352 350 348 350 349 349 346 349 348 344 345 344 342 342 340 341 343 344 345 345 347 349 349 350 350 350 350 352 354 355 358 360 363 364 363 361 360 359 359 360 359 358 359
352 350 348 348 348 348 347 349 347 344 343 343 340 337 333 336 339 339 340 343 344 346 348 351 352 353 353 352 353 358 359 359 361 363 364 360 359 359 360 360 359 358 358
350 353 350 349 349 350 348 349 345 345 341 342 341 340 335 331 332 337 340 341 344 344 345 346 348 351 352 352 353 353 355 356 359 363 363 360 359 359 361 361 359 358 357
352 352 351 350 349 347 350 350 352 348 345 343 343 343 342 340 335 330 337 338 340 341 343 345 346 347 350 349 351 353 351 353 357 359 360 360 359 360 362 363 360 358 357
352 353 351 350 348 347 348 350 350 350 349 346 344 344 343 341 340 333 333 334 338 340 343 344 345 345 346 347 350 351 352 352 351 354 355 357 358 359 361 361 360 359 359
351 352 351 349 348 346 347 349 352 349 348 350 346 347 346 343 344 340 337 336 331 339 341 344 344 345 346 348 350 354 355 351 350 350 350 352 354 355 358 358 357 357 355
349 351 352 350 349 350 349 348 351 352 348 347 347 347 347 346 347 344 341 339 335 339 344 348 349 349 349 353 352 353 354 348 347 345 345 346 349 351 353 353 352 352 349
349 352 352 352 351 350 348 349 350 350 351 350 348 349 347 346 347 347 344 340 338 338 341 346 350 353 356 358 357 354 358 347 345 343 342 342 344 346 348 350 349 348 344
349 351 351 351 351 351 350 350 349 349 350 349 349 348 348 348 348 347 348 346 341 336 338 347 352 359 360 360 357 360 359 350 345 343 341 339 340 342 345 347 345 343 341
349 348 350 350 350 351 351 350 350 349 349 347 346 347 347 348 351 352 349 348 344 341 339 344 351 356 355 354 355 357 356 348 346 343 339 338 339 340 342 344 343 341 339
345 346 348 350 351 349 351 349 350 349 348 347 347 348 349 351 350 352 352 348 349 347 344 347 350 354 356 356 357 359 359 360 358 341 337 337 338 337 339 340 339 338 337
347 346 348 349 349 350 350 351 350 351 348 347 347 347 347 347 350 352 352 351 350 350 348 346 349 350 353 355 355 356 356 355 356 346 337 335 336 335 334 333 333 333 331
348 346 346 345 344 344 346 349 350 348 349 347 349 348 348 348 348 348 347 348 347 348 350 347 346 349 351 350 353 357 358 359 356 347 339 337 338 336 332 330 328 326 323
348 347 346 345 345 343 342 344 348 349 349 348 348 350 349 348 349 350 348 348 347 347 347 346 345 346 347 352 352 350 350 354 353 352 344 340 340 339 336 332 330 329 323
342 346 348 346 345 343 342 343 346 349 350 350 350 351 351 349 344 345 351 352 349 347 347 346 345 346 347 347 347 350 349 349 350 348 346 351 351 351 351 342 343 339 331
339 342 342 346 347 349 337 334 343 349 351 350 350 351 351 345 345 338 337 338 347 351 350 347 347 346 349 349 349 349 348 344 341 348 349 347 350 351 352 354 341 334 331
333 333 334 336 339 343 329 328 333 343 349 351 352 351 351 352 348 351 339 334 335 334 340 353 349 350 350 353 352 350 347 344 343 347 346 346 352 350 354 351 335 332 329
329 330 331 333 335 336 327 324 328 339 343 347 350 351 351 352 352 351 351 351 352 352 349 344 348 351 354 355 353 354 352 347 345 346 349 344 352 349 354 353 335 329 326
325 325 329 330 332 332 314 315 323 337 343 344 347 347 348 350 339 330 347 348 350 351 342 329 332 332 330 328 337 348 345 344 344 347 350 348 351 348 350 350 352 331 325
321 325 326 325 321 324 312 311 318 326 331 339 346 348 333 337 327 322 340 346 345 349 350 352 353 343 333 340 326 341 348 344 344 344 353 346 348 346 344 351 348 350 352

GFSMA_sfc_thetae_093.txt.gz
Theta_e
354 357 357 357 355 355 355 357 357 354 353 353 359 357 355 353 350 350 352 353 353 354 354 352 352 352 353 354 355 354 353 353 353 353 353 353 353 352 352 352 351 351 351
356 355 355 356 356 356 357 358 356 354 352 354 356 357 355 353 352 352 352 352 351 354 355 355 354 353 353 353 354 353 354 354 356 355 355 356 356 355 354 353 353 352 352
355 357 355 354 355 360 359 360 356 356 352 351 353 355 355 354 353 354 355 355 354 351 354 355 354 355 355 355 356 356 357 358 358 359 358 358 358 358 359 357 355 354 352
358 358 355 356 360 358 357 356 354 353 352 353 354 354 355 355 355 356 357 357 358 355 352 350 354 356 357 357 359 360 363 364 363 363 363 362 361 360 361 360 359 358 354
358 359 358 357 361 354 355 355 355 357 354 353 352 355 355 355 356 353 355 356 357 357 357 356 351 353 354 357 360 361 362 364 364 364 364 364 363 361 360 360 360 361 359
357 361 359 359 363 360 357 356 357 357 355 352 347 349 353 354 357 357 355 355 357 357 357 358 359 358 354 355 357 358 360 364 364 365 365 363 361 361 361 361 360 359 360
358 363 358 359 360 359 357 360 358 356 352 353 350 350 351 353 355 356 357 356 355 356 357 359 359 358 359 357 356 356 359 361 363 364 364 361 360 360 361 362 361 360 359
361 361 360 358 359 356 359 359 358 353 352 352 346 349 340 343 347 348 352 352 355 357 356 356 357 360 361 359 359 359 358 358 361 363 364 361 360 359 361 361 360 360 359
359 362 360 359 360 360 356 359 357 356 348 353 353 347 342 336 342 347 349 352 356 355 356 355 356 358 359 358 358 360 357 354 359 362 363 361 360 359 362 362 360 359 359
358 360 360 360 362 360 360 360 361 358 357 351 355 353 354 352 343 338 347 350 351 351 354 354 353 355 357 355 359 357 353 355 356 359 360 361 361 360 363 362 360 359 359
360 360 360 361 359 357 361 361 361 362 357 354 352 355 355 353 355 349 340 342 349 351 353 354 353 353 356 357 359 356 357 355 354 356 356 357 358 358 361 359 360 359 357
359 361 359 361 359 358 359 360 361 360 359 358 355 354 352 349 349 349 348 350 344 349 352 354 355 355 358 362 361 354 356 352 351 351 352 353 355 356 356 357 356 356 353
360 359 361 360 357 359 358 359 363 361 358 355 356 352 354 353 356 354 352 350 345 350 353 356 359 361 358 364 364 356 358 350 348 346 346 348 350 353 353 355 352 350 347
363 363 362 361 360 360 359 360 356 358 362 359 356 360 357 356 355 354 353 350 347 349 353 357 363 364 365 363 361 357 360 350 346 343 342 343 344 347 350 353 350 348 343
356 360 361 361 361 361 360 358 355 358 360 359 358 359 356 356 359 357 357 356 349 342 346 355 358 364 361 363 360 363 367 351 345 344 340 339 341 344 346 348 348 345 343
358 359 359 360 360 361 361 360 357 358 359 357 355 357 357 355 357 360 359 358 356 351 343 355 358 360 363 360 358 364 364 352 348 343 338 338 340 342 343 344 346 344 342
356 357 358 357 359 360 359 360 360 359 357 358 357 357 357 360 354 357 360 358 355 355 346 352 356 360 364 363 360 362 360 365 359 343 340 337 337 339 341 341 341 341 341
357 357 357 357 357 357 361 360 357 355 357 356 357 356 355 353 358 359 356 360 357 358 350 351 354 352 358 362 362 363 359 357 361 350 341 337 336 337 335 335 333 334 333
359 358 357 356 357 356 357 358 359 358 357 357 357 357 356 357 357 354 356 353 352 354 354 351 350 354 356 358 360 361 362 363 356 348 341 337 339 338 335 332 330 327 324
359 359 359 358 356 355 354 353 354 356 357 358 359 359 359 357 358 359 357 359 356 354 355 353 352 352 354 360 359 355 353 357 357 359 350 342 340 342 338 334 333 333 324
352 357 358 358 357 354 352 352 352 352 354 356 357 358 359 355 347 349 354 361 361 358 352 350 349 350 350 350 352 353 354 356 359 358 354 355 352 354 352 344 347 341 333
346 349 351 352 352 348 331 333 343 353 355 356 357 359 360 349 350 338 337 338 349 358 356 349 348 349 356 356 355 353 352 351 347 355 356 350 352 352 353 352 341 336 331
339 339 340 344 345 342 324 325 331 354 356 360 360 361 360 356 353 360 342 335 336 334 338 359 354 357 358 363 361 359 358 355 352 354 356 348 351 350 354 351 338 334 329
334 335 336 338 333 321 316 321 327 348 352 355 357 358 360 360 359 357 359 358 360 362 360 353 356 359 362 363 364 361 360 358 357 355 362 348 351 350 355 357 339 333 329
330 332 333 338 325 317 312 314 333 344 346 348 351 353 354 355 325 324 351 356 358 358 346 333 334 333 332 329 336 354 352 350 347 349 356 353 352 352 355 355 357 337 329
328 328 326 324 318 314 310 310 318 325 326 335 344 339 325 320 316 317 336 348 350 355 355 358 359 350 340 351 329 349 354 350 349 348 356 351 351 352 348 353 356 357 358

GFSMA_sfc_thetae_096.txt.gz
Theta_e
356 356 359 356 357 356 357 357 355 355 355 356 356 355 353 352 349 347 345 353 353 354 354 352 352 352 352 353 354 353 353 354 354 355 356 355 355 355 353 352 352 351 352
358 356 357 356 355 356 356 356 356 354 353 352 354 354 353 350 353 351 347 349 353 353 353 354 353 353 353 353 354 355 355 356 357 358 358 357 358 358 358 357 354 353 352
362 361 357 357 356 360 362 358 356 355 350 350 352 353 353 354 353 355 354 352 352 352 353 354 354 354 355 356 357 359 360 361 360 360 361 361 361 361 361 360 359 357 355
363 361 355 355 360 362 359 355 353 350 350 350 352 353 353 353 355 355 355 358 358 355 353 352 351 354 356 358 360 361 363 365 365 364 364 363 363 362 362 362 361 360 358
362 359 357 359 363 359 357 356 353 355 352 352 350 352 352 353 354 351 354 359 356 360 359 356 354 354 355 357 359 361 362 365 365 365 365 364 361 360 361 362 361 360 361
362 361 358 361 363 360 355 355 358 356 356 352 347 347 351 353 355 354 352 354 356 358 358 363 363 358 358 356 357 358 360 363 365 365 365 363 362 360 362 363 362 361 360
361 365 357 360 363 359 360 363 358 356 349 353 348 345 346 350 351 353 355 355 354 356 358 359 363 362 360 362 360 358 359 361 363 364 365 362 361 360 362 363 362 361 359
363 362 362 359 362 356 363 363 361 352 351 354 346 346 338 340 345 347 352 352 354 354 354 358 362 363 362 360 359 362 359 356 361 363 364 362 360 360 363 362 361 360 359
362 363 362 362 361 361 355 362 360 359 346 354 358 348 339 336 341 346 348 349 353 353 356 358 360 362 363 362 362 361 357 357 359 362 363 363 361 361 363 361 360 359 359
360 361 363 362 363 360 361 361 360 360 360 350 354 355 360 357 341 336 343 346 351 350 355 357 357 358 363 361 359 359 356 358 358 361 361 360 360 360 362 360 359 359 358
362 360 364 363 364 358 364 364 363 364 358 354 351 356 359 357 358 344 336 339 346 351 355 356 357 359 362 363 362 355 359 357 357 358 358 359 358 359 359 359 358 356 354
360 361 362 363 365 362 362 361 366 363 362 360 357 357 352 349 348 349 345 345 343 347 354 357 359 360 361 362 361 359 360 356 353 352 352 354 356 357 358 358 356 354 350
360 361 364 364 360 364 362 363 362 363 361 358 361 355 358 355 356 355 351 345 344 349 353 356 361 364 359 364 363 360 364 353 350 347 347 349 351 353 356 359 355 352 347
355 362 360 360 362 362 362 364 358 355 359 357 357 361 355 358 358 356 353 350 343 344 350 357 362 364 366 363 359 358 361 350 347 345 343 343 346 348 352 355 355 352 348
359 360 359 358 359 360 362 364 355 360 362 360 358 359 356 354 356 358 358 355 349 341 345 356 353 364 362 364 359 361 363 351 348 345 340 339 342 346 348 351 351 349 346
364 361 359 358 359 359 363 365 358 360 361 357 355 357 358 352 353 354 354 353 353 349 343 354 354 359 362 359 359 361 360 353 350 345 341 340 340 344 345 348 348 348 345
363 363 362 358 359 357 359 361 361 359 359 359 360 358 358 360 352 350 352 353 350 349 345 348 355 358 365 363 362 364 360 359 354 346 343 342 339 341 343 344 344 344 344
364 363 362 362 361 359 360 359 357 357 358 356 355 357 357 352 358 358 352 359 357 357 349 353 357 352 360 363 363 365 358 355 355 348 343 341 339 338 337 336 336 336 335
360 357 358 358 360 360 359 361 362 359 357 356 356 356 356 356 357 352 353 351 349 350 352 348 348 350 353 358 359 365 361 362 357 350 343 339 341 342 338 333 331 329 325
361 357 358 358 359 361 361 360 360 360 359 357 358 357 355 356 358 358 358 358 358 355 356 349 347 346 348 358 356 350 347 351 353 355 352 346 344 345 340 335 334 333 326
358 361 361 361 362 360 357 360 359 358 357 357 357 358 358 355 349 350 354 362 363 354 348 344 344 344 345 347 352 350 348 350 355 355 352 354 351 348 348 341 344 341 335
355 357 357 359 360 356 327 332 345 358 359 358 358 361 360 353 351 341 339 339 348 360 356 351 347 348 358 356 354 351 350 347 345 354 354 349 350 348 348 350 343 337 334
349 348 351 353 342 338 319 323 331 356 360 360 360 361 357 352 354 358 343 337 338 335 338 361 354 355 360 365 361 358 360 355 352 353 355 347 353 350 351 349 340 338 334
347 348 346 346 335 321 314 318 326 351 357 359 360 360 360 359 332 342 358 357 358 360 363 357 358 361 364 365 369 363 362 363 360 357 361 346 351 350 354 354 338 337 333
342 342 344 337 329 321 311 312 328 351 352 355 350 339 344 341 318 319 352 357 358 358 347 333 334 332 331 330 338 355 352 349 347 348 355 348 349 349 351 352 354 338 334
336 337 337 331 319 322 308 309 317 335 339 343 348 339 320 321 312 313 338 346 349 352 352 350 354 351 342 352 332 355 357 351 350 347 356 352 352 352 348 353 353 354 357

GFSMA_sfc_thetae_099.txt.gz
Theta_e
355 356 361 357 358 359 360 354 352 353 354 352 349 349 346 347 345 342 341 354 353 353 353 352 352 351 351 352 353 354 355 355 356 357 358 358 357 357 357 355 353 353 351
359 355 355 359 353 361 361 353 355 352 351 347 350 350 347 347 350 346 343 348 353 352 353 353 353 353 353 354 356 357 358 358 359 360 360 360 360 360 359 359 359 356 354
363 363 356 357 354 357 360 358 354 353 347 346 351 351 349 351 351 353 349 350 351 353 354 353 354 355 355 356 358 360 361 363 362 362 363 363 364 363 362 361 360 359 358
361 365 354 358 356 362 352 355 349 346 346 347 349 349 349 350 352 354 354 356 355 353 354 355 354 355 356 358 360 362 363 365 364 364 364 364 362 361 362 362 361 361 360
361 360 364 357 364 356 354 356 348 356 348 346 347 348 350 349 352 350 356 357 357 357 356 358 359 358 357 358 359 360 361 364 366 364 364 364 361 360 362 363 363 362 360
360 363 357 359 360 359 352 354 363 351 352 349 344 346 348 349 352 351 353 354 357 358 354 360 362 358 362 360 359 357 360 364 365 364 364 362 362 361 362 363 362 362 360
361 364 359 359 360 363 361 358 354 357 346 350 351 344 345 349 350 350 352 353 354 351 355 359 360 361 360 365 361 359 357 359 363 363 364 361 361 362 363 363 361 361 360
362 361 365 360 363 356 360 360 361 353 345 349 346 346 336 341 345 346 350 351 353 350 353 357 359 363 363 359 362 359 360 357 361 363 365 363 361 361 363 362 361 360 360
360 363 363 362 361 365 355 360 357 360 350 348 359 352 341 339 339 345 348 349 353 350 352 355 356 359 362 360 363 361 359 359 361 364 364 364 361 360 363 361 360 359 358
359 360 362 361 365 362 371 363 357 363 361 346 346 350 358 357 345 336 342 347 349 349 352 353 353 357 361 359 365 358 359 361 359 362 363 363 362 360 361 360 359 358 356
361 358 361 362 363 359 363 370 362 366 354 356 352 348 356 349 353 344 337 340 346 348 350 352 352 355 359 360 361 357 361 360 358 358 357 358 361 362 361 361 358 356 353
358 361 361 363 365 364 363 361 364 363 368 364 358 357 351 346 348 351 342 343 342 346 348 350 353 355 356 358 362 363 365 359 355 353 352 354 355 358 362 362 360 357 353
353 363 363 362 361 365 362 364 365 364 361 361 365 355 350 351 351 352 348 347 340 345 347 350 353 357 358 359 361 360 370 355 351 348 347 348 351 353 356 361 361 357 353
353 365 362 361 361 363 362 363 357 355 364 357 359 367 356 352 353 351 350 347 344 341 347 355 354 358 360 361 360 359 359 352 350 346 343 344 346 350 352 356 358 357 355
359 360 360 359 360 361 362 363 355 358 358 361 361 361 357 352 350 353 353 350 346 338 346 340 354 350 359 360 360 361 361 352 350 347 341 342 344 347 350 351 352 352 350
361 362 358 358 359 359 361 363 361 362 361 357 355 363 360 353 354 351 351 351 350 346 340 349 356 361 364 361 361 365 362 353 352 349 343 344 344 345 347 349 349 348 348
362 359 361 359 359 359 360 364 364 361 360 361 362 360 358 365 353 350 353 351 349 348 343 347 352 363 367 364 363 367 363 365 355 348 345 345 344 343 346 346 346 345 344
360 360 361 361 361 359 362 362 358 357 358 357 356 357 356 352 365 365 351 361 353 357 349 352 355 350 359 369 371 373 360 356 356 350 348 345 344 339 340 339 338 337 336
360 358 360 360 359 361 362 362 362 360 358 357 356 356 356 356 360 355 360 354 350 349 353 348 347 350 352 353 357 366 367 364 357 350 345 342 344 340 339 335 333 331 327
359 359 359 361 359 359 359 360 360 360 359 357 358 357 357 356 359 361 355 365 359 354 353 348 346 348 348 357 353 351 348 351 350 352 351 347 347 344 340 336 335 333 326
358 359 359 360 360 358 351 349 360 359 360 359 359 358 359 356 350 350 354 365 363 357 350 348 344 343 343 351 351 349 350 349 355 354 352 351 351 351 350 339 345 342 334
356 358 358 359 358 341 326 328 341 361 359 359 357 360 363 353 351 343 341 341 348 357 356 351 348 348 358 355 353 352 352 347 344 356 354 353 354 352 352 354 345 339 334
355 353 354 350 342 332 317 320 330 348 357 362 363 362 357 353 353 358 344 338 339 336 339 359 354 357 359 363 365 361 359 356 352 356 357 353 356 354 354 350 341 337 336
348 351 350 345 336 321 313 316 322 344 354 359 358 359 360 353 331 334 350 357 357 359 357 356 360 360 364 368 366 364 364 362 360 360 363 352 356 352 354 354 336 338 337
346 347 347 342 334 322 310 312 325 350 355 354 349 344 352 346 316 316 345 353 357 360 343 334 336 334 331 331 339 354 351 347 346 349 358 352 354 355 356 358 358 337 333
342 342 336 336 321 326 308 309 316 329 342 339 352 333 315 318 311 310 327 341 346 350 349 348 346 349 343 351 334 351 360 353 354 348 355 354 353 354 349 356 358 360 361

GFSMA_sfc_thetae_102.txt.gz
Theta_e
362 355 347 351 348 348 353 357 354 355 356 354 349 347 345 346 341 340 347 357 356 354 352 351 351 351 351 353 354 355 357 358 359 359 360 360 360 360 360 358 356 354 354
357 352 348 355 356 352 360 352 349 349 355 350 352 351 348 350 352 341 344 351 358 356 353 353 353 353 354 355 357 359 361 362 364 364 364 364 363 362 361 360 359 359 357
353 349 352 357 360 363 361 364 362 355 351 350 353 354 352 353 354 350 344 345 351 358 357 356 356 356 356 356 359 362 365 365 366 365 365 365 365 364 363 361 361 361 360
359 356 357 359 366 367 365 355 358 355 352 352 349 353 353 352 355 356 355 350 349 347 358 360 360 360 359 359 361 364 364 365 365 365 365 365 363 362 363 364 363 360 361
357 366 354 360 365 364 347 351 353 355 353 347 349 352 353 352 355 353 357 358 357 353 353 358 360 361 362 361 363 363 362 364 365 365 364 363 362 362 363 364 363 362 361
366 364 364 365 358 364 349 362 357 352 360 345 346 348 352 354 355 354 355 355 357 357 355 356 356 357 361 366 364 361 362 365 365 365 364 362 361 362 363 363 362 362 361
368 369 365 365 356 355 362 362 360 359 358 358 359 352 349 351 352 353 354 353 355 356 356 360 362 360 356 364 364 361 363 362 364 366 364 361 361 361 363 361 361 361 360
367 366 363 362 348 356 367 365 366 361 354 356 351 349 342 346 347 348 354 353 353 350 355 361 360 360 361 359 360 362 360 362 365 366 366 363 361 360 362 361 360 360 360
366 363 364 357 361 354 356 363 366 363 355 353 360 352 342 337 343 347 349 353 352 354 354 356 358 361 361 363 362 359 357 360 364 366 367 365 363 361 361 362 360 359 359
362 365 365 360 361 351 350 360 366 364 363 355 353 353 359 350 345 341 348 349 353 351 354 358 355 359 362 362 367 360 358 359 360 362 363 364 364 365 364 364 361 360 357
364 362 366 365 364 360 356 351 360 368 365 360 354 355 354 357 357 341 340 342 349 353 350 354 353 357 360 361 361 357 359 358 358 357 357 358 360 362 365 364 363 361 357
363 368 362 370 369 353 355 363 366 366 368 365 362 356 339 335 331 338 342 343 345 348 352 353 350 355 359 360 364 360 364 357 355 353 352 353 355 357 360 365 365 363 359
346 354 371 365 364 365 363 366 364 366 366 362 363 359 342 337 336 338 347 341 341 345 346 345 346 346 347 347 350 358 362 354 352 348 346 347 350 353 356 359 364 363 361
347 355 363 364 366 365 365 366 365 362 365 363 362 363 362 355 351 356 350 341 339 337 334 339 344 346 345 341 346 351 359 352 351 346 343 343 345 347 351 353 356 358 357
348 345 339 360 363 359 363 361 363 362 352 350 356 364 362 355 351 354 354 353 344 332 324 329 333 344 342 343 343 362 364 354 351 348 342 343 345 345 348 349 351 351 351
340 342 344 355 362 361 364 367 364 360 359 352 356 360 360 360 358 353 355 350 350 343 334 335 336 347 342 348 346 364 364 354 352 352 343 349 350 346 346 348 348 347 347
344 343 353 361 358 364 365 364 364 363 357 356 359 358 357 361 358 356 354 350 350 350 344 347 347 346 345 346 360 364 365 363 359 346 346 349 350 347 344 345 345 344 343
362 364 366 361 362 360 361 361 361 359 358 357 358 361 359 352 359 362 358 356 356 356 352 347 352 354 356 361 362 366 363 357 357 352 344 344 348 342 341 339 339 338 336
365 364 365 360 357 360 358 359 361 360 359 360 360 358 359 356 357 357 358 356 354 353 351 349 347 350 350 351 350 356 360 357 361 350 341 341 341 338 337 335 333 332 328
356 355 361 358 357 361 359 359 359 359 360 360 361 362 361 360 357 357 355 356 354 354 352 351 350 349 349 351 355 348 343 355 354 355 351 346 347 342 338 334 333 332 327
352 353 355 359 345 342 336 339 346 353 355 358 360 359 359 351 348 347 356 357 356 353 350 347 346 347 349 350 349 352 352 351 351 354 351 353 351 351 350 344 341 340 335
349 350 350 352 342 334 323 326 333 352 358 356 358 361 363 351 352 341 340 340 346 352 350 352 350 347 349 352 353 353 352 349 346 358 354 350 353 353 355 353 347 341 337
345 345 346 340 326 320 316 319 325 341 354 356 356 358 355 347 335 339 346 339 339 336 337 350 350 350 352 354 357 354 353 353 350 353 352 348 354 352 356 355 339 339 339
342 343 343 337 329 315 313 316 323 339 350 356 356 355 353 333 321 321 336 351 356 359 356 351 350 354 358 359 356 355 354 353 354 354 356 347 353 352 357 358 341 339 335
339 344 345 339 329 315 311 311 325 339 356 352 343 325 337 324 315 315 335 340 345 352 341 334 333 330 329 328 335 347 346 347 344 347 353 350 351 350 353 355 355 337 331
346 340 336 333 325 318 309 309 312 328 332 331 336 326 315 313 311 311 322 327 334 337 330 329 332 336 338 344 335 344 349 345 345 343 354 345 341 343 338 349 351 354 357

GFSMA_sfc_thetae_105.txt.gz
Theta_e
346 343 337 341 343 345 343 343 346 345 346 343 339 338 338 337 338 344 347 354 357 355 353 352 352 353 353 353 354 356 357 358 360 359 360 360 361 361 359 359 358 356 354
346 346 338 340 344 345 345 344 338 341 343 341 341 339 339 338 334 340 346 349 358 359 357 355 354 355 355 356 357 359 362 364 364 363 364 364 363 362 361 360 360 359 359
342 340 342 342 348 348 348 343 341 344 343 343 340 341 341 341 335 336 340 344 351 359 359 358 360 360 358 358 359 362 365 364 365 365 364 364 364 362 362 362 361 360 360
345 346 345 345 349 355 353 351 349 343 341 341 340 340 343 343 344 337 340 341 343 345 355 360 360 361 361 360 362 365 364 363 363 363 363 363 362 362 363 363 363 361 360
352 354 350 348 355 350 343 345 343 344 341 342 342 342 341 342 344 347 343 343 343 344 345 355 359 360 361 362 366 365 363 362 363 363 363 362 361 362 362 363 363 362 361
354 354 354 347 342 350 348 349 344 351 348 338 345 341 341 343 345 345 347 348 347 346 347 347 351 353 360 364 366 364 363 363 363 363 362 361 360 361 362 362 361 361 361
354 353 352 346 334 347 348 349 350 349 347 347 342 340 337 340 343 345 348 348 347 349 348 350 349 350 352 361 363 362 362 361 362 364 363 361 359 359 361 360 360 360 360
352 355 351 348 347 348 349 349 348 350 344 343 338 340 330 334 340 342 344 347 345 348 348 352 355 353 349 352 355 361 358 360 363 365 365 362 360 359 359 359 358 359 358
353 353 348 348 346 342 335 342 350 349 345 345 344 342 333 331 332 336 336 342 340 344 346 350 352 352 355 353 359 358 356 356 360 363 364 363 362 361 359 361 359 357 356
354 354 346 347 344 333 329 340 354 352 350 346 347 347 345 342 334 328 338 340 340 344 343 347 350 351 352 353 357 356 357 355 357 359 360 361 362 362 363 361 360 358 355
355 353 354 353 346 343 346 347 346 353 352 349 347 343 341 338 333 337 331 335 341 345 345 343 346 343 347 351 348 349 352 355 354 355 355 357 359 361 363 364 362 360 358
349 350 354 352 347 339 335 344 352 352 352 350 347 339 334 331 329 336 332 330 332 340 344 345 344 343 344 344 340 346 348 350 352 352 351 350 353 357 360 363 365 363 360
342 345 348 351 350 343 342 349 348 348 352 350 351 342 336 334 333 336 340 337 328 336 338 341 344 342 345 341 338 344 348 344 349 348 346 345 347 349 353 357 361 363 362
346 348 349 350 351 352 352 351 348 350 349 346 345 349 345 343 336 337 337 330 326 335 337 334 339 340 340 342 341 345 344 342 352 348 345 343 344 346 348 350 353 356 356
349 347 344 340 344 351 353 351 349 346 345 343 337 346 349 350 349 346 344 334 338 328 328 330 331 340 341 342 342 341 342 344 350 350 346 343 345 344 345 346 348 350 350
343 345 340 340 343 352 350 350 349 349 346 338 337 348 346 348 346 346 345 342 342 334 331 334 335 340 341 342 343 345 344 348 350 352 348 342 343 346 345 343 344 345 346
338 337 342 346 351 352 351 349 349 348 347 347 347 347 346 347 350 349 347 346 344 344 337 342 340 340 340 340 341 346 352 353 354 347 345 341 339 345 344 342 341 341 342
344 343 349 352 351 351 350 350 351 350 347 346 347 345 346 350 345 345 346 345 342 343 340 334 341 344 339 345 347 348 355 360 357 353 342 339 340 342 340 338 336 336 335
349 351 351 350 350 350 349 350 351 350 349 349 348 348 347 348 346 344 342 341 344 347 343 340 340 341 342 346 349 347 345 352 354 351 344 341 337 337 337 335 332 330 328
346 348 350 352 349 343 342 343 346 348 348 351 351 349 349 348 345 345 345 344 344 341 342 341 340 340 343 347 348 345 347 349 346 354 349 345 344 341 338 334 333 332 327
345 349 350 342 340 334 330 333 336 343 350 347 350 351 349 348 345 343 346 344 343 341 340 338 338 339 339 341 342 346 345 345 346 347 348 349 349 350 351 346 348 344 334
342 346 342 337 330 324 319 322 326 333 345 350 348 347 346 336 337 337 338 337 338 339 338 340 340 339 340 342 346 345 345 343 340 348 347 348 350 350 352 355 348 344 340
341 343 331 321 313 312 315 318 324 327 338 344 345 346 344 329 324 327 335 340 339 336 338 340 339 340 342 344 346 344 343 343 343 348 348 345 349 347 352 354 345 341 337
339 334 330 324 314 309 313 315 324 332 338 341 334 339 328 318 315 317 330 338 342 336 336 338 339 340 340 341 341 344 345 345 346 346 346 339 345 342 346 348 342 338 333
337 336 331 322 313 307 311 312 322 328 338 327 317 320 315 310 314 316 321 323 329 332 331 326 325 326 326 325 328 334 335 337 337 338 344 342 343 336 336 340 345 337 333
336 329 327 322 316 307 310 310 315 315 319 328 322 316 315 309 310 311 311 314 320 323 318 318 322 327 330 334 331 336 338 336 336 334 344 339 335 333 333 340 344 348 347

GFSMA_sfc_thetae_108.txt.gz
Theta_e
343 337 333 337 339 341 343 342 342 345 346 345 345 341 335 336 337 343 344 355 357 354 352 352 352 353 353 354 355 357 358 360 360 360 361 361 360 359 359 358 358 356 354
343 337 335 337 340 344 343 342 342 336 339 341 335 336 336 336 338 341 344 346 356 356 355 355 354 355 355 357 358 359 361 363 364 363 364 364 363 362 360 360 358 358 356
342 340 339 341 344 347 345 344 343 341 342 342 337 337 337 333 335 338 342 344 347 357 356 357 360 360 357 358 359 362 365 365 365 364 363 363 362 361 361 362 361 360 359
340 340 340 344 346 342 350 348 345 345 343 340 336 338 339 336 333 334 337 340 342 345 351 360 361 361 360 360 363 366 365 363 363 363 362 362 361 361 361 362 362 362 360
350 348 346 345 347 348 341 343 341 342 340 338 339 339 341 340 339 337 336 337 338 341 340 350 359 359 360 361 366 367 365 362 362 363 362 361 360 360 361 362 361 361 358
352 351 347 343 338 347 346 348 345 347 343 338 343 341 339 339 341 343 339 342 340 342 341 344 346 353 359 362 363 366 365 363 362 363 363 361 358 359 360 360 360 360 359
353 350 350 343 342 345 346 347 347 347 345 342 338 338 335 338 340 343 345 345 344 346 344 345 345 347 349 359 360 362 365 365 362 363 363 361 359 358 358 358 358 358 358
351 351 348 345 346 344 340 342 349 348 345 340 338 335 327 333 337 341 343 346 344 346 348 348 351 351 352 351 356 361 361 360 362 365 364 362 361 359 357 358 356 357 357
351 350 347 346 343 339 329 337 348 348 343 345 344 339 330 326 331 333 336 342 341 343 346 350 350 352 352 351 351 352 357 352 359 361 364 361 360 360 359 358 357 355 354
350 351 345 346 342 331 335 342 348 349 346 343 345 345 337 337 332 327 336 340 342 342 343 345 345 350 349 350 354 352 350 349 353 355 360 362 360 360 361 361 359 356 353
350 354 343 348 342 341 344 346 348 348 349 344 340 337 336 333 336 332 326 327 337 341 342 343 344 346 347 340 338 347 349 347 348 350 352 357 358 359 362 364 362 360 356
346 347 351 349 347 343 339 339 348 349 348 347 342 336 332 331 331 335 327 326 328 337 342 342 343 343 346 345 344 350 348 346 345 346 347 351 354 354 356 359 362 363 361
342 343 347 348 343 341 332 343 345 344 348 346 347 340 332 333 332 334 336 334 327 332 338 340 343 343 346 344 341 347 346 344 343 342 342 348 349 349 351 353 356 361 363
342 345 347 348 349 349 346 348 345 346 346 343 341 342 345 337 335 339 335 329 325 328 335 332 337 341 341 340 341 348 342 342 342 339 341 345 345 345 347 348 349 353 356
346 345 347 343 341 347 348 348 345 344 344 341 336 344 345 346 344 341 339 335 336 328 329 333 331 336 340 342 342 342 340 341 342 341 341 342 341 343 344 345 344 346 348
345 346 343 340 340 344 348 347 347 346 344 343 335 342 342 343 344 344 342 338 341 334 329 336 334 334 341 344 343 341 341 345 344 342 342 340 339 341 342 343 342 342 344
340 341 339 339 343 347 348 346 345 347 344 343 344 343 344 343 344 346 344 344 340 339 333 337 339 339 338 339 343 342 345 346 353 344 339 338 337 338 339 340 339 338 339
338 335 338 344 348 349 348 347 346 349 346 344 344 344 344 347 342 343 342 340 340 341 337 332 337 340 339 342 344 344 350 354 352 346 338 336 336 335 334 334 334 332 332
346 343 346 347 348 347 347 347 347 347 346 347 346 344 345 344 344 343 340 338 342 343 341 338 337 340 341 344 345 348 349 349 353 349 343 340 339 337 335 332 330 328 324
342 344 345 346 341 337 337 339 343 344 347 349 348 348 346 346 343 343 343 341 342 339 338 336 335 336 340 343 344 342 344 345 346 352 347 344 341 341 338 335 334 334 328
342 343 341 338 334 332 329 330 335 337 345 346 349 349 344 342 339 338 342 341 341 337 337 334 334 335 335 337 337 342 342 344 344 345 345 348 349 349 350 344 346 342 330
340 342 337 331 325 321 319 321 325 331 338 344 346 346 338 334 336 333 333 335 338 338 335 335 336 335 336 338 342 342 341 339 337 346 344 346 348 346 348 349 338 335 331
340 331 321 315 310 312 317 319 325 328 336 342 340 341 334 324 321 325 332 337 337 335 335 336 335 335 337 340 342 339 338 338 339 345 344 341 344 342 343 344 334 333 330
334 325 320 315 309 309 315 319 329 335 334 329 332 326 318 314 315 320 326 329 336 331 329 329 328 331 333 334 332 333 334 338 341 344 343 335 342 340 338 337 333 332 329
331 327 321 315 308 306 312 317 325 335 326 317 316 313 310 309 313 316 315 319 323 324 322 321 321 321 321 322 326 331 334 333 331 336 341 337 337 335 333 335 341 332 329
333 328 320 314 311 305 310 312 313 319 323 321 317 315 314 308 310 310 309 309 312 315 314 318 321 321 320 321 324 327 330 329 329 329 330 329 331 330 329 336 338 342 338

GFSMA_sfc_thetae_111.txt.gz
Theta_e
341 333 332 336 338 341 341 341 341 341 337 341 339 344 338 336 338 343 345 357 357 353 352 352 352 353 354 354 356 357 359 360 361 361 361 361 360 359 358 357 356 356 355
340 336 334 338 340 342 343 341 341 340 337 339 334 335 335 336 336 338 341 342 354 354 354 354 355 355 356 357 358 359 360 362 363 362 363 363 363 361 361 361 360 358 356
341 337 338 341 343 341 346 346 344 340 340 341 335 335 334 335 336 336 340 341 344 354 355 356 358 360 357 358 360 363 364 365 363 363 363 362 362 362 361 362 362 360 355
342 341 341 342 343 334 346 341 342 343 342 339 335 335 335 332 332 333 335 338 339 343 348 358 361 361 359 359 362 366 366 364 363 363 362 362 361 361 362 362 359 360 360
343 346 346 344 344 345 345 343 342 340 339 337 337 337 339 338 334 334 333 334 335 340 339 345 354 359 359 361 366 366 367 364 363 363 363 362 360 359 360 362 360 359 358
349 347 344 341 342 344 345 345 343 345 340 336 341 340 338 338 340 341 335 337 337 337 339 340 342 347 356 358 363 363 366 365 363 363 363 363 361 359 358 360 359 359 359
351 347 344 335 341 343 342 347 346 343 339 339 336 335 333 337 337 341 343 343 343 342 343 343 344 347 349 356 359 362 359 360 362 364 363 362 362 360 357 358 357 358 357
349 348 345 344 344 338 337 345 346 343 343 342 338 331 326 332 336 338 341 343 343 344 346 348 349 350 351 351 354 359 355 356 360 362 363 362 361 360 359 356 357 356 355
351 348 346 342 341 335 329 340 345 345 340 343 341 336 328 325 329 334 338 341 341 342 346 348 352 352 352 352 354 354 356 351 354 357 359 359 360 359 359 359 357 356 354
349 350 345 343 338 331 338 343 347 347 342 338 340 339 335 336 330 325 334 337 340 340 341 344 347 350 351 351 353 354 353 350 351 353 353 355 358 359 360 360 359 356 355
347 351 342 345 340 340 342 344 346 346 346 340 336 335 334 332 333 330 325 327 333 339 341 342 343 345 349 348 340 342 349 349 348 349 350 350 353 358 358 361 361 359 358
345 346 349 346 344 342 339 341 346 346 346 343 337 332 331 329 329 330 326 324 327 333 339 342 341 342 346 346 349 350 349 347 345 345 346 346 349 356 357 356 358 361 362
341 343 346 346 343 340 337 337 344 343 345 344 342 337 332 331 331 333 333 331 326 327 335 340 341 342 343 342 341 347 347 344 343 341 341 343 346 351 353 352 353 354 360
342 343 345 348 346 345 340 346 345 344 346 342 339 341 341 336 334 338 334 328 327 328 333 333 336 339 341 340 342 348 343 342 340 339 340 341 342 345 348 348 349 350 353
343 344 346 345 346 347 347 346 344 342 342 340 337 338 343 343 339 337 337 333 333 325 327 333 331 334 337 339 342 343 341 341 340 341 340 339 339 341 343 344 345 344 346
345 340 343 342 340 342 345 347 345 344 342 340 334 338 340 342 342 342 340 336 337 333 327 334 335 334 338 342 345 343 341 343 343 341 339 336 337 339 340 342 342 342 342
341 341 342 339 337 342 345 346 345 345 343 341 342 343 341 342 341 343 342 341 338 335 332 334 337 338 338 340 343 345 348 348 349 343 339 337 337 337 338 338 337 338 338
338 336 337 336 341 346 346 346 344 348 345 343 342 341 342 347 341 340 341 340 339 339 336 330 335 339 339 341 342 343 349 352 349 346 338 337 336 335 335 334 334 333 330
340 339 340 342 345 345 345 345 346 347 347 346 345 344 344 343 342 342 339 338 339 341 338 336 335 338 339 341 342 344 347 346 351 348 343 340 337 336 335 332 330 328 323
340 343 344 344 343 338 339 339 342 344 344 346 347 347 346 345 342 342 342 341 340 339 336 334 333 333 336 340 341 339 341 343 345 350 347 343 341 341 339 334 335 333 325
342 342 341 338 334 333 330 329 333 336 339 342 347 348 344 342 339 337 342 342 340 337 336 334 333 333 334 335 335 340 339 341 342 343 343 345 346 346 345 339 341 336 330
341 343 337 332 327 328 322 321 326 330 337 343 344 341 339 336 333 331 332 333 336 336 334 334 333 333 334 336 339 339 338 335 333 344 341 343 345 343 342 339 333 332 329
339 331 324 318 313 313 317 320 324 327 336 341 343 342 331 321 323 327 332 331 330 331 333 338 335 335 334 339 332 331 331 333 333 339 341 338 341 339 339 338 330 329 328
329 320 314 312 310 312 317 323 331 334 333 334 332 330 323 315 315 320 324 333 328 323 322 323 321 323 325 326 326 329 330 332 335 338 332 332 337 333 336 335 330 327 325
323 318 314 310 307 307 313 318 329 326 323 320 319 319 314 309 313 315 314 317 318 315 319 321 321 319 319 319 323 327 328 326 325 332 317 322 330 326 331 334 336 321 321
326 320 315 309 309 304 310 311 322 321 314 314 317 315 314 309 309 310 308 309 310 312 315 315 315 316 316 316 319 315 317 316 323 314 312 316 311 318 317 328 329 319 321

GFSMA_sfc_thetae_114.txt.gz
Theta_e
342 337 338 342 344 346 347 346 345 344 342 344 342 348 340 342 343 345 349 354 355 355 353 351 352 353 354 355 357 358 360 361 362 361 362 362 361 360 360 360 357 357 357
343 339 339 344 346 347 347 347 346 344 343 344 341 341 344 341 342 343 346 346 355 354 354 354 354 356 356 357 358 360 362 361 362 362 362 361 361 362 360 361 362 361 359
344 341 341 345 347 343 350 349 348 347 348 347 343 341 340 340 341 340 342 343 345 352 355 355 357 360 358 358 359 363 365 364 363 363 363 362 361 362 360 359 361 361 361
345 343 344 346 347 342 350 349 349 347 347 346 343 342 341 339 339 339 339 342 343 343 346 352 360 361 359 359 363 366 366 364 362 363 363 363 363 362 360 357 360 360 359
345 346 349 348 350 351 351 349 351 347 346 343 343 343 344 343 340 337 338 340 340 343 343 345 350 355 357 361 364 365 366 363 362 362 363 363 363 361 360 359 359 358 359
350 351 349 346 349 351 351 350 350 349 345 344 342 343 343 344 345 347 346 345 343 345 345 347 348 349 354 358 361 361 364 363 361 362 362 362 362 362 360 359 358 358 358
352 350 348 342 349 349 347 352 351 347 347 345 345 342 341 342 344 347 346 347 349 350 350 351 351 353 353 356 358 360 360 360 363 363 362 361 360 360 360 358 357 357 357
352 350 347 346 349 344 347 352 351 348 347 347 345 336 333 337 341 343 347 346 347 348 350 353 355 355 358 357 356 360 358 353 359 361 360 359 359 358 358 358 357 357 355
352 352 349 349 347 341 345 350 353 350 347 345 345 343 337 333 336 344 344 345 345 348 350 353 355 357 357 357 357 356 356 353 353 353 358 357 356 358 357 358 358 357 355
351 350 350 346 343 338 347 351 353 352 348 346 345 341 342 344 336 334 342 342 344 345 347 349 351 352 354 354 350 349 347 351 351 350 352 353 355 358 360 358 358 358 356
351 353 349 349 343 347 349 352 353 353 352 345 344 343 341 340 339 339 335 337 340 343 348 349 348 350 351 351 353 349 349 349 347 348 349 351 352 354 359 360 358 359 359
348 351 351 346 349 348 347 349 353 353 352 347 342 341 341 341 339 340 337 334 335 342 344 347 348 349 352 350 348 350 350 348 346 345 345 347 351 352 355 356 355 358 362
346 348 351 351 349 349 346 343 350 350 351 352 349 345 341 338 339 342 342 339 335 337 342 348 349 349 350 348 346 346 350 345 343 340 341 344 346 348 350 353 353 353 356
346 348 348 352 350 348 343 345 349 349 351 349 348 350 349 344 341 345 343 340 339 339 342 345 346 347 346 346 347 348 349 342 341 339 340 340 341 344 346 349 350 350 351
347 347 349 351 350 351 351 351 350 348 348 347 345 346 350 351 342 343 344 344 343 338 339 343 341 345 348 351 351 354 352 344 341 341 339 337 339 341 343 344 345 345 345
346 346 347 347 348 348 350 351 351 350 348 346 342 346 349 350 349 347 346 343 344 342 338 343 344 345 350 349 351 354 354 347 345 341 338 337 338 339 340 340 341 341 342
347 346 345 346 344 344 348 350 349 350 348 348 348 347 349 348 347 348 348 346 344 342 339 343 345 348 349 351 353 354 356 357 355 340 338 338 336 337 338 338 337 337 336
344 344 346 344 342 345 350 350 348 351 349 348 348 347 347 348 349 348 347 348 346 345 343 341 343 347 348 351 351 353 353 354 356 345 338 337 335 335 335 334 332 330 326
343 342 340 340 343 350 350 350 349 348 351 350 351 349 349 349 348 349 347 346 344 346 345 343 343 346 346 348 350 351 353 355 353 347 342 340 337 336 334 331 330 325 322
343 345 345 347 349 347 347 346 345 347 347 349 350 350 350 351 350 349 347 347 346 346 343 342 341 340 342 346 347 346 348 350 348 352 348 343 342 340 338 332 332 330 325
344 343 344 344 341 340 336 335 338 340 342 346 348 351 349 344 340 340 348 347 346 346 344 342 339 341 342 342 343 346 345 345 346 351 349 351 354 352 346 339 338 331 326
342 343 340 337 336 333 322 323 326 333 338 343 346 348 341 337 335 331 333 334 338 344 343 342 340 341 342 344 344 338 341 339 337 346 345 349 349 343 344 335 329 327 323
340 340 334 328 322 319 319 321 325 329 337 342 345 341 334 328 328 333 331 329 329 328 333 344 342 340 336 339 333 335 337 339 340 325 340 346 341 335 342 325 324 324 320
336 329 321 316 316 318 317 322 329 337 337 330 331 331 325 322 323 323 337 335 326 327 327 327 329 328 326 326 331 335 336 339 343 322 322 331 333 329 341 335 321 320 317
326 321 318 315 315 314 313 320 330 329 324 321 320 321 319 314 313 315 325 328 322 323 320 319 319 318 316 316 319 330 326 333 334 325 313 323 319 322 332 332 324 320 312
324 318 314 312 310 311 310 312 323 322 318 318 320 318 314 313 311 311 317 320 320 319 322 320 318 316 317 316 316 320 323 328 329 317 312 317 313 316 317 329 322 317 318

GFSMA_sfc_thetae_120.txt.gz
Theta_e
351 353 354 355 359 358 358 360 359 356 355 352 353 351 347 347 346 349 349 351 352 354 355 354 354 355 357 358 360 361 362 363 365 363 363 362 362 361 361 360 361 361 361
357 353 356 355 358 361 361 360 358 356 352 351 354 352 348 348 349 351 351 352 356 357 355 355 356 357 359 359 361 362 363 365 366 365 366 364 363 362 360 360 360 360 360
359 363 356 357 357 362 364 361 359 357 350 350 352 353 352 351 349 350 352 352 351 351 354 356 357 359 359 360 361 363 367 368 367 366 366 366 366 363 359 360 360 358 357
362 362 357 357 361 364 361 357 355 351 351 350 349 349 352 353 355 354 354 357 358 356 353 356 355 356 357 359 362 366 368 367 366 365 365 366 364 363 361 361 359 357 356
360 362 357 359 368 365 364 360 355 354 350 349 348 351 352 352 354 352 356 358 358 356 359 357 355 356 356 359 363 366 366 366 365 364 365 365 364 364 363 362 360 358 356
360 363 358 364 364 361 361 360 362 360 357 355 348 349 354 353 356 358 356 355 359 360 359 364 362 361 359 359 360 361 362 364 364 365 364 362 361 362 363 363 360 358 356
363 365 358 361 365 362 363 366 360 360 355 361 351 350 351 353 352 353 355 355 357 357 359 362 363 362 362 361 361 359 360 356 358 358 360 359 360 360 361 361 360 358 357
363 362 365 360 364 360 368 366 365 355 357 362 351 349 339 344 346 350 355 355 355 357 356 359 362 366 367 364 364 358 359 357 356 357 357 357 358 359 358 361 359 358 358
362 364 364 363 365 361 359 366 364 361 352 361 362 351 340 338 345 350 354 354 361 357 359 361 362 367 369 365 364 364 354 348 351 354 355 355 356 357 358 361 358 358 359
361 362 362 363 365 360 363 364 364 364 363 355 357 358 360 358 342 341 350 353 356 355 360 358 360 362 366 361 359 361 351 350 352 353 353 354 355 356 358 362 361 357 359
362 359 364 364 363 356 362 366 364 367 361 355 351 356 358 353 357 345 339 347 352 354 353 355 357 357 362 359 358 355 351 350 351 350 351 353 354 356 359 361 364 359 357
356 362 362 365 364 362 361 361 366 364 364 361 357 356 351 347 346 345 342 345 346 351 353 356 355 357 362 361 358 353 354 351 350 347 347 349 351 353 358 361 362 358 356
353 360 363 363 359 365 363 362 366 365 363 360 363 355 357 352 352 351 347 345 343 349 351 357 359 361 360 362 360 356 359 351 347 345 345 345 348 350 352 356 359 358 357
354 358 359 360 361 363 362 363 357 358 360 359 362 362 355 356 355 354 350 346 340 342 348 352 357 358 360 360 357 357 358 348 347 344 342 342 344 347 348 349 348 349 350
363 363 362 360 359 360 361 362 356 358 360 361 359 361 357 352 355 353 353 351 344 335 334 348 346 361 357 357 356 361 361 347 348 345 342 341 342 344 344 343 342 341 343
363 362 362 362 362 362 363 365 359 361 360 357 354 358 359 353 355 355 353 351 350 345 339 344 348 353 359 356 356 361 360 354 347 344 343 341 340 341 340 339 338 337 337
363 362 363 362 361 362 362 364 362 360 360 359 359 358 359 362 354 351 351 351 350 349 344 345 348 355 359 358 359 360 358 358 356 341 341 338 336 336 335 333 331 331 332
364 363 362 361 360 361 361 362 360 358 358 357 356 358 356 354 359 360 353 356 354 356 349 349 354 350 356 360 359 360 357 354 357 343 339 335 332 328 325 324 323 321 322
362 360 360 360 359 359 359 360 361 359 359 358 357 357 356 357 357 357 362 354 352 355 360 352 349 353 354 354 355 358 360 362 355 347 338 332 326 324 323 321 320 318 316
361 360 360 361 360 358 358 360 359 359 358 357 360 358 357 357 358 358 357 360 351 357 359 352 352 352 351 356 354 350 348 355 352 354 346 343 335 328 324 319 320 318 315
358 359 358 358 359 359 356 359 359 358 358 357 359 359 358 353 340 345 360 357 353 353 348 346 347 349 354 347 354 350 347 349 361 350 366 343 341 344 330 322 321 316 315
356 356 356 356 355 353 324 324 332 351 355 355 355 356 358 342 340 337 338 338 343 356 355 354 351 348 354 357 356 346 345 344 349 352 361 347 344 337 329 318 314 314 314
354 352 354 353 347 347 321 321 324 338 349 352 354 355 354 349 345 351 332 329 328 328 330 340 352 354 353 352 347 348 353 352 350 340 347 349 347 337 329 315 313 313 313
347 347 349 345 345 339 317 321 328 336 347 352 349 352 354 347 331 332 341 337 337 328 332 339 346 337 336 336 345 348 350 351 345 340 337 347 341 339 334 321 314 313 312
344 339 332 326 325 322 314 319 330 344 341 335 330 336 335 331 313 316 336 344 333 326 317 318 318 318 317 318 324 338 339 336 345 343 328 331 336 330 336 334 318 313 311
334 328 322 322 319 324 314 314 326 344 342 340 338 329 313 325 314 313 335 339 336 336 331 328 328 325 327 325 322 332 330 330 333 334 321 324 328 323 323 337 329 323 321

GFSMA_sfc_thetae_123.txt.gz
Theta_e
352 352 353 352 360 350 350 352 353 353 353 352 350 347 346 346 347 347 347 353 353 354 355 355 356 356 358 359 360 361 362 364 366 365 364 364 364 363 363 361 360 361 362
356 352 353 351 351 354 352 352 356 354 350 350 349 347 346 347 350 350 349 350 355 356 356 356 357 358 359 360 361 362 364 366 368 367 367 365 363 361 363 361 359 359 359
359 358 353 358 351 357 359 356 356 355 349 347 351 350 348 349 350 352 350 351 353 359 358 358 359 359 360 360 361 363 367 369 368 367 366 363 363 362 362 361 359 358 357
360 363 353 353 355 358 353 351 352 350 348 346 347 349 349 350 352 353 353 354 354 353 357 362 361 362 359 359 361 364 368 367 367 365 366 366 365 363 363 361 360 359 356
360 361 358 356 364 353 353 354 351 351 349 346 346 348 348 349 352 351 354 355 354 353 356 358 361 360 360 360 363 365 365 366 366 365 365 363 363 363 363 363 361 359 357
360 363 356 360 365 353 359 364 367 355 353 349 345 346 348 348 351 352 353 353 353 356 356 360 361 360 361 365 365 363 362 363 362 364 363 360 360 361 360 361 360 360 359
362 365 356 360 361 361 359 360 358 360 354 354 348 346 348 349 349 350 350 350 354 352 355 356 361 364 360 364 365 362 361 361 358 361 362 360 359 359 359 360 360 359 359
363 361 366 358 362 357 366 363 360 356 351 355 352 344 339 341 343 346 350 349 351 352 352 356 360 363 367 363 368 363 361 360 359 359 360 359 358 359 358 358 361 359 359
361 363 363 363 363 364 358 362 364 364 348 353 361 351 342 338 342 344 349 349 354 352 353 355 358 362 365 363 365 366 358 354 353 355 357 359 359 359 359 360 361 360 360
360 360 362 362 365 361 365 360 358 365 364 353 351 350 359 355 342 337 335 343 353 352 355 355 354 357 361 359 358 361 353 350 353 353 354 356 358 358 359 361 362 362 359
361 358 362 362 363 358 363 365 364 365 362 354 350 352 356 349 354 343 338 340 343 347 353 354 352 354 358 360 358 353 352 351 352 353 352 353 355 358 360 362 364 364 358
356 360 360 363 364 363 362 361 365 365 365 364 358 356 347 346 343 344 340 345 340 348 351 353 354 354 356 358 357 355 356 355 351 349 349 350 353 356 357 359 362 364 360
351 363 365 364 361 365 364 364 366 366 363 360 365 356 353 350 349 347 345 341 341 344 345 350 349 357 355 368 358 361 356 352 348 347 346 347 349 351 353 354 355 358 359
352 361 362 361 362 363 362 364 359 357 364 357 362 365 355 352 351 349 346 343 338 339 343 353 350 353 354 357 358 358 352 352 349 345 344 344 345 346 347 347 347 347 348
356 360 360 362 362 361 362 364 357 358 360 361 359 363 358 351 347 348 348 345 341 334 334 347 345 359 354 352 360 359 358 349 349 347 343 342 343 343 342 341 340 340 341
363 362 362 361 361 361 363 367 362 365 361 357 355 363 363 354 354 352 349 349 348 346 338 343 344 354 359 354 354 359 356 356 347 346 342 339 338 337 335 335 334 334 335
363 362 364 365 363 361 362 366 363 364 362 361 361 359 359 363 354 350 353 353 348 345 342 346 349 360 361 356 358 360 357 358 353 342 337 334 331 329 328 327 327 328 329
367 367 365 364 363 363 364 363 361 358 359 356 358 362 357 353 363 364 352 361 357 359 350 354 355 350 359 362 360 360 358 353 355 337 331 328 326 325 323 322 321 320 321
362 360 364 364 363 362 362 362 362 360 359 358 358 358 358 360 363 356 359 354 352 354 360 355 348 354 353 353 360 363 363 366 349 332 328 326 325 323 321 319 318 316 315
362 360 361 361 361 359 359 360 361 360 359 358 362 359 359 359 357 355 362 366 363 356 348 348 350 348 351 357 348 347 344 351 347 348 344 331 327 325 322 318 318 317 315
360 359 358 359 360 358 353 359 359 359 358 357 359 359 361 354 344 345 352 359 357 350 346 345 346 346 346 347 348 346 348 351 353 351 350 341 330 332 325 320 320 315 315
359 359 359 357 357 355 328 330 336 352 355 356 355 356 359 347 343 338 339 339 344 355 355 355 350 350 354 357 358 351 347 348 348 354 361 353 341 333 324 315 313 313 313
360 357 356 353 351 337 324 323 326 342 352 356 356 357 356 354 348 353 331 330 329 329 332 339 351 351 347 341 343 351 354 355 354 344 349 353 346 329 319 312 314 314 313
354 352 348 345 346 322 318 322 330 345 347 349 345 345 354 352 333 339 348 345 341 337 333 339 345 341 337 335 340 347 353 354 351 344 344 347 343 332 326 317 315 314 312
350 345 337 332 329 322 315 318 327 345 345 339 333 329 339 338 315 316 329 341 336 334 319 319 318 319 319 320 325 335 338 343 347 352 334 331 342 337 337 324 315 314 312
342 328 324 322 322 322 311 313 317 333 341 339 333 327 317 326 319 315 323 343 340 339 330 330 332 328 325 328 325 334 330 327 330 331 322 324 331 325 320 330 324 316 314